Wetterdaten: Donnerstag, 01.06.2017
Datum Zeit Temp. A. Pool Temp. Feuchte A. Luftdruck Regen Wind Richtung Richtung Sonnenschein ET UV Solar Taupunkt Windchill Windben Empfang
01.06.2017 00:00 18,9 C 26,1 C 83 % 1017,1 hPa 0,0 l/m 1,5 km/h (1 Bft) N-NO 31 0 min 0,000 mm 0,0 UV-I 0 W/m 15,9 C 18,9 C 3,2 km/h (1 Bft) 96,23 %
01.06.2017 00:02 19,1 C 26,1 C 82 % 1017,1 hPa 0,0 l/m 0,0 km/h (0 Bft) N-NO 31 0 min 0,000 mm 0,0 UV-I 0 W/m 16,0 C 19,1 C 0,0 km/h (0 Bft) 100,00 %
01.06.2017 00:04 19,2 C 26,1 C 81 % 1017,1 hPa 0,0 l/m 0,0 km/h (0 Bft) N-NO 31 0 min 0,000 mm 0,0 UV-I 0 W/m 15,9 C 19,2 C 0,0 km/h (0 Bft) 96,00 %
01.06.2017 00:06 19,3 C 26,1 C 81 % 1017,1 hPa 0,0 l/m 0,0 km/h (0 Bft) N-NO 31 0 min 0,000 mm 0,0 UV-I 0 W/m 16,0 C 19,3 C 0,0 km/h (0 Bft) 97,87 %
01.06.2017 00:08 19,3 C 26,1 C 81 % 1017,0 hPa 0,0 l/m 0,0 km/h (0 Bft) N-NO 31 0 min 0,000 mm 0,0 UV-I 0 W/m 16,0 C 19,3 C 0,0 km/h (0 Bft) 100,00 %
01.06.2017 00:10 19,3 C 26,1 C 81 % 1017,1 hPa 0,0 l/m 0,0 km/h (0 Bft) N-NO 31 0 min 0,000 mm 0,0 UV-I 0 W/m 16,0 C 19,3 C 0,0 km/h (0 Bft) 97,87 %
01.06.2017 00:12 19,3 C 26,1 C 81 % 1017,0 hPa 0,0 l/m 0,0 km/h (0 Bft) N-NO 31 0 min 0,000 mm 0,0 UV-I 0 W/m 16,0 C 19,3 C 0,0 km/h (0 Bft) 100,00 %
01.06.2017 00:14 19,2 C 26,1 C 81 % 1017,1 hPa 0,0 l/m 0,0 km/h (0 Bft) N-NO 31 0 min 0,000 mm 0,0 UV-I 0 W/m 15,9 C 19,2 C 0,0 km/h (0 Bft) 98,21 %
01.06.2017 00:16 19,2 C 26,1 C 81 % 1017,0 hPa 0,0 l/m 0,0 km/h (0 Bft) N-NO 31 0 min 0,000 mm 0,0 UV-I 0 W/m 15,9 C 19,2 C 0,0 km/h (0 Bft) 97,87 %
01.06.2017 00:18 19,1 C 26,1 C 82 % 1017,0 hPa 0,0 l/m 0,0 km/h (0 Bft) N-NO 31 0 min 0,000 mm 0,0 UV-I 0 W/m 16,0 C 19,1 C 0,0 km/h (0 Bft) 100,00 %
01.06.2017 00:20 19,0 C 26,1 C 82 % 1017,0 hPa 0,0 l/m 0,0 km/h (0 Bft) N-NO 31 0 min 0,000 mm 0,0 UV-I 0 W/m 15,9 C 19,0 C 0,0 km/h (0 Bft) 98,00 %
01.06.2017 00:22 18,9 C 26,1 C 82 % 1017,0 hPa 0,0 l/m 0,0 km/h (0 Bft) N-NO 31 0 min 0,000 mm 0,0 UV-I 0 W/m 15,8 C 18,9 C 0,0 km/h (0 Bft) 100,00 %
01.06.2017 00:24 18,8 C 26,1 C 82 % 1017,0 hPa 0,0 l/m 0,0 km/h (0 Bft) N-NO 31 0 min 0,000 mm 0,0 UV-I 0 W/m 15,7 C 18,8 C 0,0 km/h (0 Bft) 97,87 %
01.06.2017 00:26 18,8 C 26,1 C 83 % 1017,0 hPa 0,0 l/m 0,0 km/h (0 Bft) N-NO 31 0 min 0,000 mm 0,0 UV-I 0 W/m 15,8 C 18,8 C 0,0 km/h (0 Bft) 98,00 %
01.06.2017 00:28 18,8 C 26,1 C 83 % 1017,0 hPa 0,0 l/m 0,5 km/h (0 Bft) N-NO 31 0 min 0,000 mm 0,0 UV-I 0 W/m 15,8 C 18,8 C 1,6 km/h (1 Bft) 100,00 %
01.06.2017 00:30 18,8 C 26,1 C 83 % 1017,0 hPa 0,0 l/m 1,4 km/h (1 Bft) N-NO 31 0 min 0,000 mm 0,0 UV-I 0 W/m 15,8 C 18,8 C 3,2 km/h (1 Bft) 95,74 %
01.06.2017 00:32 18,8 C 26,1 C 83 % 1017,0 hPa 0,0 l/m 1,9 km/h (1 Bft) N-NO 31 0 min 0,000 mm 0,0 UV-I 0 W/m 15,8 C 18,8 C 3,2 km/h (1 Bft) 95,74 %
01.06.2017 00:34 18,7 C 26,1 C 83 % 1017,0 hPa 0,0 l/m 3,3 km/h (1 Bft) NO 42 0 min 0,000 mm 0,0 UV-I 0 W/m 15,8 C 18,7 C 4,8 km/h (1 Bft) 96,00 %
01.06.2017 00:36 18,6 C 26,1 C 84 % 1016,9 hPa 0,0 l/m 2,5 km/h (1 Bft) NO 42 0 min 0,000 mm 0,0 UV-I 0 W/m 15,8 C 18,6 C 3,2 km/h (1 Bft) 95,12 %
01.06.2017 00:38 18,4 C 26,1 C 84 % 1016,9 hPa 0,0 l/m 2,4 km/h (1 Bft) NO 42 0 min 0,000 mm 0,0 UV-I 0 W/m 15,6 C 18,4 C 3,2 km/h (1 Bft) 98,00 %
01.06.2017 00:40 18,3 C 26,1 C 84 % 1016,9 hPa 0,0 l/m 2,7 km/h (1 Bft) NO 42 0 min 0,000 mm 0,0 UV-I 0 W/m 15,5 C 18,3 C 3,2 km/h (1 Bft) 95,45 %
01.06.2017 00:42 18,3 C 26,1 C 84 % 1017,0 hPa 0,0 l/m 2,5 km/h (1 Bft) NO 42 0 min 0,000 mm 0,0 UV-I 0 W/m 15,5 C 18,3 C 4,8 km/h (1 Bft) 96,23 %
01.06.2017 00:44 18,3 C 26,1 C 85 % 1017,0 hPa 0,0 l/m 0,8 km/h (0 Bft) NO 42 0 min 0,000 mm 0,0 UV-I 0 W/m 15,7 C 18,3 C 3,2 km/h (1 Bft) 97,14 %
01.06.2017 00:46 18,3 C 26,1 C 85 % 1016,9 hPa 0,0 l/m 0,0 km/h (0 Bft) NO 42 0 min 0,000 mm 0,0 UV-I 0 W/m 15,7 C 18,3 C 0,0 km/h (0 Bft) 98,21 %
01.06.2017 00:48 18,3 C 26,1 C 85 % 1017,0 hPa 0,0 l/m 0,0 km/h (0 Bft) NO 42 0 min 0,000 mm 0,0 UV-I 0 W/m 15,7 C 18,3 C 1,6 km/h (1 Bft) 97,87 %
01.06.2017 00:50 18,3 C 26,1 C 86 % 1017,0 hPa 0,0 l/m 0,2 km/h (0 Bft) NO 42 0 min 0,000 mm 0,0 UV-I 0 W/m 15,9 C 18,3 C 1,6 km/h (1 Bft) 95,74 %
01.06.2017 00:52 18,3 C 26,1 C 86 % 1017,0 hPa 0,0 l/m 0,1 km/h (0 Bft) NO 42 0 min 0,000 mm 0,0 UV-I 0 W/m 15,9 C 18,3 C 1,6 km/h (1 Bft) 96,00 %
01.06.2017 00:54 18,2 C 26,1 C 86 % 1016,9 hPa 0,0 l/m 0,1 km/h (0 Bft) NO 42 0 min 0,000 mm 0,0 UV-I 0 W/m 15,8 C 18,2 C 1,6 km/h (1 Bft) 96,00 %
01.06.2017 00:56 18,2 C 26,1 C 86 % 1016,9 hPa 0,0 l/m 0,0 km/h (0 Bft) NO 42 0 min 0,000 mm 0,0 UV-I 0 W/m 15,8 C 18,2 C 0,0 km/h (0 Bft) 93,62 %
01.06.2017 00:58 18,2 C 26,1 C 86 % 1017,0 hPa 0,0 l/m 0,5 km/h (0 Bft) NO 42 0 min 0,000 mm 0,0 UV-I 0 W/m 15,8 C 18,2 C 1,6 km/h (1 Bft) 95,74 %
01.06.2017 01:00 18,2 C 26,1 C 86 % 1017,0 hPa 0,0 l/m 2,4 km/h (1 Bft) NO 42 0 min 0,000 mm 0,0 UV-I 0 W/m 15,8 C 18,2 C 3,2 km/h (1 Bft) 94,87 %
01.06.2017 01:02 18,1 C 26,1 C 86 % 1017,0 hPa 0,0 l/m 2,0 km/h (1 Bft) NO 42 0 min 0,000 mm 0,0 UV-I 0 W/m 15,7 C 18,1 C 3,2 km/h (1 Bft) 96,55 %
01.06.2017 01:04 18,1 C 26,1 C 86 % 1017,1 hPa 0,0 l/m 0,4 km/h (0 Bft) NO 42 0 min 0,000 mm 0,0 UV-I 0 W/m 15,7 C 18,1 C 1,6 km/h (1 Bft) 97,22 %
01.06.2017 01:06 18,1 C 26,1 C 86 % 1017,0 hPa 0,0 l/m 0,0 km/h (0 Bft) NO 42 0 min 0,000 mm 0,0 UV-I 0 W/m 15,7 C 18,1 C 0,0 km/h (0 Bft) 95,74 %
01.06.2017 01:08 18,1 C 26,1 C 86 % 1017,0 hPa 0,0 l/m 0,0 km/h (0 Bft) NO 42 0 min 0,000 mm 0,0 UV-I 0 W/m 15,7 C 18,1 C 0,0 km/h (0 Bft) 97,87 %
01.06.2017 01:10 18,1 C 26,1 C 87 % 1017,1 hPa 0,0 l/m 0,0 km/h (0 Bft) NO 42 0 min 0,000 mm 0,0 UV-I 0 W/m 15,9 C 18,1 C 0,0 km/h (0 Bft) 93,62 %
01.06.2017 01:12 18,1 C 26,1 C 87 % 1017,1 hPa 0,0 l/m 0,0 km/h (0 Bft) NO 42 0 min 0,000 mm 0,0 UV-I 0 W/m 15,9 C 18,1 C 0,0 km/h (0 Bft) 90,57 %
01.06.2017 01:14 18,1 C 26,1 C 87 % 1017,1 hPa 0,0 l/m 0,3 km/h (0 Bft) NO 42 0 min 0,000 mm 0,0 UV-I 0 W/m 15,9 C 18,1 C 1,6 km/h (1 Bft) 94,74 %
01.06.2017 01:16 18,1 C 26,1 C 87 % 1017,1 hPa 0,0 l/m 1,8 km/h (1 Bft) NO 42 0 min 0,000 mm 0,0 UV-I 0 W/m 15,9 C 18,1 C 3,2 km/h (1 Bft) 94,34 %
01.06.2017 01:18 18,0 C 26,1 C 86 % 1017,1 hPa 0,0 l/m 0,5 km/h (0 Bft) NO 42 0 min 0,000 mm 0,0 UV-I 0 W/m 15,6 C 18,0 C 1,6 km/h (1 Bft) 95,74 %
01.06.2017 01:20 18,0 C 26,1 C 87 % 1017,1 hPa 0,0 l/m 1,9 km/h (1 Bft) NO 42 0 min 0,000 mm 0,0 UV-I 0 W/m 15,8 C 18,0 C 3,2 km/h (1 Bft) 96,15 %
01.06.2017 01:22 17,9 C 26,1 C 87 % 1017,2 hPa 0,0 l/m 0,1 km/h (0 Bft) NO 42 0 min 0,000 mm 0,0 UV-I 0 W/m 15,7 C 17,9 C 1,6 km/h (1 Bft) 95,59 %
01.06.2017 01:24 17,9 C 26,1 C 87 % 1017,2 hPa 0,0 l/m 0,0 km/h (0 Bft) NO 42 0 min 0,000 mm 0,0 UV-I 0 W/m 15,7 C 17,9 C 1,6 km/h (1 Bft) 93,62 %
01.06.2017 01:26 17,9 C 26,1 C 87 % 1017,2 hPa 0,0 l/m 0,1 km/h (0 Bft) NO 42 0 min 0,000 mm 0,0 UV-I 0 W/m 15,7 C 17,9 C 1,6 km/h (1 Bft) 92,68 %
01.06.2017 01:28 17,9 C 26,1 C 87 % 1017,3 hPa 0,0 l/m 0,3 km/h (0 Bft) NO 42 0 min 0,000 mm 0,0 UV-I 0 W/m 15,7 C 17,9 C 1,6 km/h (1 Bft) 92,86 %
01.06.2017 01:30 17,8 C 26,1 C 87 % 1017,2 hPa 0,0 l/m 0,7 km/h (0 Bft) NO 42 0 min 0,000 mm 0,0 UV-I 0 W/m 15,6 C 17,8 C 3,2 km/h (1 Bft) 94,74 %
01.06.2017 01:32 17,7 C 26,1 C 88 % 1017,2 hPa 0,0 l/m 0,2 km/h (0 Bft) NO 42 0 min 0,000 mm 0,0 UV-I 0 W/m 15,7 C 17,7 C 3,2 km/h (1 Bft) 98,00 %
01.06.2017 01:34 17,6 C 26,1 C 88 % 1017,2 hPa 0,0 l/m 2,0 km/h (1 Bft) NO 42 0 min 0,000 mm 0,0 UV-I 0 W/m 15,6 C 17,6 C 3,2 km/h (1 Bft) 97,87 %
01.06.2017 01:36 17,6 C 26,1 C 88 % 1017,3 hPa 0,0 l/m 0,8 km/h (0 Bft) NO 42 0 min 0,000 mm 0,0 UV-I 0 W/m 15,6 C 17,6 C 1,6 km/h (1 Bft) 95,24 %
01.06.2017 01:38 17,6 C 26,1 C 88 % 1017,3 hPa 0,0 l/m 1,0 km/h (0 Bft) NO 42 0 min 0,000 mm 0,0 UV-I 0 W/m 15,6 C 17,6 C 3,2 km/h (1 Bft) 94,00 %
01.06.2017 01:40 17,6 C 26,1 C 89 % 1017,3 hPa 0,0 l/m 1,3 km/h (1 Bft) NO 42 0 min 0,000 mm 0,0 UV-I 0 W/m 15,8 C 17,6 C 3,2 km/h (1 Bft) 96,15 %
01.06.2017 01:42 17,5 C 26,1 C 89 % 1017,3 hPa 0,0 l/m 3,0 km/h (1 Bft) NO 42 0 min 0,000 mm 0,0 UV-I 0 W/m 15,7 C 17,5 C 4,8 km/h (1 Bft) 100,00 %
01.06.2017 01:44 17,6 C 26,1 C 89 % 1017,3 hPa 0,0 l/m 0,8 km/h (0 Bft) NO 42 0 min 0,000 mm 0,0 UV-I 0 W/m 15,8 C 17,6 C 3,2 km/h (1 Bft) 90,00 %
01.06.2017 01:46 17,6 C 26,1 C 88 % 1017,3 hPa 0,0 l/m 0,0 km/h (0 Bft) NO 42 0 min 0,000 mm 0,0 UV-I 0 W/m 15,6 C 17,6 C 0,0 km/h (0 Bft) 97,87 %
01.06.2017 01:48 17,6 C 26,1 C 88 % 1017,3 hPa 0,0 l/m 0,0 km/h (0 Bft) NO 42 0 min 0,000 mm 0,0 UV-I 0 W/m 15,6 C 17,6 C 0,0 km/h (0 Bft) 98,00 %
01.06.2017 01:50 17,6 C 26,1 C 88 % 1017,3 hPa 0,0 l/m 0,0 km/h (0 Bft) NO 42 0 min 0,000 mm 0,0 UV-I 0 W/m 15,6 C 17,6 C 0,0 km/h (0 Bft) 97,87 %
01.06.2017 01:52 17,6 C 26,1 C 88 % 1017,3 hPa 0,0 l/m 0,0 km/h (0 Bft) NO 42 0 min 0,000 mm 0,0 UV-I 0 W/m 15,6 C 17,6 C 0,0 km/h (0 Bft) 100,00 %
01.06.2017 01:54 17,6 C 26,1 C 88 % 1017,3 hPa 0,0 l/m 0,0 km/h (0 Bft) NO 42 0 min 0,000 mm 0,0 UV-I 0 W/m 15,6 C 17,6 C 0,0 km/h (0 Bft) 94,74 %
01.06.2017 01:56 17,5 C 26,1 C 89 % 1017,3 hPa 0,0 l/m 0,2 km/h (0 Bft) NO 42 0 min 0,000 mm 0,0 UV-I 0 W/m 15,7 C 17,5 C 1,6 km/h (1 Bft) 97,87 %
01.06.2017 01:58 17,5 C 26,1 C 88 % 1017,3 hPa 0,0 l/m 0,6 km/h (0 Bft) NO 42 0 min 0,000 mm 0,0 UV-I 0 W/m 15,5 C 17,5 C 1,6 km/h (1 Bft) 97,87 %
01.06.2017 02:00 17,5 C 26,1 C 88 % 1017,2 hPa 0,0 l/m 0,0 km/h (0 Bft) NO 42 0 min 0,000 mm 0,0 UV-I 0 W/m 15,5 C 17,5 C 1,6 km/h (1 Bft) 100,00 %
01.06.2017 02:02 17,4 C 26,1 C 88 % 1017,3 hPa 0,0 l/m 0,0 km/h (0 Bft) NO 42 0 min 0,000 mm 0,0 UV-I 0 W/m 15,4 C 17,4 C 0,0 km/h (0 Bft) 97,37 %
01.06.2017 02:04 17,3 C 26,1 C 88 % 1017,3 hPa 0,0 l/m 1,1 km/h (1 Bft) NO 42 0 min 0,000 mm 0,0 UV-I 0 W/m 15,3 C 17,3 C 3,2 km/h (1 Bft) 98,11 %
01.06.2017 02:06 17,3 C 26,1 C 89 % 1017,3 hPa 0,0 l/m 1,9 km/h (1 Bft) NO 42 0 min 0,000 mm 0,0 UV-I 0 W/m 15,5 C 17,3 C 3,2 km/h (1 Bft) 100,00 %
01.06.2017 02:08 17,4 C 26,1 C 88 % 1017,3 hPa 0,0 l/m 1,4 km/h (1 Bft) NO 42 0 min 0,000 mm 0,0 UV-I 0 W/m 15,4 C 17,4 C 3,2 km/h (1 Bft) 96,00 %
01.06.2017 02:10 17,5 C 26,1 C 88 % 1017,3 hPa 0,0 l/m 1,5 km/h (1 Bft) NO 42 0 min 0,000 mm 0,0 UV-I 0 W/m 15,5 C 17,5 C 3,2 km/h (1 Bft) 98,00 %
01.06.2017 02:12 17,6 C 26,1 C 88 % 1017,4 hPa 0,0 l/m 1,1 km/h (1 Bft) NO 42 0 min 0,000 mm 0,0 UV-I 0 W/m 15,6 C 17,6 C 1,6 km/h (1 Bft) 100,00 %
01.06.2017 02:14 17,6 C 26,1 C 87 % 1017,4 hPa 0,0 l/m 0,4 km/h (0 Bft) NO 42 0 min 0,000 mm 0,0 UV-I 0 W/m 15,4 C 17,6 C 1,6 km/h (1 Bft) 94,74 %
01.06.2017 02:16 17,6 C 26,1 C 87 % 1017,3 hPa 0,0 l/m 0,4 km/h (0 Bft) NO 42 0 min 0,000 mm 0,0 UV-I 0 W/m 15,4 C 17,6 C 1,6 km/h (1 Bft) 98,00 %
01.06.2017 02:18 17,6 C 26,1 C 88 % 1017,3 hPa 0,0 l/m 1,2 km/h (1 Bft) NO 42 0 min 0,000 mm 0,0 UV-I 0 W/m 15,6 C 17,6 C 3,2 km/h (1 Bft) 98,11 %
01.06.2017 02:20 17,5 C 26,1 C 87 % 1017,3 hPa 0,0 l/m 1,4 km/h (1 Bft) NO 42 0 min 0,000 mm 0,0 UV-I 0 W/m 15,3 C 17,5 C 3,2 km/h (1 Bft) 97,22 %
01.06.2017 02:22 17,4 C 26,1 C 87 % 1017,4 hPa 0,0 l/m 2,8 km/h (1 Bft) NO 42 0 min 0,000 mm 0,0 UV-I 0 W/m 15,2 C 17,4 C 4,8 km/h (1 Bft) 100,00 %
01.06.2017 02:24 17,4 C 26,1 C 87 % 1017,4 hPa 0,0 l/m 2,5 km/h (1 Bft) NO 42 0 min 0,000 mm 0,0 UV-I 0 W/m 15,2 C 17,4 C 4,8 km/h (1 Bft) 98,11 %
01.06.2017 02:26 17,4 C 26,1 C 87 % 1017,4 hPa 0,0 l/m 4,1 km/h (1 Bft) NO 51 0 min 0,000 mm 0,0 UV-I 0 W/m 15,2 C 17,4 C 6,4 km/h (2 Bft) 100,00 %
01.06.2017 02:28 17,5 C 26,1 C 86 % 1017,4 hPa 0,0 l/m 3,4 km/h (1 Bft) NO 51 0 min 0,000 mm 0,0 UV-I 0 W/m 15,1 C 17,5 C 6,4 km/h (2 Bft) 97,87 %
01.06.2017 02:30 17,6 C 26,1 C 86 % 1017,4 hPa 0,0 l/m 4,1 km/h (1 Bft) NO 47 0 min 0,000 mm 0,0 UV-I 0 W/m 15,2 C 17,6 C 6,4 km/h (2 Bft) 95,74 %
01.06.2017 02:32 17,6 C 26,1 C 85 % 1017,3 hPa 0,0 l/m 6,0 km/h (2 Bft) NO 40 0 min 0,000 mm 0,0 UV-I 0 W/m 15,0 C 17,6 C 8,0 km/h (2 Bft) 98,00 %
01.06.2017 02:34 17,6 C 26,1 C 85 % 1017,4 hPa 0,0 l/m 7,0 km/h (2 Bft) NO 40 0 min 0,000 mm 0,0 UV-I 0 W/m 15,0 C 17,3 C 12,9 km/h (3 Bft) 100,00 %
01.06.2017 02:36 17,6 C 26,1 C 85 % 1017,4 hPa 0,0 l/m 5,7 km/h (1 Bft) N-NO 32 0 min 0,000 mm 0,0 UV-I 0 W/m 15,0 C 17,6 C 8,0 km/h (2 Bft) 95,74 %
01.06.2017 02:38 17,7 C 26,1 C 85 % 1017,4 hPa 0,0 l/m 6,0 km/h (2 Bft) NO 51 0 min 0,000 mm 0,0 UV-I 0 W/m 15,1 C 17,7 C 8,0 km/h (2 Bft) 97,56 %
01.06.2017 02:40 17,7 C 26,1 C 84 % 1017,3 hPa 0,0 l/m 7,1 km/h (2 Bft) NO 53 0 min 0,000 mm 0,0 UV-I 0 W/m 15,0 C 17,4 C 9,7 km/h (2 Bft) 95,74 %
01.06.2017 02:42 17,7 C 26,1 C 84 % 1017,3 hPa 0,0 l/m 7,0 km/h (2 Bft) NO 53 0 min 0,000 mm 0,0 UV-I 0 W/m 15,0 C 17,4 C 12,9 km/h (3 Bft) 98,00 %
01.06.2017 02:44 17,8 C 25,6 C 83 % 1017,4 hPa 0,0 l/m 4,9 km/h (1 Bft) N-NO 25 0 min 0,000 mm 0,0 UV-I 0 W/m 14,9 C 17,8 C 8,0 km/h (2 Bft) 100,00 %
01.06.2017 02:46 17,8 C 25,6 C 83 % 1017,3 hPa 0,0 l/m 6,3 km/h (2 Bft) NO 34 0 min 0,000 mm 0,0 UV-I 0 W/m 14,9 C 17,8 C 8,0 km/h (2 Bft) 100,00 %
01.06.2017 02:48 17,8 C 26,1 C 83 % 1017,3 hPa 0,0 l/m 5,2 km/h (1 Bft) NO 46 0 min 0,000 mm 0,0 UV-I 0 W/m 14,9 C 17,8 C 6,4 km/h (2 Bft) 98,11 %
01.06.2017 02:50 17,8 C 25,6 C 83 % 1017,3 hPa 0,0 l/m 5,8 km/h (2 Bft) NO 38 0 min 0,000 mm 0,0 UV-I 0 W/m 14,9 C 17,8 C 9,7 km/h (2 Bft) 98,00 %
01.06.2017 02:52 17,8 C 25,6 C 83 % 1017,3 hPa 0,0 l/m 6,4 km/h (2 Bft) NO 42 0 min 0,000 mm 0,0 UV-I 0 W/m 14,9 C 17,8 C 9,7 km/h (2 Bft) 97,56 %
01.06.2017 02:54 17,8 C 25,6 C 82 % 1017,3 hPa 0,0 l/m 6,9 km/h (2 Bft) NO 34 0 min 0,000 mm 0,0 UV-I 0 W/m 14,7 C 17,6 C 8,0 km/h (2 Bft) 97,73 %
01.06.2017 02:56 17,9 C 25,6 C 82 % 1017,3 hPa 0,0 l/m 7,0 km/h (2 Bft) NO 34 0 min 0,000 mm 0,0 UV-I 0 W/m 14,8 C 17,6 C 12,9 km/h (3 Bft) 100,00 %
01.06.2017 02:58 17,9 C 25,6 C 82 % 1017,3 hPa 0,0 l/m 7,0 km/h (2 Bft) NO 50 0 min 0,000 mm 0,0 UV-I 0 W/m 14,8 C 17,6 C 9,7 km/h (2 Bft) 100,00 %
01.06.2017 03:00 17,9 C 25,6 C 82 % 1017,3 hPa 0,0 l/m 6,1 km/h (2 Bft) N-NO 30 0 min 0,000 mm 0,0 UV-I 0 W/m 14,8 C 17,9 C 9,7 km/h (2 Bft) 100,00 %
01.06.2017 03:02 17,9 C 25,6 C 82 % 1017,3 hPa 0,0 l/m 6,7 km/h (2 Bft) NO 46 0 min 0,000 mm 0,0 UV-I 0 W/m 14,8 C 17,8 C 9,7 km/h (2 Bft) 97,56 %
01.06.2017 03:04 17,9 C 25,6 C 82 % 1017,3 hPa 0,0 l/m 5,8 km/h (2 Bft) NO 43 0 min 0,000 mm 0,0 UV-I 0 W/m 14,8 C 17,9 C 9,7 km/h (2 Bft) 98,00 %
01.06.2017 03:06 17,9 C 25,6 C 82 % 1017,3 hPa 0,0 l/m 5,2 km/h (1 Bft) NO 38 0 min 0,000 mm 0,0 UV-I 0 W/m 14,8 C 17,9 C 9,7 km/h (2 Bft) 96,00 %
01.06.2017 03:08 17,8 C 25,6 C 82 % 1017,3 hPa 0,0 l/m 4,7 km/h (1 Bft) NO 36 0 min 0,000 mm 0,0 UV-I 0 W/m 14,7 C 17,8 C 6,4 km/h (2 Bft) 96,00 %
01.06.2017 03:10 17,8 C 25,6 C 82 % 1017,3 hPa 0,0 l/m 5,0 km/h (1 Bft) NO 35 0 min 0,000 mm 0,0 UV-I 0 W/m 14,7 C 17,8 C 8,0 km/h (2 Bft) 100,00 %
01.06.2017 03:12 17,8 C 25,6 C 82 % 1017,3 hPa 0,0 l/m 4,6 km/h (1 Bft) NO 35 0 min 0,000 mm 0,0 UV-I 0 W/m 14,7 C 17,8 C 6,4 km/h (2 Bft) 95,74 %
01.06.2017 03:14 17,8 C 25,6 C 82 % 1017,3 hPa 0,0 l/m 4,1 km/h (1 Bft) NO 42 0 min 0,000 mm 0,0 UV-I 0 W/m 14,7 C 17,8 C 8,0 km/h (2 Bft) 97,37 %
01.06.2017 03:16 17,8 C 25,6 C 82 % 1017,3 hPa 0,0 l/m 5,3 km/h (1 Bft) N-NO 26 0 min 0,000 mm 0,0 UV-I 0 W/m 14,7 C 17,8 C 6,4 km/h (2 Bft) 95,74 %
01.06.2017 03:18 17,7 C 25,6 C 83 % 1017,3 hPa 0,0 l/m 5,8 km/h (2 Bft) N-NO 24 0 min 0,000 mm 0,0 UV-I 0 W/m 14,8 C 17,7 C 9,7 km/h (2 Bft) 96,23 %
01.06.2017 03:20 17,7 C 25,6 C 83 % 1017,3 hPa 0,0 l/m 5,1 km/h (1 Bft) N-NO 28 0 min 0,000 mm 0,0 UV-I 0 W/m 14,8 C 17,7 C 6,4 km/h (2 Bft) 97,56 %
01.06.2017 03:22 17,6 C 25,6 C 83 % 1017,2 hPa 0,0 l/m 6,1 km/h (2 Bft) N-NO 19 0 min 0,000 mm 0,0 UV-I 0 W/m 14,7 C 17,6 C 9,7 km/h (2 Bft) 96,00 %
01.06.2017 03:24 17,6 C 25,6 C 84 % 1017,2 hPa 0,0 l/m 5,1 km/h (1 Bft) NO 34 0 min 0,000 mm 0,0 UV-I 0 W/m 14,9 C 17,6 C 6,4 km/h (2 Bft) 97,87 %
01.06.2017 03:26 17,6 C 25,6 C 83 % 1017,2 hPa 0,0 l/m 3,8 km/h (1 Bft) N-NO 31 0 min 0,000 mm 0,0 UV-I 0 W/m 14,7 C 17,6 C 4,8 km/h (1 Bft) 94,00 %
01.06.2017 03:28 17,6 C 25,6 C 83 % 1017,2 hPa 0,0 l/m 4,1 km/h (1 Bft) N-NO 31 0 min 0,000 mm 0,0 UV-I 0 W/m 14,7 C 17,6 C 6,4 km/h (2 Bft) 92,11 %
01.06.2017 03:30 17,6 C 25,6 C 83 % 1017,1 hPa 0,0 l/m 4,9 km/h (1 Bft) N-NO 30 0 min 0,000 mm 0,0 UV-I 0 W/m 14,7 C 17,6 C 8,0 km/h (2 Bft) 97,44 %
01.06.2017 03:32 17,6 C 25,6 C 83 % 1017,2 hPa 0,0 l/m 4,9 km/h (1 Bft) NO 36 0 min 0,000 mm 0,0 UV-I 0 W/m 14,7 C 17,6 C 6,4 km/h (2 Bft) 96,72 %
01.06.2017 03:34 17,6 C 25,6 C 83 % 1017,1 hPa 0,0 l/m 3,7 km/h (1 Bft) N-NO 22 0 min 0,000 mm 0,0 UV-I 0 W/m 14,7 C 17,6 C 6,4 km/h (2 Bft) 98,00 %
01.06.2017 03:36 17,6 C 25,6 C 83 % 1017,1 hPa 0,0 l/m 5,0 km/h (1 Bft) N-NO 25 0 min 0,000 mm 0,0 UV-I 0 W/m 14,7 C 17,6 C 8,0 km/h (2 Bft) 95,74 %
01.06.2017 03:38 17,5 C 25,6 C 83 % 1017,1 hPa 0,0 l/m 4,3 km/h (1 Bft) N-NO 25 0 min 0,000 mm 0,0 UV-I 0 W/m 14,6 C 17,5 C 6,4 km/h (2 Bft) 97,62 %
01.06.2017 03:40 17,4 C 25,6 C 83 % 1017,1 hPa 0,0 l/m 4,8 km/h (1 Bft) N-NO 18 0 min 0,000 mm 0,0 UV-I 0 W/m 14,5 C 17,4 C 6,4 km/h (2 Bft) 98,00 %
01.06.2017 03:42 17,4 C 25,6 C 84 % 1017,1 hPa 0,0 l/m 5,0 km/h (1 Bft) NO 40 0 min 0,000 mm 0,0 UV-I 0 W/m 14,7 C 17,4 C 6,4 km/h (2 Bft) 94,00 %
01.06.2017 03:44 17,3 C 25,6 C 84 % 1017,1 hPa 0,0 l/m 5,2 km/h (1 Bft) O-NO 61 0 min 0,000 mm 0,0 UV-I 0 W/m 14,6 C 17,3 C 8,0 km/h (2 Bft) 97,37 %
01.06.2017 03:46 17,4 C 25,6 C 83 % 1017,1 hPa 0,0 l/m 4,9 km/h (1 Bft) O-NO 65 0 min 0,000 mm 0,0 UV-I 0 W/m 14,5 C 17,4 C 6,4 km/h (2 Bft) 98,21 %
01.06.2017 03:48 17,4 C 25,6 C 83 % 1017,1 hPa 0,0 l/m 4,8 km/h (1 Bft) NO 40 0 min 0,000 mm 0,0 UV-I 0 W/m 14,5 C 17,4 C 6,4 km/h (2 Bft) 100,00 %
01.06.2017 03:50 17,3 C 25,6 C 83 % 1017,1 hPa 0,0 l/m 2,7 km/h (1 Bft) NO 40 0 min 0,000 mm 0,0 UV-I 0 W/m 14,4 C 17,3 C 6,4 km/h (2 Bft) 98,11 %
01.06.2017 03:52 17,4 C 25,6 C 83 % 1017,1 hPa 0,0 l/m 3,0 km/h (1 Bft) NO 40 0 min 0,000 mm 0,0 UV-I 0 W/m 14,5 C 17,4 C 4,8 km/h (1 Bft) 97,14 %
01.06.2017 03:54 17,4 C 25,6 C 83 % 1017,2 hPa 0,0 l/m 3,2 km/h (1 Bft) NO 40 0 min 0,000 mm 0,0 UV-I 0 W/m 14,5 C 17,4 C 4,8 km/h (1 Bft) 98,00 %
01.06.2017 03:56 17,3 C 25,6 C 83 % 1017,2 hPa 0,0 l/m 2,9 km/h (1 Bft) NO 40 0 min 0,000 mm 0,0 UV-I 0 W/m 14,4 C 17,3 C 4,8 km/h (1 Bft) 100,00 %
01.06.2017 03:58 17,3 C 25,6 C 84 % 1017,2 hPa 0,0 l/m 3,1 km/h (1 Bft) NO 40 0 min 0,000 mm 0,0 UV-I 0 W/m 14,6 C 17,3 C 4,8 km/h (1 Bft) 98,00 %
01.06.2017 04:00 17,2 C 25,6 C 84 % 1017,2 hPa 0,0 l/m 3,4 km/h (1 Bft) N-NO 22 0 min 0,025 mm 0,0 UV-I 0 W/m 14,5 C 17,2 C 4,8 km/h (1 Bft) 100,00 %
01.06.2017 04:02 17,1 C 25,6 C 84 % 1017,1 hPa 0,0 l/m 6,0 km/h (2 Bft) N-NO 28 0 min 0,000 mm 0,0 UV-I 0 W/m 14,4 C 17,1 C 8,0 km/h (2 Bft) 100,00 %
01.06.2017 04:04 17,1 C 25,6 C 84 % 1017,2 hPa 0,0 l/m 6,4 km/h (2 Bft) NO 37 0 min 0,000 mm 0,0 UV-I 0 W/m 14,4 C 17,1 C 9,7 km/h (2 Bft) 95,74 %
01.06.2017 04:06 17,0 C 25,6 C 84 % 1017,1 hPa 0,0 l/m 5,8 km/h (2 Bft) NO 46 0 min 0,000 mm 0,0 UV-I 0 W/m 14,3 C 17,0 C 8,0 km/h (2 Bft) 95,74 %
01.06.2017 04:08 17,0 C 25,6 C 85 % 1017,1 hPa 0,0 l/m 4,3 km/h (1 Bft) NO 44 0 min 0,000 mm 0,0 UV-I 0 W/m 14,5 C 17,0 C 6,4 km/h (2 Bft) 96,00 %
01.06.2017 04:10 17,1 C 25,6 C 85 % 1017,1 hPa 0,0 l/m 3,7 km/h (1 Bft) NO 53 0 min 0,000 mm 0,0 UV-I 0 W/m 14,6 C 17,1 C 6,4 km/h (2 Bft) 97,37 %
01.06.2017 04:12 17,1 C 25,6 C 84 % 1017,1 hPa 0,0 l/m 3,3 km/h (1 Bft) NO 53 0 min 0,000 mm 0,0 UV-I 0 W/m 14,4 C 17,1 C 4,8 km/h (1 Bft) 96,00 %
01.06.2017 04:14 17,1 C 25,6 C 84 % 1017,1 hPa 0,0 l/m 3,4 km/h (1 Bft) NO 53 0 min 0,000 mm 0,0 UV-I 0 W/m 14,4 C 17,1 C 4,8 km/h (1 Bft) 96,00 %
01.06.2017 04:16 17,1 C 25,6 C 84 % 1017,1 hPa 0,0 l/m 3,5 km/h (1 Bft) NO 53 0 min 0,000 mm 0,0 UV-I 0 W/m 14,4 C 17,1 C 4,8 km/h (1 Bft) 97,62 %
01.06.2017 04:18 17,1 C 25,6 C 84 % 1017,2 hPa 0,0 l/m 1,7 km/h (1 Bft) NO 53 0 min 0,000 mm 0,0 UV-I 0 W/m 14,4 C 17,1 C 4,8 km/h (1 Bft) 96,23 %
01.06.2017 04:20 17,1 C 25,6 C 84 % 1017,2 hPa 0,0 l/m 1,4 km/h (1 Bft) NO 50 0 min 0,000 mm 0,0 UV-I 0 W/m 14,4 C 17,1 C 4,8 km/h (1 Bft) 97,14 %
01.06.2017 04:22 17,0 C 25,6 C 85 % 1017,2 hPa 0,0 l/m 1,9 km/h (1 Bft) NO 50 0 min 0,000 mm 0,0 UV-I 0 W/m 14,5 C 17,0 C 3,2 km/h (1 Bft) 93,75 %
01.06.2017 04:24 16,9 C 25,6 C 85 % 1017,2 hPa 0,0 l/m 2,6 km/h (1 Bft) NO 50 0 min 0,000 mm 0,0 UV-I 0 W/m 14,4 C 16,9 C 4,8 km/h (1 Bft) 96,92 %
01.06.2017 04:26 16,9 C 25,6 C 85 % 1017,2 hPa 0,0 l/m 1,4 km/h (1 Bft) NO 50 0 min 0,000 mm 0,0 UV-I 0 W/m 14,4 C 16,9 C 4,8 km/h (1 Bft) 95,74 %
01.06.2017 04:28 16,8 C 25,6 C 85 % 1017,1 hPa 0,0 l/m 2,6 km/h (1 Bft) NO 50 0 min 0,000 mm 0,0 UV-I 0 W/m 14,3 C 16,8 C 4,8 km/h (1 Bft) 94,00 %
01.06.2017 04:30 16,8 C 25,6 C 85 % 1017,1 hPa 0,0 l/m 3,7 km/h (1 Bft) NO 50 0 min 0,000 mm 0,0 UV-I 0 W/m 14,3 C 16,8 C 4,8 km/h (1 Bft) 98,00 %
01.06.2017 04:32 16,7 C 25,6 C 85 % 1017,2 hPa 0,0 l/m 2,9 km/h (1 Bft) NO 45 0 min 0,000 mm 0,0 UV-I 0 W/m 14,2 C 16,7 C 6,4 km/h (2 Bft) 94,74 %
01.06.2017 04:34 16,6 C 25,6 C 86 % 1017,2 hPa 0,0 l/m 1,6 km/h (1 Bft) NO 45 0 min 0,000 mm 0,0 UV-I 0 W/m 14,2 C 16,6 C 3,2 km/h (1 Bft) 98,00 %
01.06.2017 04:36 16,6 C 25,6 C 86 % 1017,2 hPa 0,0 l/m 3,3 km/h (1 Bft) NO 45 0 min 0,000 mm 0,0 UV-I 0 W/m 14,2 C 16,6 C 4,8 km/h (1 Bft) 98,11 %
01.06.2017 04:38 16,6 C 25,6 C 86 % 1017,1 hPa 0,0 l/m 2,1 km/h (1 Bft) NO 45 0 min 0,000 mm 0,0 UV-I 0 W/m 14,2 C 16,6 C 3,2 km/h (1 Bft) 98,00 %
01.06.2017 04:40 16,7 C 25,6 C 86 % 1017,2 hPa 0,0 l/m 2,5 km/h (1 Bft) NO 45 0 min 0,000 mm 0,0 UV-I 0 W/m 14,3 C 16,7 C 3,2 km/h (1 Bft) 93,62 %
01.06.2017 04:42 16,7 C 25,6 C 86 % 1017,2 hPa 0,0 l/m 2,1 km/h (1 Bft) NO 45 0 min 0,000 mm 0,0 UV-I 0 W/m 14,3 C 16,7 C 3,2 km/h (1 Bft) 94,74 %
01.06.2017 04:44 16,7 C 25,6 C 86 % 1017,2 hPa 0,0 l/m 1,8 km/h (1 Bft) NO 45 0 min 0,000 mm 0,0 UV-I 0 W/m 14,3 C 16,7 C 3,2 km/h (1 Bft) 97,87 %
01.06.2017 04:46 16,7 C 25,6 C 86 % 1017,3 hPa 0,0 l/m 1,5 km/h (1 Bft) NO 45 0 min 0,000 mm 0,0 UV-I 0 W/m 14,3 C 16,7 C 3,2 km/h (1 Bft) 96,00 %
01.06.2017 04:48 16,7 C 25,6 C 86 % 1017,3 hPa 0,0 l/m 2,9 km/h (1 Bft) NO 41 0 min 0,000 mm 0,0 UV-I 0 W/m 14,3 C 16,7 C 4,8 km/h (1 Bft) 96,00 %
01.06.2017 04:50 16,6 C 25,6 C 86 % 1017,3 hPa 0,0 l/m 3,3 km/h (1 Bft) NO 38 0 min 0,000 mm 0,0 UV-I 1 W/m 14,2 C 16,6 C 6,4 km/h (2 Bft) 94,44 %
01.06.2017 04:52 16,5 C 25,6 C 86 % 1017,3 hPa 0,0 l/m 1,4 km/h (1 Bft) NO 38 0 min 0,000 mm 0,0 UV-I 5 W/m 14,1 C 16,5 C 4,8 km/h (1 Bft) 96,36 %
01.06.2017 04:54 16,3 C 25,6 C 86 % 1017,3 hPa 0,0 l/m 0,2 km/h (0 Bft) NO 38 0 min 0,000 mm 0,0 UV-I 5 W/m 14,0 C 16,3 C 1,6 km/h (1 Bft) 95,74 %
01.06.2017 04:56 16,2 C 25,6 C 87 % 1017,3 hPa 0,0 l/m 1,7 km/h (1 Bft) NO 38 0 min 0,000 mm 0,0 UV-I 5 W/m 14,0 C 16,2 C 4,8 km/h (1 Bft) 95,83 %
01.06.2017 04:58 16,2 C 25,6 C 87 % 1017,3 hPa 0,0 l/m 4,5 km/h (1 Bft) NO 37 0 min 0,000 mm 0,0 UV-I 5 W/m 14,0 C 16,2 C 6,4 km/h (2 Bft) 100,00 %
01.06.2017 05:00 16,2 C 25,6 C 88 % 1017,3 hPa 0,0 l/m 5,3 km/h (1 Bft) NO 36 0 min 0,000 mm 0,0 UV-I 5 W/m 14,2 C 16,2 C 6,4 km/h (2 Bft) 95,12 %
01.06.2017 05:02 16,2 C 25,6 C 87 % 1017,3 hPa 0,0 l/m 5,3 km/h (1 Bft) NO 44 0 min 0,000 mm 0,0 UV-I 5 W/m 14,0 C 16,2 C 8,0 km/h (2 Bft) 97,87 %
01.06.2017 05:04 16,3 C 25,6 C 88 % 1017,3 hPa 0,0 l/m 3,5 km/h (1 Bft) NO 44 0 min 0,000 mm 0,0 UV-I 7 W/m 14,3 C 16,3 C 4,8 km/h (1 Bft) 98,11 %
01.06.2017 05:06 16,4 C 25,6 C 88 % 1017,3 hPa 0,0 l/m 4,4 km/h (1 Bft) O-NO 60 0 min 0,000 mm 0,0 UV-I 7 W/m 14,4 C 16,4 C 6,4 km/h (2 Bft) 94,00 %
01.06.2017 05:08 16,4 C 25,6 C 87 % 1017,3 hPa 0,0 l/m 5,4 km/h (1 Bft) O-NO 69 0 min 0,000 mm 0,0 UV-I 7 W/m 14,2 C 16,4 C 8,0 km/h (2 Bft) 100,00 %
01.06.2017 05:10 16,6 C 25,6 C 87 % 1017,3 hPa 0,0 l/m 5,5 km/h (1 Bft) O-NO 74 0 min 0,000 mm 0,0 UV-I 7 W/m 14,4 C 16,6 C 8,0 km/h (2 Bft) 94,64 %
01.06.2017 05:12 16,6 C 25,6 C 87 % 1017,4 hPa 0,0 l/m 4,3 km/h (1 Bft) O-NO 73 0 min 0,000 mm 0,0 UV-I 9 W/m 14,4 C 16,6 C 6,4 km/h (2 Bft) 100,00 %
01.06.2017 05:14 16,7 C 25,6 C 87 % 1017,4 hPa 0,0 l/m 3,5 km/h (1 Bft) O-NO 72 0 min 0,000 mm 0,0 UV-I 10 W/m 14,5 C 16,7 C 4,8 km/h (1 Bft) 96,00 %
01.06.2017 05:16 16,7 C 25,6 C 87 % 1017,4 hPa 0,0 l/m 3,3 km/h (1 Bft) O-NO 72 0 min 0,000 mm 0,0 UV-I 11 W/m 14,5 C 16,7 C 4,8 km/h (1 Bft) 98,00 %
01.06.2017 05:18 16,7 C 25,6 C 87 % 1017,4 hPa 0,0 l/m 3,5 km/h (1 Bft) O-NO 69 0 min 0,000 mm 0,0 UV-I 11 W/m 14,5 C 16,7 C 6,4 km/h (2 Bft) 97,37 %
01.06.2017 05:20 16,7 C 25,6 C 87 % 1017,4 hPa 0,0 l/m 3,3 km/h (1 Bft) O-NO 66 2 min 0,000 mm 0,0 UV-I 12 W/m 14,5 C 16,7 C 4,8 km/h (1 Bft) 96,00 %
01.06.2017 05:22 16,6 C 25,6 C 87 % 1017,4 hPa 0,0 l/m 2,8 km/h (1 Bft) NO 34 2 min 0,000 mm 0,0 UV-I 13 W/m 14,4 C 16,6 C 6,4 km/h (2 Bft) 94,00 %
01.06.2017 05:24 16,4 C 25,6 C 87 % 1017,4 hPa 0,0 l/m 1,5 km/h (1 Bft) NO 36 2 min 0,000 mm 0,0 UV-I 15 W/m 14,2 C 16,4 C 8,0 km/h (2 Bft) 96,00 %
01.06.2017 05:26 16,2 C 25,6 C 88 % 1017,4 hPa 0,0 l/m 2,9 km/h (1 Bft) N-NO 19 2 min 0,000 mm 0,0 UV-I 17 W/m 14,2 C 16,2 C 6,4 km/h (2 Bft) 89,47 %
01.06.2017 05:28 16,2 C 25,6 C 89 % 1017,4 hPa 0,0 l/m 3,2 km/h (1 Bft) N-NO 19 0 min 0,000 mm 0,0 UV-I 18 W/m 14,4 C 16,2 C 4,8 km/h (1 Bft) 96,00 %
01.06.2017 05:30 16,2 C 25,6 C 89 % 1017,4 hPa 0,0 l/m 3,9 km/h (1 Bft) NO 36 0 min 0,000 mm 0,0 UV-I 19 W/m 14,4 C 16,2 C 4,8 km/h (1 Bft) 98,11 %
01.06.2017 05:32 16,3 C 25,6 C 89 % 1017,4 hPa 0,0 l/m 3,6 km/h (1 Bft) NO 51 0 min 0,000 mm 0,0 UV-I 21 W/m 14,5 C 16,3 C 6,4 km/h (2 Bft) 98,00 %
01.06.2017 05:34 16,4 C 25,6 C 89 % 1017,4 hPa 0,0 l/m 2,9 km/h (1 Bft) NO 51 0 min 0,000 mm 0,0 UV-I 23 W/m 14,6 C 16,4 C 4,8 km/h (1 Bft) 89,36 %
01.06.2017 05:36 16,4 C 25,6 C 89 % 1017,4 hPa 0,0 l/m 2,9 km/h (1 Bft) NO 55 0 min 0,000 mm 0,0 UV-I 25 W/m 14,6 C 16,4 C 4,8 km/h (1 Bft) 95,24 %
01.06.2017 05:38 16,5 C 25,6 C 88 % 1017,4 hPa 0,0 l/m 3,1 km/h (1 Bft) NO 55 0 min 0,000 mm 0,0 UV-I 26 W/m 14,5 C 16,5 C 4,8 km/h (1 Bft) 97,87 %
01.06.2017 05:40 16,5 C 25,6 C 88 % 1017,5 hPa 0,0 l/m 2,8 km/h (1 Bft) NO 55 0 min 0,000 mm 0,0 UV-I 27 W/m 14,5 C 16,5 C 4,8 km/h (1 Bft) 96,00 %
01.06.2017 05:42 16,6 C 25,6 C 88 % 1017,5 hPa 0,0 l/m 2,7 km/h (1 Bft) NO 55 0 min 0,000 mm 0,0 UV-I 31 W/m 14,6 C 16,6 C 4,8 km/h (1 Bft) 95,74 %
01.06.2017 05:44 16,6 C 25,6 C 88 % 1017,5 hPa 0,0 l/m 1,0 km/h (0 Bft) NO 55 0 min 0,000 mm 0,0 UV-I 34 W/m 14,6 C 16,6 C 3,2 km/h (1 Bft) 90,91 %
01.06.2017 05:46 16,6 C 25,6 C 88 % 1017,5 hPa 0,0 l/m 1,8 km/h (1 Bft) NO 55 0 min 0,000 mm 0,0 UV-I 38 W/m 14,6 C 16,6 C 4,8 km/h (1 Bft) 92,11 %
01.06.2017 05:48 16,6 C 25,6 C 88 % 1017,6 hPa 0,0 l/m 1,4 km/h (1 Bft) NO 55 0 min 0,000 mm 0,0 UV-I 41 W/m 14,6 C 16,6 C 3,2 km/h (1 Bft) 94,23 %
01.06.2017 05:50 16,6 C 25,6 C 88 % 1017,6 hPa 0,0 l/m 2,3 km/h (1 Bft) NO 55 0 min 0,000 mm 0,0 UV-I 44 W/m 14,6 C 16,6 C 4,8 km/h (1 Bft) 94,34 %
01.06.2017 05:52 16,6 C 25,6 C 88 % 1017,5 hPa 0,0 l/m 0,6 km/h (0 Bft) NO 55 2 min 0,000 mm 0,0 UV-I 52 W/m 14,6 C 16,6 C 3,2 km/h (1 Bft) 95,74 %
01.06.2017 05:54 16,6 C 25,6 C 89 % 1017,5 hPa 0,0 l/m 3,4 km/h (1 Bft) NO 55 0 min 0,000 mm 0,0 UV-I 54 W/m 14,8 C 16,6 C 4,8 km/h (1 Bft) 95,74 %
01.06.2017 05:56 16,6 C 25,6 C 88 % 1017,6 hPa 0,0 l/m 3,9 km/h (1 Bft) O-NO 71 2 min 0,000 mm 0,0 UV-I 59 W/m 14,6 C 16,6 C 6,4 km/h (2 Bft) 97,87 %
01.06.2017 05:58 16,6 C 25,6 C 89 % 1017,6 hPa 0,0 l/m 3,3 km/h (1 Bft) O-NO 71 2 min 0,000 mm 0,0 UV-I 62 W/m 14,8 C 16,6 C 4,8 km/h (1 Bft) 97,14 %
01.06.2017 06:00 16,7 C 25,6 C 89 % 1017,6 hPa 0,0 l/m 1,9 km/h (1 Bft) O-NO 71 0 min 0,026 mm 0,0 UV-I 63 W/m 14,9 C 16,7 C 3,2 km/h (1 Bft) 98,11 %
01.06.2017 06:02 16,7 C 25,6 C 88 % 1017,6 hPa 0,0 l/m 1,3 km/h (1 Bft) O-NO 71 2 min 0,000 mm 0,0 UV-I 68 W/m 14,7 C 16,7 C 3,2 km/h (1 Bft) 98,11 %
01.06.2017 06:04 16,7 C 25,6 C 88 % 1017,6 hPa 0,0 l/m 0,0 km/h (0 Bft) O-NO 71 2 min 0,000 mm 0,0 UV-I 72 W/m 14,7 C 16,7 C 0,0 km/h (0 Bft) 100,00 %
01.06.2017 06:06 16,7 C 25,6 C 88 % 1017,7 hPa 0,0 l/m 1,5 km/h (1 Bft) O-NO 71 2 min 0,000 mm 0,0 UV-I 76 W/m 14,7 C 16,7 C 3,2 km/h (1 Bft) 95,74 %
01.06.2017 06:08 16,6 C 25,0 C 89 % 1017,7 hPa 0,0 l/m 0,7 km/h (0 Bft) O-NO 71 2 min 0,000 mm 0,0 UV-I 77 W/m 14,8 C 16,6 C 3,2 km/h (1 Bft) 100,00 %
01.06.2017 06:10 16,6 C 25,0 C 89 % 1017,7 hPa 0,0 l/m 0,0 km/h (0 Bft) O-NO 71 0 min 0,000 mm 0,0 UV-I 71 W/m 14,8 C 16,6 C 0,0 km/h (0 Bft) 98,00 %
01.06.2017 06:12 16,7 C 25,0 C 89 % 1017,7 hPa 0,0 l/m 0,0 km/h (0 Bft) O-NO 71 0 min 0,000 mm 0,0 UV-I 69 W/m 14,9 C 16,7 C 0,0 km/h (0 Bft) 98,00 %
01.06.2017 06:14 16,7 C 25,0 C 89 % 1017,7 hPa 0,0 l/m 2,7 km/h (1 Bft) O-NO 71 0 min 0,000 mm 0,0 UV-I 62 W/m 14,9 C 16,7 C 4,8 km/h (1 Bft) 100,00 %
01.06.2017 06:16 16,8 C 25,0 C 89 % 1017,7 hPa 0,0 l/m 0,9 km/h (0 Bft) O-NO 71 0 min 0,000 mm 0,0 UV-I 62 W/m 15,0 C 16,8 C 3,2 km/h (1 Bft) 97,37 %
01.06.2017 06:18 16,8 C 25,0 C 89 % 1017,7 hPa 0,0 l/m 2,6 km/h (1 Bft) O-NO 71 0 min 0,000 mm 0,0 UV-I 69 W/m 15,0 C 16,8 C 4,8 km/h (1 Bft) 94,00 %
01.06.2017 06:20 16,9 C 25,0 C 88 % 1017,7 hPa 0,0 l/m 2,2 km/h (1 Bft) O-NO 71 0 min 0,000 mm 0,0 UV-I 72 W/m 14,9 C 16,9 C 4,8 km/h (1 Bft) 98,00 %
01.06.2017 06:22 17,0 C 25,0 C 88 % 1017,7 hPa 0,0 l/m 2,5 km/h (1 Bft) O-NO 71 0 min 0,000 mm 0,0 UV-I 74 W/m 15,0 C 17,0 C 4,8 km/h (1 Bft) 98,00 %
01.06.2017 06:24 17,1 C 25,0 C 88 % 1017,7 hPa 0,0 l/m 0,8 km/h (0 Bft) O-NO 71 0 min 0,000 mm 0,0 UV-I 73 W/m 15,1 C 17,1 C 1,6 km/h (1 Bft) 100,00 %
01.06.2017 06:26 17,1 C 25,0 C 88 % 1017,7 hPa 0,0 l/m 0,7 km/h (0 Bft) O-NO 71 0 min 0,000 mm 0,0 UV-I 74 W/m 15,1 C 17,1 C 3,2 km/h (1 Bft) 100,00 %
01.06.2017 06:28 17,1 C 25,0 C 88 % 1017,8 hPa 0,0 l/m 1,2 km/h (1 Bft) O-NO 71 0 min 0,000 mm 0,0 UV-I 70 W/m 15,1 C 17,1 C 3,2 km/h (1 Bft) 94,00 %
01.06.2017 06:30 17,1 C 25,0 C 88 % 1017,8 hPa 0,0 l/m 1,4 km/h (1 Bft) O-NO 71 0 min 0,000 mm 0,0 UV-I 61 W/m 15,1 C 17,1 C 4,8 km/h (1 Bft) 95,45 %
01.06.2017 06:32 17,1 C 25,0 C 88 % 1017,8 hPa 0,0 l/m 0,3 km/h (0 Bft) O-NO 71 0 min 0,000 mm 0,0 UV-I 56 W/m 15,1 C 17,1 C 3,2 km/h (1 Bft) 100,00 %
01.06.2017 06:34 17,1 C 25,0 C 88 % 1017,8 hPa 0,0 l/m 0,2 km/h (0 Bft) O-NO 71 0 min 0,000 mm 0,0 UV-I 54 W/m 15,1 C 17,1 C 1,6 km/h (1 Bft) 95,74 %
01.06.2017 06:36 17,0 C 25,0 C 88 % 1017,8 hPa 0,0 l/m 1,5 km/h (1 Bft) O-NO 71 0 min 0,000 mm 0,0 UV-I 56 W/m 15,0 C 17,0 C 4,8 km/h (1 Bft) 94,34 %
01.06.2017 06:38 17,0 C 25,0 C 87 % 1017,8 hPa 0,0 l/m 0,6 km/h (0 Bft) O-NO 71 0 min 0,000 mm 0,0 UV-I 62 W/m 14,8 C 17,0 C 3,2 km/h (1 Bft) 100,00 %
01.06.2017 06:40 17,0 C 25,0 C 87 % 1017,9 hPa 0,0 l/m 0,1 km/h (0 Bft) O-NO 71 0 min 0,000 mm 0,0 UV-I 69 W/m 14,8 C 17,0 C 1,6 km/h (1 Bft) 95,12 %
01.06.2017 06:42 17,1 C 25,0 C 86 % 1017,9 hPa 0,0 l/m 0,0 km/h (0 Bft) O-NO 71 0 min 0,000 mm 0,0 UV-I 72 W/m 14,7 C 17,1 C 0,0 km/h (0 Bft) 98,11 %
01.06.2017 06:44 17,2 C 25,0 C 86 % 1017,9 hPa 0,0 l/m 0,9 km/h (0 Bft) O-NO 71 0 min 0,000 mm 0,0 UV-I 75 W/m 14,8 C 17,2 C 3,2 km/h (1 Bft) 100,00 %
01.06.2017 06:46 17,2 C 25,0 C 87 % 1017,9 hPa 0,0 l/m 1,1 km/h (1 Bft) O-NO 71 0 min 0,000 mm 0,0 UV-I 78 W/m 15,0 C 17,2 C 3,2 km/h (1 Bft) 97,87 %
01.06.2017 06:48 17,2 C 25,0 C 87 % 1017,9 hPa 0,0 l/m 1,2 km/h (1 Bft) O-NO 71 0 min 0,000 mm 0,0 UV-I 80 W/m 15,0 C 17,2 C 1,6 km/h (1 Bft) 94,00 %
01.06.2017 06:50 17,3 C 25,0 C 86 % 1017,9 hPa 0,0 l/m 1,4 km/h (1 Bft) O-NO 71 0 min 0,000 mm 0,0 UV-I 77 W/m 14,9 C 17,3 C 3,2 km/h (1 Bft) 97,87 %
01.06.2017 06:52 17,3 C 25,0 C 85 % 1017,9 hPa 0,0 l/m 2,7 km/h (1 Bft) O-NO 71 0 min 0,000 mm 0,0 UV-I 76 W/m 14,8 C 17,3 C 4,8 km/h (1 Bft) 97,92 %
01.06.2017 06:54 17,4 C 25,0 C 84 % 1017,9 hPa 0,0 l/m 2,7 km/h (1 Bft) O-NO 71 0 min 0,000 mm 0,0 UV-I 79 W/m 14,7 C 17,4 C 3,2 km/h (1 Bft) 95,74 %
01.06.2017 06:56 17,4 C 25,0 C 85 % 1017,9 hPa 0,0 l/m 2,1 km/h (1 Bft) O-NO 71 0 min 0,000 mm 0,0 UV-I 87 W/m 14,8 C 17,4 C 3,2 km/h (1 Bft) 97,56 %
01.06.2017 06:58 17,4 C 25,0 C 86 % 1017,9 hPa 0,0 l/m 1,3 km/h (1 Bft) O-NO 71 0 min 0,000 mm 0,0 UV-I 96 W/m 15,0 C 17,4 C 3,2 km/h (1 Bft) 98,11 %
01.06.2017 07:00 17,4 C 25,0 C 85 % 1017,9 hPa 0,0 l/m 2,0 km/h (1 Bft) O-NO 71 0 min 0,051 mm 0,0 UV-I 102 W/m 14,8 C 17,4 C 4,8 km/h (1 Bft) 96,00 %
01.06.2017 07:02 17,4 C 25,0 C 84 % 1017,9 hPa 0,0 l/m 4,1 km/h (1 Bft) O-NO 67 0 min 0,000 mm 0,0 UV-I 106 W/m 14,7 C 17,4 C 6,4 km/h (2 Bft) 100,00 %
01.06.2017 07:04 17,5 C 25,0 C 83 % 1017,9 hPa 0,0 l/m 4,5 km/h (1 Bft) O-NO 67 0 min 0,000 mm 0,0 UV-I 111 W/m 14,6 C 17,5 C 6,4 km/h (2 Bft) 95,74 %
01.06.2017 07:06 17,6 C 25,0 C 84 % 1017,9 hPa 0,0 l/m 5,0 km/h (1 Bft) O-NO 71 0 min 0,000 mm 0,0 UV-I 111 W/m 14,9 C 17,6 C 8,0 km/h (2 Bft) 95,74 %
01.06.2017 07:08 17,6 C 25,0 C 84 % 1017,9 hPa 0,0 l/m 5,0 km/h (1 Bft) O-NO 71 0 min 0,000 mm 0,0 UV-I 104 W/m 14,9 C 17,6 C 8,0 km/h (2 Bft) 100,00 %
01.06.2017 07:10 17,7 C 25,0 C 83 % 1017,9 hPa 0,0 l/m 3,4 km/h (1 Bft) O-NO 71 0 min 0,000 mm 0,0 UV-I 98 W/m 14,8 C 17,7 C 6,4 km/h (2 Bft) 98,00 %
01.06.2017 07:12 17,7 C 25,0 C 83 % 1018,0 hPa 0,0 l/m 2,4 km/h (1 Bft) O-NO 71 0 min 0,000 mm 0,0 UV-I 101 W/m 14,8 C 17,7 C 4,8 km/h (1 Bft) 100,00 %
01.06.2017 07:14 17,7 C 25,0 C 83 % 1018,0 hPa 0,0 l/m 0,1 km/h (0 Bft) O-NO 71 0 min 0,000 mm 0,0 UV-I 119 W/m 14,8 C 17,7 C 1,6 km/h (1 Bft) 97,56 %
01.06.2017 07:16 17,7 C 25,0 C 83 % 1018,0 hPa 0,0 l/m 0,6 km/h (0 Bft) O-NO 71 0 min 0,000 mm 0,0 UV-I 131 W/m 14,8 C 17,7 C 3,2 km/h (1 Bft) 98,21 %
01.06.2017 07:18 17,7 C 25,0 C 82 % 1018,0 hPa 0,0 l/m 2,8 km/h (1 Bft) O-NO 71 0 min 0,000 mm 0,0 UV-I 127 W/m 14,6 C 17,7 C 4,8 km/h (1 Bft) 97,14 %
01.06.2017 07:20 17,8 C 25,0 C 82 % 1018,0 hPa 0,0 l/m 3,9 km/h (1 Bft) O-NO 71 0 min 0,000 mm 0,0 UV-I 122 W/m 14,7 C 17,8 C 6,4 km/h (2 Bft) 96,00 %
01.06.2017 07:22 17,8 C 25,0 C 81 % 1018,0 hPa 0,0 l/m 4,3 km/h (1 Bft) O-NO 71 0 min 0,000 mm 0,0 UV-I 129 W/m 14,5 C 17,8 C 6,4 km/h (2 Bft) 93,62 %
01.06.2017 07:24 17,8 C 25,0 C 81 % 1017,9 hPa 0,0 l/m 4,8 km/h (1 Bft) O-NO 67 0 min 0,000 mm 0,0 UV-I 121 W/m 14,5 C 17,8 C 6,4 km/h (2 Bft) 97,37 %
01.06.2017 07:26 17,8 C 25,0 C 81 % 1018,0 hPa 0,0 l/m 5,0 km/h (1 Bft) O-NO 67 0 min 0,000 mm 0,0 UV-I 127 W/m 14,5 C 17,8 C 8,0 km/h (2 Bft) 95,31 %
01.06.2017 07:28 17,8 C 25,0 C 81 % 1018,0 hPa 0,0 l/m 4,1 km/h (1 Bft) O-NO 65 0 min 0,000 mm 0,5 UV-I 140 W/m 14,5 C 17,8 C 6,4 km/h (2 Bft) 100,00 %
01.06.2017 07:30 17,8 C 25,0 C 81 % 1018,1 hPa 0,0 l/m 3,5 km/h (1 Bft) O-NO 63 0 min 0,000 mm 0,5 UV-I 186 W/m 14,5 C 17,8 C 6,4 km/h (2 Bft) 96,36 %
01.06.2017 07:32 17,9 C 25,0 C 82 % 1018,0 hPa 0,0 l/m 4,4 km/h (1 Bft) O-NO 67 2 min 0,000 mm 0,5 UV-I 227 W/m 14,8 C 17,9 C 8,0 km/h (2 Bft) 94,44 %
01.06.2017 07:34 18,1 C 25,0 C 81 % 1018,1 hPa 0,0 l/m 4,3 km/h (1 Bft) O-NO 66 2 min 0,000 mm 0,5 UV-I 210 W/m 14,8 C 18,1 C 6,4 km/h (2 Bft) 94,34 %
01.06.2017 07:36 18,2 C 25,0 C 81 % 1018,1 hPa 0,0 l/m 5,4 km/h (1 Bft) NO 45 2 min 0,000 mm 0,6 UV-I 229 W/m 14,9 C 18,2 C 8,0 km/h (2 Bft) 97,73 %
01.06.2017 07:38 18,3 C 25,0 C 81 % 1018,1 hPa 0,0 l/m 4,8 km/h (1 Bft) NO 52 2 min 0,000 mm 0,6 UV-I 255 W/m 15,0 C 18,3 C 8,0 km/h (2 Bft) 96,43 %
01.06.2017 07:40 18,4 C 25,0 C 82 % 1018,1 hPa 0,0 l/m 5,1 km/h (1 Bft) O-NO 61 2 min 0,000 mm 0,6 UV-I 266 W/m 15,3 C 18,4 C 8,0 km/h (2 Bft) 97,37 %
01.06.2017 07:42 18,5 C 25,0 C 80 % 1018,1 hPa 0,0 l/m 4,9 km/h (1 Bft) O-NO 62 2 min 0,000 mm 0,6 UV-I 252 W/m 15,0 C 18,5 C 8,0 km/h (2 Bft) 96,23 %
01.06.2017 07:44 18,5 C 25,0 C 80 % 1018,1 hPa 0,0 l/m 6,1 km/h (2 Bft) NO 43 2 min 0,000 mm 0,6 UV-I 244 W/m 15,0 C 18,5 C 8,0 km/h (2 Bft) 94,00 %
01.06.2017 07:46 18,6 C 25,0 C 80 % 1018,1 hPa 0,0 l/m 7,5 km/h (2 Bft) O-NO 58 2 min 0,000 mm 0,7 UV-I 244 W/m 15,1 C 18,1 C 11,3 km/h (2 Bft) 97,37 %
01.06.2017 07:48 18,6 C 25,0 C 80 % 1018,1 hPa 0,0 l/m 8,5 km/h (2 Bft) O-NO 57 2 min 0,000 mm 0,7 UV-I 239 W/m 15,1 C 17,7 C 14,5 km/h (3 Bft) 93,62 %
01.06.2017 07:50 18,7 C 25,0 C 79 % 1018,2 hPa 0,0 l/m 9,2 km/h (2 Bft) N-NO 18 0 min 0,000 mm 0,7 UV-I 219 W/m 15,0 C 17,5 C 14,5 km/h (3 Bft) 94,34 %
01.06.2017 07:52 18,7 C 25,0 C 80 % 1018,2 hPa 0,0 l/m 12,8 km/h (3 Bft) O 95 0 min 0,000 mm 0,7 UV-I 225 W/m 15,2 C 16,3 C 19,3 km/h (3 Bft) 92,68 %
01.06.2017 07:54 18,7 C 25,0 C 78 % 1018,2 hPa 0,0 l/m 9,4 km/h (2 Bft) N-NO 15 2 min 0,000 mm 0,8 UV-I 275 W/m 14,8 C 17,4 C 16,1 km/h (3 Bft) 97,56 %
01.06.2017 07:56 18,7 C 25,0 C 79 % 1018,3 hPa 0,0 l/m 9,2 km/h (2 Bft) O-NO 77 2 min 0,000 mm 0,8 UV-I 282 W/m 15,0 C 17,5 C 14,5 km/h (3 Bft) 92,45 %
01.06.2017 07:58 18,8 C 25,0 C 78 % 1018,3 hPa 0,0 l/m 8,7 km/h (2 Bft) O-NO 57 2 min 0,000 mm 0,9 UV-I 366 W/m 14,9 C 17,8 C 12,9 km/h (3 Bft) 95,12 %
01.06.2017 08:00 18,9 C 25,0 C 78 % 1018,3 hPa 0,0 l/m 10,5 km/h (2 Bft) NO 56 2 min 0,127 mm 0,9 UV-I 396 W/m 15,0 C 17,3 C 16,1 km/h (3 Bft) 96,43 %
01.06.2017 08:02 18,9 C 25,0 C 77 % 1018,3 hPa 0,0 l/m 10,8 km/h (2 Bft) N-NO 31 2 min 0,000 mm 0,9 UV-I 372 W/m 14,8 C 17,1 C 16,1 km/h (3 Bft) 97,62 %
01.06.2017 08:04 19,1 C 25,0 C 76 % 1018,3 hPa 0,0 l/m 11,3 km/h (2 Bft) O-NO 60 2 min 0,000 mm 0,9 UV-I 394 W/m 14,8 C 17,2 C 16,1 km/h (3 Bft) 93,62 %
01.06.2017 08:06 19,2 C 25,0 C 78 % 1018,3 hPa 0,0 l/m 16,1 km/h (3 Bft) N-NO 29 2 min 0,000 mm 1,0 UV-I 413 W/m 15,3 C 16,0 C 20,9 km/h (4 Bft) 96,00 %
01.06.2017 08:08 19,3 C 25,0 C 78 % 1018,4 hPa 0,0 l/m 14,2 km/h (3 Bft) N-NO 20 2 min 0,000 mm 1,0 UV-I 329 W/m 15,4 C 16,6 C 19,3 km/h (3 Bft) 96,00 %
01.06.2017 08:10 19,3 C 25,0 C 77 % 1018,4 hPa 0,0 l/m 11,5 km/h (2 Bft) NO 44 2 min 0,000 mm 0,9 UV-I 291 W/m 15,2 C 17,4 C 16,1 km/h (3 Bft) 97,62 %
01.06.2017 08:12 19,3 C 25,0 C 77 % 1018,3 hPa 0,0 l/m 15,1 km/h (3 Bft) N-NO 33 2 min 0,000 mm 0,9 UV-I 262 W/m 15,2 C 16,4 C 20,9 km/h (4 Bft) 96,23 %
01.06.2017 08:14 19,2 C 25,0 C 77 % 1018,4 hPa 0,0 l/m 12,0 km/h (2 Bft) NO 36 0 min 0,000 mm 0,8 UV-I 233 W/m 15,1 C 17,1 C 16,1 km/h (3 Bft) 97,56 %
01.06.2017 08:16 19,1 C 25,0 C 77 % 1018,4 hPa 0,0 l/m 8,4 km/h (2 Bft) O-NO 66 0 min 0,000 mm 0,8 UV-I 226 W/m 15,0 C 18,2 C 17,7 km/h (3 Bft) 97,73 %
01.06.2017 08:18 19,1 C 25,0 C 76 % 1018,4 hPa 0,0 l/m 9,2 km/h (2 Bft) O-NO 60 0 min 0,000 mm 0,8 UV-I 225 W/m 14,8 C 17,9 C 14,5 km/h (3 Bft) 97,87 %
01.06.2017 08:20 19,1 C 25,0 C 77 % 1018,4 hPa 0,0 l/m 11,1 km/h (2 Bft) O-NO 75 0 min 0,000 mm 0,8 UV-I 219 W/m 15,0 C 17,3 C 17,7 km/h (3 Bft) 96,43 %
01.06.2017 08:22 19,1 C 25,0 C 76 % 1018,5 hPa 0,0 l/m 13,6 km/h (3 Bft) NO 55 0 min 0,000 mm 0,9 UV-I 214 W/m 14,8 C 16,5 C 17,7 km/h (3 Bft) 97,56 %
01.06.2017 08:24 19,1 C 25,0 C 77 % 1018,4 hPa 0,0 l/m 7,5 km/h (2 Bft) NO 34 0 min 0,000 mm 0,9 UV-I 217 W/m 15,0 C 18,6 C 11,3 km/h (2 Bft) 95,12 %
01.06.2017 08:26 19,1 C 25,0 C 77 % 1018,4 hPa 0,0 l/m 8,3 km/h (2 Bft) O-NO 65 0 min 0,000 mm 0,9 UV-I 223 W/m 15,0 C 18,3 C 14,5 km/h (3 Bft) 96,23 %
01.06.2017 08:28 19,1 C 25,0 C 77 % 1018,4 hPa 0,0 l/m 7,3 km/h (2 Bft) O-NO 66 0 min 0,000 mm 1,0 UV-I 245 W/m 15,0 C 18,7 C 16,1 km/h (3 Bft) 97,73 %
01.06.2017 08:30 19,1 C 25,0 C 76 % 1018,5 hPa 0,0 l/m 11,0 km/h (2 Bft) O-NO 61 0 min 0,000 mm 1,0 UV-I 235 W/m 14,8 C 17,3 C 17,7 km/h (3 Bft) 98,00 %
01.06.2017 08:32 19,1 C 25,0 C 75 % 1018,5 hPa 0,0 l/m 10,1 km/h (2 Bft) O-NO 66 0 min 0,000 mm 1,0 UV-I 232 W/m 14,6 C 17,6 C 14,5 km/h (3 Bft) 95,74 %
01.06.2017 08:34 19,1 C 25,0 C 74 % 1018,5 hPa 0,0 l/m 12,7 km/h (3 Bft) O-NO 67 0 min 0,000 mm 1,0 UV-I 233 W/m 14,4 C 16,8 C 20,9 km/h (4 Bft) 96,23 %
01.06.2017 08:36 19,1 C 25,0 C 75 % 1018,5 hPa 0,0 l/m 12,8 km/h (3 Bft) O-NO 58 0 min 0,000 mm 1,0 UV-I 241 W/m 14,6 C 16,8 C 19,3 km/h (3 Bft) 97,56 %
01.06.2017 08:38 19,1 C 25,0 C 75 % 1018,5 hPa 0,0 l/m 12,9 km/h (3 Bft) NO 53 0 min 0,000 mm 1,0 UV-I 249 W/m 14,6 C 16,7 C 19,3 km/h (3 Bft) 95,12 %
01.06.2017 08:40 19,2 C 25,0 C 75 % 1018,5 hPa 0,0 l/m 11,5 km/h (2 Bft) O 86 0 min 0,000 mm 1,0 UV-I 250 W/m 14,7 C 17,3 C 20,9 km/h (4 Bft) 98,00 %
01.06.2017 08:42 19,2 C 25,0 C 75 % 1018,5 hPa 0,0 l/m 12,4 km/h (3 Bft) O-NO 62 0 min 0,000 mm 1,0 UV-I 251 W/m 14,7 C 17,0 C 17,7 km/h (3 Bft) 96,30 %
01.06.2017 08:44 19,2 C 25,0 C 75 % 1018,5 hPa 0,0 l/m 8,6 km/h (2 Bft) O-NO 57 0 min 0,000 mm 1,0 UV-I 251 W/m 14,7 C 18,3 C 17,7 km/h (3 Bft) 94,74 %
01.06.2017 08:46 19,2 C 25,0 C 75 % 1018,4 hPa 0,0 l/m 10,3 km/h (2 Bft) NO 53 0 min 0,000 mm 1,0 UV-I 244 W/m 14,7 C 17,7 C 14,5 km/h (3 Bft) 96,00 %
01.06.2017 08:48 19,3 C 25,0 C 75 % 1018,5 hPa 0,0 l/m 9,3 km/h (2 Bft) O-NO 66 0 min 0,000 mm 0,9 UV-I 234 W/m 14,8 C 18,1 C 14,5 km/h (3 Bft) 95,56 %
01.06.2017 08:50 19,3 C 25,0 C 75 % 1018,5 hPa 0,0 l/m 9,7 km/h (2 Bft) O-NO 64 0 min 0,000 mm 0,9 UV-I 230 W/m 14,8 C 18,0 C 17,7 km/h (3 Bft) 98,11 %
01.06.2017 08:52 19,3 C 25,0 C 75 % 1018,5 hPa 0,0 l/m 13,0 km/h (3 Bft) O-NO 65 0 min 0,000 mm 1,0 UV-I 234 W/m 14,8 C 16,9 C 19,3 km/h (3 Bft) 96,00 %
01.06.2017 08:54 19,3 C 25,0 C 75 % 1018,5 hPa 0,0 l/m 11,9 km/h (2 Bft) NO 39 0 min 0,000 mm 1,0 UV-I 237 W/m 14,8 C 17,3 C 17,7 km/h (3 Bft) 97,37 %
01.06.2017 08:56 19,3 C 25,0 C 75 % 1018,5 hPa 0,0 l/m 14,0 km/h (3 Bft) NO 34 0 min 0,000 mm 1,0 UV-I 236 W/m 14,8 C 16,7 C 20,9 km/h (4 Bft) 96,43 %
01.06.2017 08:58 19,3 C 25,0 C 76 % 1018,4 hPa 0,0 l/m 11,5 km/h (2 Bft) NO 53 0 min 0,000 mm 1,0 UV-I 234 W/m 15,0 C 17,4 C 20,9 km/h (4 Bft) 97,73 %
01.06.2017 09:00 19,3 C 25,0 C 75 % 1018,5 hPa 0,0 l/m 13,6 km/h (3 Bft) O-NO 65 0 min 0,177 mm 1,0 UV-I 239 W/m 14,8 C 16,8 C 17,7 km/h (3 Bft) 95,12 %
01.06.2017 09:02 19,3 C 25,0 C 75 % 1018,5 hPa 0,0 l/m 10,0 km/h (2 Bft) N-NO 19 0 min 0,000 mm 1,1 UV-I 249 W/m 14,8 C 17,9 C 16,1 km/h (3 Bft) 100,00 %
01.06.2017 09:04 19,3 C 25,0 C 76 % 1018,6 hPa 0,0 l/m 9,3 km/h (2 Bft) NO 44 0 min 0,000 mm 1,1 UV-I 262 W/m 15,0 C 18,1 C 14,5 km/h (3 Bft) 100,00 %
01.06.2017 09:06 19,3 C 25,0 C 76 % 1018,5 hPa 0,0 l/m 12,6 km/h (3 Bft) NO 44 0 min 0,000 mm 1,2 UV-I 269 W/m 15,0 C 17,0 C 20,9 km/h (4 Bft) 100,00 %
01.06.2017 09:08 19,3 C 25,0 C 75 % 1018,6 hPa 0,0 l/m 11,3 km/h (2 Bft) NO 42 0 min 0,000 mm 1,2 UV-I 273 W/m 14,8 C 17,4 C 20,9 km/h (4 Bft) 95,45 %
01.06.2017 09:10 19,3 C 25,0 C 75 % 1018,5 hPa 0,0 l/m 12,5 km/h (3 Bft) NO 41 0 min 0,000 mm 1,3 UV-I 280 W/m 14,8 C 17,1 C 19,3 km/h (3 Bft) 97,56 %
01.06.2017 09:12 19,3 C 25,0 C 76 % 1018,5 hPa 0,0 l/m 10,9 km/h (2 Bft) O-NO 58 0 min 0,000 mm 1,3 UV-I 295 W/m 15,0 C 17,6 C 17,7 km/h (3 Bft) 98,11 %
01.06.2017 09:14 19,4 C 25,0 C 75 % 1018,5 hPa 0,0 l/m 7,9 km/h (2 Bft) NO 51 0 min 0,000 mm 1,4 UV-I 316 W/m 14,8 C 18,8 C 11,3 km/h (2 Bft) 100,00 %
01.06.2017 09:16 19,5 C 25,0 C 76 % 1018,4 hPa 0,0 l/m 14,8 km/h (3 Bft) NO 49 2 min 0,000 mm 1,5 UV-I 377 W/m 15,2 C 16,7 C 20,9 km/h (4 Bft) 98,21 %
01.06.2017 09:18 19,5 C 25,0 C 73 % 1018,5 hPa 0,0 l/m 13,5 km/h (3 Bft) N-NO 30 2 min 0,000 mm 1,5 UV-I 403 W/m 14,5 C 17,0 C 22,5 km/h (4 Bft) 95,45 %
01.06.2017 09:20 19,6 C 25,0 C 73 % 1018,4 hPa 0,0 l/m 10,3 km/h (2 Bft) O-NO 65 2 min 0,000 mm 1,5 UV-I 346 W/m 14,6 C 18,1 C 16,1 km/h (3 Bft) 95,12 %
01.06.2017 09:22 19,6 C 25,0 C 72 % 1018,5 hPa 0,0 l/m 13,5 km/h (3 Bft) O-NO 59 0 min 0,000 mm 1,5 UV-I 343 W/m 14,4 C 17,1 C 17,7 km/h (3 Bft) 98,11 %
01.06.2017 09:24 19,7 C 25,0 C 74 % 1018,4 hPa 0,0 l/m 9,0 km/h (2 Bft) NO 43 2 min 0,000 mm 1,6 UV-I 385 W/m 14,9 C 18,7 C 14,5 km/h (3 Bft) 100,00 %
01.06.2017 09:26 19,8 C 25,0 C 71 % 1018,5 hPa 0,0 l/m 15,9 km/h (3 Bft) NO 48 2 min 0,000 mm 1,7 UV-I 403 W/m 14,4 C 16,8 C 22,5 km/h (4 Bft) 95,56 %
01.06.2017 09:28 19,8 C 25,0 C 72 % 1018,5 hPa 0,0 l/m 15,9 km/h (3 Bft) O-NO 58 2 min 0,000 mm 1,6 UV-I 376 W/m 14,6 C 16,8 C 20,9 km/h (4 Bft) 96,23 %
01.06.2017 09:30 19,8 C 25,0 C 71 % 1018,5 hPa 0,0 l/m 10,8 km/h (2 Bft) O-NO 68 0 min 0,000 mm 1,6 UV-I 346 W/m 14,4 C 18,2 C 16,1 km/h (3 Bft) 95,74 %
01.06.2017 09:32 19,8 C 25,0 C 72 % 1018,5 hPa 0,0 l/m 13,2 km/h (3 Bft) O-NO 60 0 min 0,000 mm 1,6 UV-I 330 W/m 14,6 C 17,5 C 19,3 km/h (3 Bft) 96,00 %
01.06.2017 09:34 19,8 C 25,0 C 72 % 1018,5 hPa 0,0 l/m 15,4 km/h (3 Bft) O-NO 61 0 min 0,000 mm 1,7 UV-I 341 W/m 14,6 C 16,9 C 19,3 km/h (3 Bft) 97,14 %
01.06.2017 09:36 19,8 C 25,0 C 69 % 1018,4 hPa 0,0 l/m 15,7 km/h (3 Bft) O-NO 68 2 min 0,000 mm 2,0 UV-I 372 W/m 13,9 C 16,8 C 19,3 km/h (3 Bft) 98,31 %
01.06.2017 09:38 19,9 C 25,0 C 70 % 1018,4 hPa 0,0 l/m 13,9 km/h (3 Bft) NO 55 2 min 0,000 mm 2,4 UV-I 385 W/m 14,3 C 17,4 C 19,3 km/h (3 Bft) 92,68 %
01.06.2017 09:40 20,1 C 25,0 C 72 % 1018,4 hPa 0,0 l/m 10,2 km/h (2 Bft) NO 50 2 min 0,000 mm 2,6 UV-I 649 W/m 14,9 C 18,7 C 19,3 km/h (3 Bft) 95,74 %
01.06.2017 09:42 20,3 C 25,0 C 71 % 1018,5 hPa 0,0 l/m 11,1 km/h (2 Bft) NO 48 2 min 0,000 mm 2,7 UV-I 731 W/m 14,9 C 18,6 C 19,3 km/h (3 Bft) 96,23 %
01.06.2017 09:44 20,5 C 25,0 C 68 % 1018,5 hPa 0,0 l/m 8,8 km/h (2 Bft) O-NO 73 2 min 0,000 mm 2,5 UV-I 593 W/m 14,4 C 19,6 C 16,1 km/h (3 Bft) 97,37 %
01.06.2017 09:45 20,5 C 25,0 C 70 % 1018,5 hPa 0,0 l/m 9,7 km/h (2 Bft) NO 45 1 min 0,000 mm 2,6 UV-I 541 W/m 14,8 C 19,3 C 19,3 km/h (3 Bft) 98,25 %
01.06.2017 09:50 20,6 C 25,0 C 69 % 1018,5 hPa 0,0 l/m 11,3 km/h (2 Bft) NO 45 5 min 0,000 mm 2,5 UV-I 487 W/m 14,7 C 18,9 C 20,9 km/h (4 Bft) 96,49 %
01.06.2017 09:55 20,5 C 25,0 C 68 % 1018,4 hPa 0,0 l/m 14,5 km/h (3 Bft) NO 45 5 min 0,000 mm 2,5 UV-I 483 W/m 14,4 C 18,0 C 20,9 km/h (4 Bft) 98,25 %
01.06.2017 10:00 20,4 C 25,0 C 68 % 1018,5 hPa 0,0 l/m 11,3 km/h (2 Bft) O-NO 67 5 min 0,279 mm 2,5 UV-I 438 W/m 14,3 C 18,7 C 17,7 km/h (3 Bft) 97,37 %
01.06.2017 10:05 20,6 C 25,0 C 70 % 1018,5 hPa 0,0 l/m 12,9 km/h (3 Bft) NO 45 5 min 0,000 mm 3,2 UV-I 682 W/m 14,9 C 18,5 C 20,9 km/h (4 Bft) 95,61 %
01.06.2017 10:10 21,1 C 25,0 C 67 % 1018,4 hPa 0,0 l/m 12,9 km/h (3 Bft) NO 45 5 min 0,000 mm 3,5 UV-I 774 W/m 14,7 C 19,1 C 24,1 km/h (4 Bft) 97,37 %
01.06.2017 10:15 21,2 C 25,0 C 70 % 1018,4 hPa 0,0 l/m 12,9 km/h (3 Bft) NO 45 5 min 0,000 mm 3,3 UV-I 700 W/m 15,5 C 19,2 C 24,1 km/h (4 Bft) 97,37 %
01.06.2017 10:20 21,2 C 25,0 C 66 % 1018,5 hPa 0,0 l/m 16,6 km/h (3 Bft) O-NO 65 5 min 0,001 mm 3,0 UV-I 646 W/m 14,6 C 18,4 C 24,1 km/h (4 Bft) 98,24 %
01.06.2017 10:22 21,2 C 25,0 C 67 % 1018,5 hPa 0,0 l/m 12,3 km/h (3 Bft) NO 54 2 min 0,000 mm 3,5 UV-I 845 W/m 14,8 C 19,3 C 17,7 km/h (3 Bft) 100,00 %
01.06.2017 10:24 21,2 C 25,0 C 69 % 1018,5 hPa 0,0 l/m 8,5 km/h (2 Bft) O-NO 65 2 min 0,000 mm 3,8 UV-I 852 W/m 15,3 C 20,4 C 12,9 km/h (3 Bft) 95,45 %
01.06.2017 10:26 21,4 C 25,0 C 68 % 1018,5 hPa 0,0 l/m 13,9 km/h (3 Bft) O-NO 74 2 min 0,000 mm 3,8 UV-I 816 W/m 15,2 C 19,2 C 19,3 km/h (3 Bft) 100,00 %
01.06.2017 10:28 21,4 C 25,0 C 67 % 1018,4 hPa 0,0 l/m 13,0 km/h (3 Bft) O-NO 73 2 min 0,000 mm 3,9 UV-I 851 W/m 15,0 C 19,4 C 20,9 km/h (4 Bft) 94,23 %
01.06.2017 10:30 21,4 C 25,0 C 65 % 1018,5 hPa 0,0 l/m 14,0 km/h (3 Bft) O-NO 69 2 min 0,000 mm 4,0 UV-I 886 W/m 14,5 C 19,2 C 19,3 km/h (3 Bft) 97,73 %
01.06.2017 10:32 21,5 C 25,0 C 66 % 1018,4 hPa 0,0 l/m 9,9 km/h (2 Bft) N-NO 27 2 min 0,000 mm 4,0 UV-I 903 W/m 14,9 C 20,3 C 14,5 km/h (3 Bft) 96,61 %
01.06.2017 10:34 21,7 C 25,0 C 68 % 1018,5 hPa 0,0 l/m 14,1 km/h (3 Bft) NO 49 2 min 0,000 mm 3,6 UV-I 802 W/m 15,5 C 19,5 C 22,5 km/h (4 Bft) 100,00 %
01.06.2017 10:36 21,6 C 25,0 C 66 % 1018,5 hPa 0,0 l/m 12,9 km/h (3 Bft) NO 34 2 min 0,000 mm 3,7 UV-I 585 W/m 15,0 C 19,7 C 20,9 km/h (4 Bft) 97,56 %
01.06.2017 10:38 21,5 C 25,0 C 67 % 1018,5 hPa 0,0 l/m 16,5 km/h (3 Bft) O-NO 69 2 min 0,000 mm 3,0 UV-I 468 W/m 15,1 C 18,8 C 20,9 km/h (4 Bft) 100,00 %
01.06.2017 10:40 21,3 C 25,0 C 64 % 1018,5 hPa 0,0 l/m 16,0 km/h (3 Bft) NO 45 0 min 0,000 mm 2,9 UV-I 401 W/m 14,2 C 18,6 C 20,9 km/h (4 Bft) 95,56 %
01.06.2017 10:42 21,2 C 25,0 C 62 % 1018,5 hPa 0,0 l/m 18,0 km/h (3 Bft) O-NO 59 0 min 0,000 mm 2,8 UV-I 368 W/m 13,6 C 18,1 C 25,7 km/h (4 Bft) 96,72 %
01.06.2017 10:44 21,0 C 25,0 C 64 % 1018,5 hPa 0,0 l/m 16,3 km/h (3 Bft) NO 55 2 min 0,000 mm 3,7 UV-I 520 W/m 13,9 C 18,2 C 22,5 km/h (4 Bft) 100,00 %
01.06.2017 10:46 21,1 C 25,0 C 63 % 1018,5 hPa 0,0 l/m 13,6 km/h (3 Bft) O 85 2 min 0,000 mm 4,0 UV-I 829 W/m 13,8 C 18,9 C 20,9 km/h (4 Bft) 98,00 %
01.06.2017 10:48 21,3 C 25,0 C 63 % 1018,5 hPa 0,0 l/m 12,7 km/h (3 Bft) NO 46 2 min 0,000 mm 4,2 UV-I 838 W/m 14,0 C 19,4 C 19,3 km/h (3 Bft) 100,00 %
01.06.2017 10:50 21,5 C 25,0 C 67 % 1018,5 hPa 0,0 l/m 11,5 km/h (2 Bft) O-NO 67 2 min 0,000 mm 4,3 UV-I 867 W/m 15,1 C 19,9 C 17,7 km/h (3 Bft) 98,00 %
01.06.2017 10:52 21,7 C 25,6 C 64 % 1018,5 hPa 0,0 l/m 13,5 km/h (3 Bft) O-NO 61 2 min 0,000 mm 4,4 UV-I 896 W/m 14,6 C 19,6 C 19,3 km/h (3 Bft) 98,00 %
01.06.2017 10:54 21,8 C 25,0 C 62 % 1018,5 hPa 0,0 l/m 13,1 km/h (3 Bft) O-NO 67 2 min 0,000 mm 3,9 UV-I 911 W/m 14,2 C 19,8 C 20,9 km/h (4 Bft) 97,37 %
01.06.2017 10:56 21,7 C 25,0 C 63 % 1018,5 hPa 0,0 l/m 11,4 km/h (2 Bft) O-NO 66 2 min 0,000 mm 3,7 UV-I 475 W/m 14,3 C 20,1 C 20,9 km/h (4 Bft) 100,00 %
01.06.2017 10:58 21,7 C 25,6 C 67 % 1018,5 hPa 0,0 l/m 15,1 km/h (3 Bft) NO 44 2 min 0,000 mm 4,3 UV-I 828 W/m 15,3 C 19,3 C 19,3 km/h (3 Bft) 100,00 %
01.06.2017 11:00 21,8 C 25,6 C 67 % 1018,5 hPa 0,0 l/m 12,7 km/h (3 Bft) NO 49 2 min 0,482 mm 4,4 UV-I 843 W/m 15,4 C 19,9 C 19,3 km/h (3 Bft) 100,00 %
01.06.2017 11:02 21,9 C 25,0 C 63 % 1018,5 hPa 0,0 l/m 14,4 km/h (3 Bft) O-NO 67 2 min 0,000 mm 4,4 UV-I 814 W/m 14,5 C 19,7 C 20,9 km/h (4 Bft) 97,73 %
01.06.2017 11:04 21,9 C 25,0 C 66 % 1018,5 hPa 0,0 l/m 13,4 km/h (3 Bft) NO 51 2 min 0,000 mm 4,2 UV-I 798 W/m 15,3 C 19,9 C 19,3 km/h (3 Bft) 100,00 %
01.06.2017 11:06 21,9 C 25,6 C 61 % 1018,5 hPa 0,0 l/m 11,9 km/h (2 Bft) O-NO 59 2 min 0,000 mm 4,3 UV-I 798 W/m 14,0 C 20,2 C 17,7 km/h (3 Bft) 98,21 %
01.06.2017 11:08 21,9 C 25,6 C 64 % 1018,5 hPa 0,0 l/m 10,7 km/h (2 Bft) O 85 2 min 0,000 mm 4,2 UV-I 706 W/m 14,8 C 20,5 C 16,1 km/h (3 Bft) 97,73 %
01.06.2017 11:10 21,8 C 25,6 C 63 % 1018,6 hPa 0,0 l/m 8,0 km/h (2 Bft) O-NO 57 2 min 0,000 mm 4,1 UV-I 645 W/m 14,4 C 21,2 C 14,5 km/h (3 Bft) 97,37 %
01.06.2017 11:12 21,9 C 25,6 C 61 % 1018,5 hPa 0,0 l/m 11,6 km/h (2 Bft) O 81 2 min 0,000 mm 4,5 UV-I 776 W/m 14,0 C 20,3 C 19,3 km/h (3 Bft) 94,64 %
01.06.2017 11:14 21,8 C 25,6 C 62 % 1018,5 hPa 0,0 l/m 10,0 km/h (2 Bft) O-NO 66 2 min 0,000 mm 4,5 UV-I 823 W/m 14,2 C 20,6 C 12,9 km/h (3 Bft) 97,73 %
01.06.2017 11:16 21,9 C 25,6 C 62 % 1018,5 hPa 0,0 l/m 12,4 km/h (3 Bft) O-NO 66 2 min 0,000 mm 4,9 UV-I 881 W/m 14,3 C 20,1 C 19,3 km/h (3 Bft) 94,00 %
01.06.2017 11:18 22,1 C 25,6 C 62 % 1018,5 hPa 0,0 l/m 9,2 km/h (2 Bft) O 94 2 min 0,000 mm 4,9 UV-I 909 W/m 14,5 C 21,2 C 12,9 km/h (3 Bft) 94,00 %
01.06.2017 11:20 22,2 C 25,6 C 63 % 1018,5 hPa 0,0 l/m 10,3 km/h (2 Bft) O-NO 76 2 min 0,000 mm 4,7 UV-I 882 W/m 14,8 C 21,0 C 17,7 km/h (3 Bft) 94,74 %
01.06.2017 11:22 22,1 C 25,6 C 61 % 1018,5 hPa 0,0 l/m 12,9 km/h (3 Bft) NO 42 2 min 0,000 mm 4,9 UV-I 868 W/m 14,2 C 20,2 C 20,9 km/h (4 Bft) 96,23 %
01.06.2017 11:24 22,1 C 25,6 C 67 % 1018,5 hPa 0,0 l/m 9,3 km/h (2 Bft) NO 36 2 min 0,000 mm 4,9 UV-I 875 W/m 15,7 C 21,2 C 14,5 km/h (3 Bft) 97,62 %
01.06.2017 11:26 22,3 C 25,6 C 63 % 1018,5 hPa 0,0 l/m 12,9 km/h (3 Bft) NO 52 2 min 0,000 mm 4,9 UV-I 864 W/m 14,9 C 20,5 C 17,7 km/h (3 Bft) 95,45 %
01.06.2017 11:28 22,4 C 25,6 C 64 % 1018,5 hPa 0,0 l/m 14,4 km/h (3 Bft) NO 38 2 min 0,000 mm 4,9 UV-I 845 W/m 15,2 C 20,3 C 19,3 km/h (3 Bft) 94,34 %
01.06.2017 11:30 22,3 C 25,6 C 60 % 1018,5 hPa 0,0 l/m 12,9 km/h (3 Bft) O-NO 75 2 min 0,000 mm 4,9 UV-I 808 W/m 14,2 C 20,5 C 20,9 km/h (4 Bft) 95,45 %
01.06.2017 11:32 22,2 C 25,6 C 64 % 1018,5 hPa 0,0 l/m 9,3 km/h (2 Bft) NO 46 2 min 0,000 mm 4,6 UV-I 784 W/m 15,1 C 21,3 C 17,7 km/h (3 Bft) 94,00 %
01.06.2017 11:34 22,2 C 25,6 C 61 % 1018,5 hPa 0,0 l/m 14,5 km/h (3 Bft) NO 41 2 min 0,000 mm 5,1 UV-I 864 W/m 14,3 C 20,0 C 20,9 km/h (4 Bft) 98,00 %
01.06.2017 11:36 22,2 C 25,6 C 59 % 1018,4 hPa 0,0 l/m 13,2 km/h (3 Bft) O-NO 76 2 min 0,000 mm 5,1 UV-I 863 W/m 13,8 C 20,3 C 17,7 km/h (3 Bft) 95,12 %
01.06.2017 11:38 22,3 C 25,6 C 62 % 1018,5 hPa 0,0 l/m 9,7 km/h (2 Bft) NO 49 2 min 0,000 mm 5,1 UV-I 844 W/m 14,7 C 21,3 C 16,1 km/h (3 Bft) 97,56 %
01.06.2017 11:40 22,3 C 25,6 C 61 % 1018,5 hPa 0,0 l/m 12,4 km/h (3 Bft) NO 49 2 min 0,000 mm 5,1 UV-I 840 W/m 14,4 C 20,6 C 16,1 km/h (3 Bft) 92,68 %
01.06.2017 11:42 22,3 C 25,6 C 61 % 1018,5 hPa 0,0 l/m 11,4 km/h (2 Bft) O-NO 76 2 min 0,000 mm 5,2 UV-I 840 W/m 14,4 C 20,8 C 17,7 km/h (3 Bft) 98,39 %
01.06.2017 11:44 22,3 C 25,6 C 60 % 1018,5 hPa 0,0 l/m 10,3 km/h (2 Bft) O-NO 62 2 min 0,000 mm 5,2 UV-I 839 W/m 14,2 C 21,1 C 14,5 km/h (3 Bft) 100,00 %
01.06.2017 11:46 22,3 C 25,6 C 57 % 1018,5 hPa 0,0 l/m 10,5 km/h (2 Bft) O-NO 74 2 min 0,000 mm 5,3 UV-I 859 W/m 13,4 C 21,0 C 16,1 km/h (3 Bft) 100,00 %
01.06.2017 11:48 22,3 C 25,6 C 59 % 1018,5 hPa 0,0 l/m 6,1 km/h (2 Bft) O-SO 106 2 min 0,000 mm 5,3 UV-I 871 W/m 13,9 C 22,3 C 11,3 km/h (2 Bft) 100,00 %
01.06.2017 11:50 22,3 C 25,6 C 59 % 1018,5 hPa 0,0 l/m 6,8 km/h (2 Bft) O-NO 57 2 min 0,000 mm 5,3 UV-I 868 W/m 13,9 C 22,2 C 9,7 km/h (2 Bft) 94,00 %
01.06.2017 11:52 22,5 C 25,6 C 58 % 1018,5 hPa 0,0 l/m 12,5 km/h (3 Bft) O 79 2 min 0,000 mm 5,4 UV-I 896 W/m 13,8 C 20,8 C 17,7 km/h (3 Bft) 95,74 %
01.06.2017 11:54 22,4 C 25,6 C 56 % 1018,5 hPa 0,0 l/m 6,9 km/h (2 Bft) O-SO 111 2 min 0,000 mm 4,6 UV-I 676 W/m 13,2 C 22,2 C 12,9 km/h (3 Bft) 97,37 %
01.06.2017 11:56 22,3 C 25,6 C 62 % 1018,5 hPa 0,0 l/m 8,9 km/h (2 Bft) O-NO 62 0 min 0,000 mm 5,1 UV-I 388 W/m 14,7 C 21,5 C 14,5 km/h (3 Bft) 95,74 %
01.06.2017 11:58 22,3 C 25,6 C 58 % 1018,5 hPa 0,0 l/m 2,8 km/h (1 Bft) O-NO 76 0 min 0,000 mm 5,1 UV-I 388 W/m 13,6 C 22,3 C 9,7 km/h (2 Bft) 95,74 %
01.06.2017 12:00 22,6 C 25,6 C 61 % 1018,4 hPa 0,0 l/m 4,4 km/h (1 Bft) O-NO 61 2 min 0,000 mm 5,4 UV-I 770 W/m 14,7 C 22,6 C 12,9 km/h (3 Bft) 97,87 %
01.06.2017 12:02 22,6 C 25,6 C 58 % 1018,5 hPa 0,0 l/m 7,2 km/h (2 Bft) O 92 2 min 0,534 mm 5,4 UV-I 867 W/m 13,9 C 22,3 C 14,5 km/h (3 Bft) 95,24 %
01.06.2017 12:04 22,6 C 25,6 C 59 % 1018,5 hPa 0,0 l/m 3,9 km/h (1 Bft) N-NO 33 2 min 0,000 mm 5,5 UV-I 875 W/m 14,2 C 22,6 C 8,0 km/h (2 Bft) 90,57 %
01.06.2017 12:06 22,8 C 25,6 C 58 % 1018,4 hPa 0,0 l/m 8,2 km/h (2 Bft) O-NO 63 2 min 0,000 mm 5,5 UV-I 876 W/m 14,1 C 22,2 C 16,1 km/h (3 Bft) 97,56 %
01.06.2017 12:08 22,8 C 25,6 C 59 % 1018,4 hPa 0,0 l/m 9,7 km/h (2 Bft) O-NO 69 2 min 0,000 mm 5,6 UV-I 874 W/m 14,4 C 21,8 C 14,5 km/h (3 Bft) 95,12 %
01.06.2017 12:10 22,8 C 25,6 C 61 % 1018,4 hPa 0,0 l/m 6,1 km/h (2 Bft) N-NO 25 2 min 0,000 mm 5,6 UV-I 877 W/m 14,9 C 22,8 C 14,5 km/h (3 Bft) 96,77 %
01.06.2017 12:12 22,7 C 25,6 C 60 % 1018,4 hPa 0,0 l/m 4,5 km/h (1 Bft) NO 40 2 min 0,000 mm 5,7 UV-I 877 W/m 14,5 C 22,7 C 11,3 km/h (2 Bft) 89,47 %
01.06.2017 12:14 22,8 C 25,6 C 63 % 1018,4 hPa 0,0 l/m 4,1 km/h (1 Bft) N-NO 15 2 min 0,000 mm 5,6 UV-I 875 W/m 15,4 C 22,8 C 9,7 km/h (2 Bft) 94,64 %
01.06.2017 12:16 22,9 C 25,6 C 63 % 1018,4 hPa 0,0 l/m 6,1 km/h (2 Bft) N-NO 19 2 min 0,000 mm 5,7 UV-I 869 W/m 15,5 C 22,9 C 16,1 km/h (3 Bft) 96,00 %
01.06.2017 12:18 23,0 C 25,6 C 62 % 1018,4 hPa 0,0 l/m 5,4 km/h (1 Bft) N-NW 348 2 min 0,000 mm 5,6 UV-I 863 W/m 15,3 C 23,0 C 14,5 km/h (3 Bft) 97,37 %
01.06.2017 12:20 22,9 C 25,6 C 61 % 1018,4 hPa 0,0 l/m 1,3 km/h (1 Bft) NW 321 2 min 0,000 mm 5,7 UV-I 866 W/m 15,0 C 22,9 C 3,2 km/h (1 Bft) 96,23 %
01.06.2017 12:22 22,8 C 25,6 C 61 % 1018,4 hPa 0,0 l/m 2,4 km/h (1 Bft) N-NO 32 2 min 0,000 mm 5,7 UV-I 860 W/m 14,9 C 22,8 C 8,0 km/h (2 Bft) 97,56 %
01.06.2017 12:24 22,8 C 25,6 C 58 % 1018,5 hPa 0,0 l/m 8,8 km/h (2 Bft) O 81 2 min 0,000 mm 5,7 UV-I 856 W/m 14,1 C 22,1 C 14,5 km/h (3 Bft) 96,00 %
01.06.2017 12:26 22,8 C 25,6 C 57 % 1018,5 hPa 0,0 l/m 5,9 km/h (2 Bft) O-NO 67 2 min 0,000 mm 5,7 UV-I 865 W/m 13,8 C 22,8 C 11,3 km/h (2 Bft) 95,45 %
01.06.2017 12:28 22,9 C 25,6 C 60 % 1018,5 hPa 0,0 l/m 7,5 km/h (2 Bft) NO 50 2 min 0,000 mm 5,7 UV-I 873 W/m 14,7 C 22,5 C 12,9 km/h (3 Bft) 94,34 %
01.06.2017 12:30 23,0 C 25,6 C 58 % 1018,5 hPa 0,0 l/m 6,9 km/h (2 Bft) O-NO 61 2 min 0,000 mm 5,7 UV-I 869 W/m 14,3 C 22,8 C 14,5 km/h (3 Bft) 94,74 %
01.06.2017 12:32 23,1 C 25,6 C 58 % 1018,5 hPa 0,0 l/m 5,7 km/h (1 Bft) O-NO 66 2 min 0,000 mm 5,7 UV-I 872 W/m 14,4 C 23,1 C 12,9 km/h (3 Bft) 92,00 %
01.06.2017 12:34 23,2 C 25,6 C 61 % 1018,5 hPa 0,0 l/m 2,5 km/h (1 Bft) N-NO 31 2 min 0,000 mm 5,8 UV-I 878 W/m 15,3 C 23,2 C 4,8 km/h (1 Bft) 94,00 %
01.06.2017 12:36 23,2 C 25,6 C 59 % 1018,4 hPa 0,0 l/m 2,9 km/h (1 Bft) N-NO 31 2 min 0,000 mm 5,8 UV-I 886 W/m 14,7 C 23,2 C 4,8 km/h (1 Bft) 96,00 %
01.06.2017 12:38 23,5 C 25,6 C 63 % 1018,5 hPa 0,0 l/m 4,0 km/h (1 Bft) NO 49 2 min 0,000 mm 5,9 UV-I 888 W/m 16,0 C 23,5 C 6,4 km/h (2 Bft) 94,44 %
01.06.2017 12:40 23,6 C 25,6 C 59 % 1018,5 hPa 0,0 l/m 8,4 km/h (2 Bft) NO 47 2 min 0,000 mm 5,9 UV-I 884 W/m 15,1 C 23,0 C 14,5 km/h (3 Bft) 94,55 %
01.06.2017 12:42 23,5 C 25,6 C 57 % 1018,5 hPa 0,0 l/m 8,8 km/h (2 Bft) O-NO 67 2 min 0,000 mm 5,8 UV-I 883 W/m 14,5 C 22,8 C 14,5 km/h (3 Bft) 89,74 %
01.06.2017 12:44 23,4 C 25,6 C 59 % 1018,4 hPa 0,0 l/m 7,3 km/h (2 Bft) O-SO 115 2 min 0,000 mm 5,8 UV-I 879 W/m 14,9 C 23,1 C 12,9 km/h (3 Bft) 90,00 %
01.06.2017 12:46 23,5 C 25,6 C 57 % 1018,5 hPa 0,0 l/m 6,6 km/h (2 Bft) O-SO 102 2 min 0,000 mm 5,8 UV-I 877 W/m 14,5 C 23,4 C 11,3 km/h (2 Bft) 93,62 %
01.06.2017 12:48 23,3 C 25,6 C 56 % 1018,4 hPa 0,0 l/m 3,4 km/h (1 Bft) O-SO 121 2 min 0,000 mm 5,8 UV-I 878 W/m 14,0 C 23,3 C 6,4 km/h (2 Bft) 98,11 %
01.06.2017 12:50 23,1 C 25,6 C 58 % 1018,4 hPa 0,0 l/m 3,1 km/h (1 Bft) O-NO 68 2 min 0,000 mm 5,8 UV-I 878 W/m 14,4 C 23,1 C 9,7 km/h (2 Bft) 97,50 %
01.06.2017 12:52 23,4 C 25,6 C 59 % 1018,4 hPa 0,0 l/m 4,7 km/h (1 Bft) O-NO 69 2 min 0,000 mm 5,8 UV-I 880 W/m 14,9 C 23,4 C 9,7 km/h (2 Bft) 90,57 %
01.06.2017 12:54 23,5 C 25,6 C 57 % 1018,4 hPa 0,0 l/m 10,6 km/h (2 Bft) O-SO 105 2 min 0,000 mm 5,9 UV-I 883 W/m 14,5 C 22,4 C 14,5 km/h (3 Bft) 95,12 %
01.06.2017 12:56 23,6 C 25,6 C 58 % 1018,4 hPa 0,0 l/m 10,8 km/h (2 Bft) O 80 2 min 0,000 mm 5,9 UV-I 879 W/m 14,8 C 22,4 C 14,5 km/h (3 Bft) 98,21 %
01.06.2017 12:58 23,6 C 26,1 C 57 % 1018,3 hPa 0,0 l/m 4,7 km/h (1 Bft) O-NO 57 2 min 0,000 mm 5,9 UV-I 885 W/m 14,6 C 23,6 C 9,7 km/h (2 Bft) 97,37 %
01.06.2017 13:00 23,6 C 26,1 C 58 % 1018,4 hPa 0,0 l/m 4,6 km/h (1 Bft) O-SO 111 2 min 0,000 mm 5,9 UV-I 891 W/m 14,8 C 23,6 C 9,7 km/h (2 Bft) 92,45 %
01.06.2017 13:02 23,8 C 26,1 C 60 % 1018,4 hPa 0,0 l/m 6,2 km/h (2 Bft) O-NO 60 2 min 0,559 mm 5,9 UV-I 891 W/m 15,6 C 23,8 C 9,7 km/h (2 Bft) 92,68 %
01.06.2017 13:04 24,0 C 26,1 C 58 % 1018,4 hPa 0,0 l/m 4,0 km/h (1 Bft) O-NO 73 2 min 0,000 mm 5,9 UV-I 886 W/m 15,2 C 24,0 C 6,4 km/h (2 Bft) 95,74 %
01.06.2017 13:06 23,9 C 26,1 C 61 % 1018,3 hPa 0,0 l/m 6,4 km/h (2 Bft) N-NO 33 2 min 0,000 mm 5,9 UV-I 881 W/m 15,9 C 23,9 C 11,3 km/h (2 Bft) 93,18 %
01.06.2017 13:08 24,0 C 26,1 C 62 % 1018,4 hPa 0,0 l/m 9,4 km/h (2 Bft) O-NO 64 2 min 0,000 mm 5,8 UV-I 862 W/m 16,3 C 23,2 C 14,5 km/h (3 Bft) 97,73 %
01.06.2017 13:10 23,9 C 26,1 C 57 % 1018,4 hPa 0,0 l/m 7,9 km/h (2 Bft) NO 40 2 min 0,000 mm 5,8 UV-I 871 W/m 14,9 C 23,5 C 12,9 km/h (3 Bft) 96,43 %
01.06.2017 13:12 23,8 C 26,1 C 56 % 1018,3 hPa 0,0 l/m 4,2 km/h (1 Bft) NO 38 2 min 0,000 mm 5,8 UV-I 878 W/m 14,5 C 23,8 C 8,0 km/h (2 Bft) 94,74 %
01.06.2017 13:14 23,6 C 26,1 C 57 % 1018,3 hPa 0,0 l/m 2,4 km/h (1 Bft) NO 38 2 min 0,000 mm 5,9 UV-I 889 W/m 14,6 C 23,6 C 4,8 km/h (1 Bft) 96,00 %
01.06.2017 13:16 23,4 C 26,1 C 55 % 1018,3 hPa 0,0 l/m 2,5 km/h (1 Bft) NO 38 2 min 0,000 mm 5,9 UV-I 892 W/m 13,8 C 23,4 C 6,4 km/h (2 Bft) 90,00 %
01.06.2017 13:18 23,7 C 26,1 C 60 % 1018,2 hPa 0,0 l/m 7,6 km/h (2 Bft) N-NO 32 2 min 0,000 mm 5,9 UV-I 893 W/m 15,5 C 23,3 C 14,5 km/h (3 Bft) 90,91 %
01.06.2017 13:20 23,8 C 26,1 C 61 % 1018,2 hPa 0,0 l/m 8,2 km/h (2 Bft) N-NW 344 2 min 0,000 mm 5,8 UV-I 875 W/m 15,8 C 23,3 C 14,5 km/h (3 Bft) 94,64 %
01.06.2017 13:22 23,8 C 26,1 C 62 % 1018,3 hPa 0,0 l/m 7,8 km/h (2 Bft) N-NO 24 2 min 0,000 mm 5,8 UV-I 882 W/m 16,1 C 23,4 C 17,7 km/h (3 Bft) 97,44 %
01.06.2017 13:24 23,7 C 26,1 C 59 % 1018,2 hPa 0,0 l/m 4,4 km/h (1 Bft) N-NO 30 2 min 0,000 mm 5,8 UV-I 876 W/m 15,2 C 23,7 C 9,7 km/h (2 Bft) 96,15 %
01.06.2017 13:26 23,6 C 26,1 C 57 % 1018,2 hPa 0,0 l/m 3,4 km/h (1 Bft) N-NW 336 2 min 0,000 mm 5,9 UV-I 906 W/m 14,6 C 23,6 C 8,0 km/h (2 Bft) 92,31 %
01.06.2017 13:28 23,7 C 26,1 C 59 % 1018,2 hPa 0,0 l/m 0,9 km/h (0 Bft) N-NW 338 2 min 0,000 mm 5,8 UV-I 907 W/m 15,2 C 23,7 C 3,2 km/h (1 Bft) 91,49 %
01.06.2017 13:30 23,7 C 26,1 C 55 % 1018,2 hPa 0,0 l/m 3,9 km/h (1 Bft) W-SW 252 2 min 0,000 mm 5,9 UV-I 943 W/m 14,1 C 23,7 C 6,4 km/h (2 Bft) 98,00 %
01.06.2017 13:32 23,6 C 26,1 C 55 % 1018,1 hPa 0,0 l/m 1,5 km/h (1 Bft) W-SW 252 2 min 0,000 mm 5,1 UV-I 863 W/m 14,0 C 23,6 C 3,2 km/h (1 Bft) 94,00 %
01.06.2017 13:34 23,4 C 26,1 C 58 % 1018,2 hPa 0,0 l/m 5,5 km/h (1 Bft) NO 54 0 min 0,000 mm 5,0 UV-I 477 W/m 14,7 C 23,4 C 8,0 km/h (2 Bft) 94,00 %
01.06.2017 13:36 23,6 C 26,1 C 60 % 1018,2 hPa 0,0 l/m 2,9 km/h (1 Bft) N 5 2 min 0,000 mm 4,3 UV-I 543 W/m 15,4 C 23,6 C 6,4 km/h (2 Bft) 92,68 %
01.06.2017 13:38 23,6 C 26,1 C 64 % 1018,2 hPa 0,0 l/m 2,4 km/h (1 Bft) NO 36 0 min 0,000 mm 3,7 UV-I 422 W/m 16,4 C 23,6 C 8,0 km/h (2 Bft) 100,00 %
01.06.2017 13:40 23,4 C 26,1 C 63 % 1018,2 hPa 0,0 l/m 1,3 km/h (1 Bft) N 355 0 min 0,000 mm 4,5 UV-I 432 W/m 15,9 C 23,4 C 4,8 km/h (1 Bft) 98,21 %
01.06.2017 13:42 23,4 C 26,1 C 60 % 1018,1 hPa 0,0 l/m 1,2 km/h (1 Bft) N 10 0 min 0,000 mm 5,1 UV-I 432 W/m 15,2 C 23,4 C 3,2 km/h (1 Bft) 96,00 %
01.06.2017 13:44 23,6 C 26,1 C 56 % 1018,1 hPa 0,0 l/m 5,1 km/h (1 Bft) NO 53 2 min 0,000 mm 5,0 UV-I 589 W/m 14,3 C 23,6 C 8,0 km/h (2 Bft) 97,37 %
01.06.2017 13:46 23,8 C 26,1 C 60 % 1018,1 hPa 0,0 l/m 9,2 km/h (2 Bft) N-NO 24 2 min 0,000 mm 5,6 UV-I 911 W/m 15,6 C 23,0 C 16,1 km/h (3 Bft) 100,00 %
01.06.2017 13:48 24,1 C 26,1 C 60 % 1018,1 hPa 0,0 l/m 6,6 km/h (2 Bft) N-NO 19 2 min 0,000 mm 5,7 UV-I 922 W/m 15,8 C 24,1 C 11,3 km/h (2 Bft) 100,00 %
01.06.2017 13:50 24,1 C 26,1 C 58 % 1018,0 hPa 0,0 l/m 4,3 km/h (1 Bft) NO 36 2 min 0,000 mm 5,6 UV-I 880 W/m 15,3 C 24,1 C 6,4 km/h (2 Bft) 98,21 %
01.06.2017 13:52 24,0 C 26,1 C 58 % 1017,9 hPa 0,0 l/m 1,9 km/h (1 Bft) NO 54 2 min 0,000 mm 5,6 UV-I 864 W/m 15,2 C 24,0 C 4,8 km/h (1 Bft) 90,00 %
01.06.2017 13:54 24,1 C 26,1 C 60 % 1017,8 hPa 0,0 l/m 1,5 km/h (1 Bft) W-SW 249 2 min 0,000 mm 5,6 UV-I 874 W/m 15,8 C 24,1 C 4,8 km/h (1 Bft) 97,14 %
01.06.2017 13:56 24,2 C 26,1 C 57 % 1017,8 hPa 0,0 l/m 1,4 km/h (1 Bft) W-NW 301 2 min 0,000 mm 5,7 UV-I 888 W/m 15,1 C 24,2 C 4,8 km/h (1 Bft) 98,00 %
01.06.2017 13:58 24,3 C 26,1 C 56 % 1017,8 hPa 0,0 l/m 4,3 km/h (1 Bft) O 84 2 min 0,000 mm 5,7 UV-I 891 W/m 14,9 C 24,3 C 11,3 km/h (2 Bft) 98,00 %
01.06.2017 14:00 24,3 C 26,1 C 54 % 1017,8 hPa 0,0 l/m 6,7 km/h (2 Bft) O 101 2 min 0,533 mm 5,8 UV-I 901 W/m 14,4 C 24,2 C 9,7 km/h (2 Bft) 94,87 %
01.06.2017 14:02 24,3 C 26,1 C 56 % 1017,8 hPa 0,0 l/m 4,9 km/h (1 Bft) O-NO 63 2 min 0,000 mm 5,7 UV-I 898 W/m 14,9 C 24,3 C 9,7 km/h (2 Bft) 98,00 %
01.06.2017 14:04 24,3 C 26,1 C 56 % 1017,8 hPa 0,0 l/m 4,0 km/h (1 Bft) NO 50 2 min 0,000 mm 5,7 UV-I 908 W/m 14,9 C 24,3 C 8,0 km/h (2 Bft) 100,00 %
01.06.2017 14:06 24,3 C 26,1 C 54 % 1017,8 hPa 0,0 l/m 1,8 km/h (1 Bft) O 92 2 min 0,000 mm 5,7 UV-I 904 W/m 14,4 C 24,3 C 6,4 km/h (2 Bft) 96,00 %
01.06.2017 14:08 24,3 C 26,1 C 53 % 1017,8 hPa 0,0 l/m 3,9 km/h (1 Bft) S-SO 155 2 min 0,000 mm 5,7 UV-I 902 W/m 14,1 C 24,3 C 6,4 km/h (2 Bft) 94,34 %
01.06.2017 14:10 24,3 C 26,1 C 54 % 1017,8 hPa 0,0 l/m 2,8 km/h (1 Bft) S-SO 160 2 min 0,000 mm 5,3 UV-I 891 W/m 14,4 C 24,3 C 6,4 km/h (2 Bft) 100,00 %
01.06.2017 14:12 24,4 C 26,1 C 54 % 1017,8 hPa 0,0 l/m 1,9 km/h (1 Bft) S-SO 157 2 min 0,000 mm 5,6 UV-I 893 W/m 14,5 C 24,4 C 3,2 km/h (1 Bft) 100,00 %
01.06.2017 14:14 24,4 C 26,1 C 54 % 1017,7 hPa 0,0 l/m 1,6 km/h (1 Bft) S-SW 194 2 min 0,000 mm 5,5 UV-I 885 W/m 14,5 C 24,4 C 3,2 km/h (1 Bft) 98,11 %
01.06.2017 14:16 24,3 C 26,1 C 55 % 1017,8 hPa 0,0 l/m 1,4 km/h (1 Bft) S-SW 213 2 min 0,000 mm 5,4 UV-I 879 W/m 14,7 C 24,3 C 4,8 km/h (1 Bft) 97,14 %
01.06.2017 14:18 24,5 C 26,1 C 56 % 1017,8 hPa 0,0 l/m 1,4 km/h (1 Bft) W 269 2 min 0,000 mm 4,9 UV-I 828 W/m 15,1 C 24,5 C 4,8 km/h (1 Bft) 96,00 %
01.06.2017 14:20 24,6 C 26,1 C 55 % 1017,8 hPa 0,0 l/m 1,3 km/h (1 Bft) NW 326 2 min 0,000 mm 4,5 UV-I 817 W/m 14,9 C 24,6 C 3,2 km/h (1 Bft) 98,11 %
01.06.2017 14:22 24,5 C 26,1 C 54 % 1017,8 hPa 0,0 l/m 4,8 km/h (1 Bft) W 280 2 min 0,000 mm 4,7 UV-I 817 W/m 14,6 C 24,5 C 11,3 km/h (2 Bft) 97,56 %
01.06.2017 14:24 24,4 C 26,1 C 54 % 1017,8 hPa 0,0 l/m 2,2 km/h (1 Bft) W 280 2 min 0,000 mm 4,6 UV-I 791 W/m 14,5 C 24,4 C 3,2 km/h (1 Bft) 94,34 %
01.06.2017 14:26 24,7 C 26,1 C 58 % 1017,8 hPa 0,0 l/m 2,4 km/h (1 Bft) W 267 2 min 0,000 mm 4,2 UV-I 721 W/m 15,9 C 24,7 C 4,8 km/h (1 Bft) 100,00 %
01.06.2017 14:28 24,8 C 26,1 C 58 % 1017,8 hPa 0,0 l/m 1,6 km/h (1 Bft) N-NO 30 2 min 0,000 mm 4,4 UV-I 808 W/m 16,0 C 24,8 C 3,2 km/h (1 Bft) 97,87 %
01.06.2017 14:30 24,7 C 26,1 C 56 % 1017,8 hPa 0,0 l/m 3,2 km/h (1 Bft) N-NO 30 2 min 0,000 mm 3,3 UV-I 660 W/m 15,3 C 24,7 C 6,4 km/h (2 Bft) 100,00 %
01.06.2017 14:32 24,4 C 26,1 C 58 % 1017,7 hPa 0,0 l/m 1,6 km/h (1 Bft) N-NO 30 0 min 0,000 mm 3,3 UV-I 442 W/m 15,6 C 24,4 C 4,8 km/h (1 Bft) 98,11 %
01.06.2017 14:34 24,3 C 26,1 C 56 % 1017,7 hPa 0,0 l/m 0,6 km/h (0 Bft) N-NO 29 2 min 0,000 mm 3,3 UV-I 482 W/m 14,9 C 24,3 C 3,2 km/h (1 Bft) 97,22 %
01.06.2017 14:36 24,3 C 26,1 C 58 % 1017,7 hPa 0,0 l/m 2,1 km/h (1 Bft) N-NW 329 0 min 0,000 mm 3,0 UV-I 424 W/m 15,5 C 24,3 C 6,4 km/h (2 Bft) 98,18 %
01.06.2017 14:38 24,2 C 26,1 C 55 % 1017,7 hPa 0,0 l/m 0,1 km/h (0 Bft) N-NW 329 0 min 0,000 mm 2,7 UV-I 370 W/m 14,6 C 24,2 C 1,6 km/h (1 Bft) 100,00 %
01.06.2017 14:40 24,1 C 26,1 C 55 % 1017,7 hPa 0,0 l/m 2,3 km/h (1 Bft) W-NW 299 0 min 0,000 mm 2,4 UV-I 334 W/m 14,5 C 24,1 C 6,4 km/h (2 Bft) 100,00 %
01.06.2017 14:42 24,1 C 26,1 C 56 % 1017,7 hPa 0,0 l/m 2,3 km/h (1 Bft) W-NW 299 0 min 0,000 mm 2,3 UV-I 318 W/m 14,8 C 24,1 C 3,2 km/h (1 Bft) 97,44 %
01.06.2017 14:44 23,9 C 26,1 C 56 % 1017,7 hPa 0,0 l/m 1,0 km/h (0 Bft) W-NW 299 0 min 0,000 mm 2,3 UV-I 315 W/m 14,6 C 23,9 C 3,2 km/h (1 Bft) 95,74 %
01.06.2017 14:46 23,9 C 26,1 C 56 % 1017,6 hPa 0,0 l/m 0,6 km/h (0 Bft) W-NW 299 0 min 0,000 mm 2,3 UV-I 286 W/m 14,6 C 23,9 C 1,6 km/h (1 Bft) 98,11 %
01.06.2017 14:48 23,9 C 26,1 C 56 % 1017,6 hPa 0,0 l/m 2,3 km/h (1 Bft) W-NW 290 0 min 0,000 mm 2,3 UV-I 263 W/m 14,6 C 23,9 C 4,8 km/h (1 Bft) 100,00 %
01.06.2017 14:50 23,8 C 26,1 C 59 % 1017,6 hPa 0,0 l/m 1,4 km/h (1 Bft) N-NW 336 0 min 0,000 mm 2,4 UV-I 260 W/m 15,3 C 23,8 C 3,2 km/h (1 Bft) 95,38 %
01.06.2017 14:52 23,7 C 26,1 C 61 % 1017,6 hPa 0,0 l/m 0,8 km/h (0 Bft) N 355 0 min 0,000 mm 2,4 UV-I 256 W/m 15,7 C 23,7 C 1,6 km/h (1 Bft) 97,87 %
01.06.2017 14:54 23,5 C 26,1 C 58 % 1017,6 hPa 0,0 l/m 0,4 km/h (0 Bft) N 350 0 min 0,000 mm 2,4 UV-I 260 W/m 14,7 C 23,5 C 1,6 km/h (1 Bft) 100,00 %
01.06.2017 14:56 23,4 C 26,1 C 61 % 1017,6 hPa 0,0 l/m 0,3 km/h (0 Bft) N 349 0 min 0,000 mm 2,6 UV-I 339 W/m 15,4 C 23,4 C 1,6 km/h (1 Bft) 97,37 %
01.06.2017 14:58 23,4 C 26,1 C 60 % 1017,6 hPa 0,0 l/m 0,8 km/h (0 Bft) N-NW 338 0 min 0,000 mm 2,6 UV-I 356 W/m 15,2 C 23,4 C 3,2 km/h (1 Bft) 97,87 %
01.06.2017 15:00 23,5 C 26,1 C 56 % 1017,6 hPa 0,0 l/m 1,6 km/h (1 Bft) N 351 0 min 0,356 mm 2,6 UV-I 370 W/m 14,2 C 23,5 C 3,2 km/h (1 Bft) 94,00 %
01.06.2017 15:02 23,7 C 26,1 C 57 % 1017,5 hPa 0,0 l/m 3,1 km/h (1 Bft) N 355 0 min 0,000 mm 2,7 UV-I 355 W/m 14,7 C 23,7 C 4,8 km/h (1 Bft) 98,00 %
01.06.2017 15:04 23,8 C 26,1 C 60 % 1017,5 hPa 0,0 l/m 1,6 km/h (1 Bft) N 355 0 min 0,000 mm 2,6 UV-I 347 W/m 15,6 C 23,8 C 3,2 km/h (1 Bft) 95,74 %
01.06.2017 15:06 23,8 C 26,1 C 57 % 1017,4 hPa 0,0 l/m 1,0 km/h (0 Bft) N 355 0 min 0,000 mm 2,6 UV-I 355 W/m 14,8 C 23,8 C 3,2 km/h (1 Bft) 94,00 %
01.06.2017 15:08 23,9 C 26,1 C 54 % 1017,4 hPa 0,0 l/m 0,0 km/h (0 Bft) N 355 0 min 0,000 mm 2,5 UV-I 327 W/m 14,0 C 23,9 C 1,6 km/h (1 Bft) 95,74 %
01.06.2017 15:10 23,8 C 26,1 C 55 % 1017,4 hPa 0,0 l/m 0,2 km/h (0 Bft) N-NO 32 0 min 0,000 mm 2,3 UV-I 305 W/m 14,2 C 23,8 C 3,2 km/h (1 Bft) 97,37 %
01.06.2017 15:12 23,8 C 26,1 C 57 % 1017,3 hPa 0,0 l/m 3,2 km/h (1 Bft) O-NO 68 0 min 0,000 mm 2,2 UV-I 292 W/m 14,8 C 23,8 C 4,8 km/h (1 Bft) 91,49 %
01.06.2017 15:14 24,0 C 26,1 C 58 % 1017,4 hPa 0,0 l/m 4,2 km/h (1 Bft) O 80 0 min 0,000 mm 2,3 UV-I 318 W/m 15,2 C 24,0 C 4,8 km/h (1 Bft) 96,00 %
01.06.2017 15:16 24,1 C 26,1 C 57 % 1017,3 hPa 0,0 l/m 4,2 km/h (1 Bft) O-SO 106 0 min 0,000 mm 2,4 UV-I 379 W/m 15,0 C 24,1 C 6,4 km/h (2 Bft) 88,10 %
01.06.2017 15:18 24,1 C 26,1 C 54 % 1017,3 hPa 0,0 l/m 2,8 km/h (1 Bft) SO 146 0 min 0,000 mm 2,3 UV-I 349 W/m 14,2 C 24,1 C 4,8 km/h (1 Bft) 95,74 %
01.06.2017 15:20 23,9 C 26,1 C 55 % 1017,3 hPa 0,0 l/m 1,0 km/h (0 Bft) SO 146 0 min 0,000 mm 2,2 UV-I 335 W/m 14,3 C 23,9 C 3,2 km/h (1 Bft) 96,23 %
01.06.2017 15:22 23,9 C 26,1 C 56 % 1017,3 hPa 0,0 l/m 2,4 km/h (1 Bft) O-SO 123 0 min 0,000 mm 2,2 UV-I 361 W/m 14,6 C 23,9 C 6,4 km/h (2 Bft) 96,15 %
01.06.2017 15:24 24,1 C 26,1 C 56 % 1017,3 hPa 0,0 l/m 1,8 km/h (1 Bft) O-SO 123 0 min 0,000 mm 2,1 UV-I 367 W/m 14,8 C 24,1 C 3,2 km/h (1 Bft) 95,59 %
01.06.2017 15:26 24,1 C 26,1 C 55 % 1017,3 hPa 0,0 l/m 2,4 km/h (1 Bft) S 176 0 min 0,000 mm 1,9 UV-I 278 W/m 14,5 C 24,1 C 4,8 km/h (1 Bft) 100,00 %
01.06.2017 15:28 24,1 C 26,1 C 56 % 1017,3 hPa 0,0 l/m 2,5 km/h (1 Bft) S 176 0 min 0,000 mm 1,9 UV-I 294 W/m 14,8 C 24,1 C 4,8 km/h (1 Bft) 100,00 %
01.06.2017 15:30 24,1 C 26,1 C 55 % 1017,3 hPa 0,0 l/m 1,7 km/h (1 Bft) S 176 0 min 0,000 mm 2,0 UV-I 313 W/m 14,5 C 24,1 C 4,8 km/h (1 Bft) 93,62 %
01.06.2017 15:32 23,9 C 26,1 C 55 % 1017,3 hPa 0,0 l/m 1,1 km/h (1 Bft) S 173 0 min 0,000 mm 2,0 UV-I 326 W/m 14,3 C 23,9 C 4,8 km/h (1 Bft) 100,00 %
01.06.2017 15:34 23,9 C 26,1 C 56 % 1017,3 hPa 0,0 l/m 3,5 km/h (1 Bft) S-SW 209 0 min 0,000 mm 2,1 UV-I 371 W/m 14,6 C 23,9 C 6,4 km/h (2 Bft) 97,73 %
01.06.2017 15:36 24,1 C 26,1 C 56 % 1017,2 hPa 0,0 l/m 3,2 km/h (1 Bft) SW 215 0 min 0,000 mm 2,2 UV-I 409 W/m 14,8 C 24,1 C 6,4 km/h (2 Bft) 100,00 %
01.06.2017 15:38 24,1 C 26,1 C 56 % 1017,2 hPa 0,0 l/m 2,2 km/h (1 Bft) S-SW 202 0 min 0,000 mm 2,2 UV-I 389 W/m 14,8 C 24,1 C 4,8 km/h (1 Bft) 100,00 %
01.06.2017 15:40 24,0 C 26,1 C 55 % 1017,3 hPa 0,0 l/m 2,8 km/h (1 Bft) S 189 0 min 0,000 mm 2,2 UV-I 326 W/m 14,4 C 24,0 C 8,0 km/h (2 Bft) 98,00 %
01.06.2017 15:42 24,0 C 26,1 C 58 % 1017,3 hPa 0,0 l/m 3,7 km/h (1 Bft) S 187 0 min 0,000 mm 2,2 UV-I 352 W/m 15,2 C 24,0 C 8,0 km/h (2 Bft) 100,00 %
01.06.2017 15:44 24,1 C 26,1 C 56 % 1017,3 hPa 0,0 l/m 4,1 km/h (1 Bft) S-SO 161 0 min 0,000 mm 2,3 UV-I 363 W/m 14,8 C 24,1 C 8,0 km/h (2 Bft) 97,87 %
01.06.2017 15:46 24,1 C 26,1 C 57 % 1017,2 hPa 0,0 l/m 4,3 km/h (1 Bft) S-SO 165 0 min 0,000 mm 2,2 UV-I 331 W/m 15,0 C 24,1 C 8,0 km/h (2 Bft) 97,87 %
01.06.2017 15:48 24,2 C 26,1 C 55 % 1017,2 hPa 0,0 l/m 5,0 km/h (1 Bft) O-SO 119 0 min 0,000 mm 2,2 UV-I 360 W/m 14,6 C 24,2 C 8,0 km/h (2 Bft) 100,00 %
01.06.2017 15:50 24,1 C 26,1 C 56 % 1017,2 hPa 0,0 l/m 5,2 km/h (1 Bft) SO 131 0 min 0,000 mm 2,2 UV-I 347 W/m 14,8 C 24,1 C 9,7 km/h (2 Bft) 98,11 %
01.06.2017 15:52 24,1 C 26,1 C 55 % 1017,2 hPa 0,0 l/m 4,2 km/h (1 Bft) S-SO 147 0 min 0,000 mm 2,1 UV-I 330 W/m 14,5 C 24,1 C 9,7 km/h (2 Bft) 92,00 %
01.06.2017 15:54 24,1 C 26,1 C 55 % 1017,2 hPa 0,0 l/m 3,2 km/h (1 Bft) SO 141 0 min 0,000 mm 2,0 UV-I 321 W/m 14,5 C 24,1 C 8,0 km/h (2 Bft) 97,87 %
01.06.2017 15:56 24,0 C 26,1 C 56 % 1017,1 hPa 0,0 l/m 4,0 km/h (1 Bft) SO 144 0 min 0,000 mm 2,0 UV-I 316 W/m 14,7 C 24,0 C 6,4 km/h (2 Bft) 94,00 %
01.06.2017 15:58 24,1 C 26,1 C 56 % 1017,2 hPa 0,0 l/m 3,4 km/h (1 Bft) S-SO 157 0 min 0,000 mm 1,9 UV-I 320 W/m 14,8 C 24,1 C 6,4 km/h (2 Bft) 97,44 %
01.06.2017 16:00 24,1 C 26,1 C 55 % 1017,1 hPa 0,0 l/m 2,6 km/h (1 Bft) S-SO 154 0 min 0,000 mm 1,9 UV-I 320 W/m 14,5 C 24,1 C 6,4 km/h (2 Bft) 96,23 %
01.06.2017 16:02 24,0 C 26,1 C 56 % 1017,1 hPa 0,0 l/m 4,3 km/h (1 Bft) SO 140 0 min 0,228 mm 1,9 UV-I 316 W/m 14,7 C 24,0 C 6,4 km/h (2 Bft) 97,92 %
01.06.2017 16:04 23,9 C 26,1 C 57 % 1017,1 hPa 0,0 l/m 4,0 km/h (1 Bft) S-SO 157 0 min 0,000 mm 1,9 UV-I 319 W/m 14,9 C 23,9 C 8,0 km/h (2 Bft) 97,56 %
01.06.2017 16:06 24,1 C 26,1 C 57 % 1017,1 hPa 0,0 l/m 4,1 km/h (1 Bft) SO 144 0 min 0,000 mm 2,0 UV-I 325 W/m 15,0 C 24,1 C 8,0 km/h (2 Bft) 96,23 %
01.06.2017 16:08 24,1 C 26,1 C 56 % 1017,1 hPa 0,0 l/m 2,3 km/h (1 Bft) S-SO 165 0 min 0,000 mm 2,0 UV-I 329 W/m 14,8 C 24,1 C 6,4 km/h (2 Bft) 93,62 %
01.06.2017 16:10 24,1 C 26,1 C 57 % 1017,2 hPa 0,0 l/m 3,1 km/h (1 Bft) SO 138 0 min 0,000 mm 2,0 UV-I 341 W/m 15,0 C 24,1 C 8,0 km/h (2 Bft) 94,74 %
01.06.2017 16:12 24,1 C 26,7 C 58 % 1017,1 hPa 0,0 l/m 4,3 km/h (1 Bft) S-SO 158 0 min 0,000 mm 2,1 UV-I 359 W/m 15,3 C 24,1 C 8,0 km/h (2 Bft) 96,00 %
01.06.2017 16:14 24,1 C 26,7 C 57 % 1017,1 hPa 0,0 l/m 2,8 km/h (1 Bft) SO 142 0 min 0,000 mm 2,1 UV-I 361 W/m 15,0 C 24,1 C 8,0 km/h (2 Bft) 96,00 %
01.06.2017 16:16 24,1 C 26,1 C 57 % 1017,1 hPa 0,0 l/m 3,8 km/h (1 Bft) S-SO 159 0 min 0,000 mm 2,0 UV-I 340 W/m 15,0 C 24,1 C 8,0 km/h (2 Bft) 97,37 %
01.06.2017 16:18 24,1 C 26,1 C 59 % 1017,1 hPa 0,0 l/m 3,0 km/h (1 Bft) S 179 0 min 0,000 mm 2,0 UV-I 331 W/m 15,6 C 24,1 C 8,0 km/h (2 Bft) 94,74 %
01.06.2017 16:20 24,1 C 26,7 C 58 % 1017,0 hPa 0,0 l/m 5,3 km/h (1 Bft) S 169 0 min 0,000 mm 1,9 UV-I 320 W/m 15,3 C 24,1 C 8,0 km/h (2 Bft) 93,85 %
01.06.2017 16:22 24,1 C 26,7 C 58 % 1017,0 hPa 0,0 l/m 6,7 km/h (2 Bft) S 180 0 min 0,000 mm 2,0 UV-I 345 W/m 15,3 C 24,0 C 9,7 km/h (2 Bft) 98,00 %
01.06.2017 16:24 23,9 C 26,7 C 57 % 1017,0 hPa 0,0 l/m 6,4 km/h (2 Bft) S-SO 160 0 min 0,000 mm 2,0 UV-I 363 W/m 14,9 C 23,9 C 9,7 km/h (2 Bft) 97,87 %
01.06.2017 16:26 23,9 C 26,7 C 57 % 1017,0 hPa 0,0 l/m 4,8 km/h (1 Bft) S-SO 165 0 min 0,000 mm 1,9 UV-I 354 W/m 14,9 C 23,9 C 12,9 km/h (3 Bft) 95,12 %
01.06.2017 16:28 24,0 C 26,1 C 58 % 1017,0 hPa 0,0 l/m 3,4 km/h (1 Bft) S-SO 161 0 min 0,000 mm 1,9 UV-I 322 W/m 15,2 C 24,0 C 8,0 km/h (2 Bft) 98,00 %
01.06.2017 16:30 24,0 C 26,1 C 60 % 1017,0 hPa 0,0 l/m 3,8 km/h (1 Bft) S 172 0 min 0,000 mm 1,9 UV-I 331 W/m 15,7 C 24,0 C 6,4 km/h (2 Bft) 97,37 %
01.06.2017 16:32 23,9 C 26,1 C 59 % 1017,0 hPa 0,0 l/m 3,6 km/h (1 Bft) SO 145 0 min 0,000 mm 1,9 UV-I 325 W/m 15,4 C 23,9 C 6,4 km/h (2 Bft) 96,43 %
01.06.2017 16:34 24,0 C 26,7 C 59 % 1017,0 hPa 0,0 l/m 5,3 km/h (1 Bft) S-SW 196 0 min 0,000 mm 1,9 UV-I 353 W/m 15,5 C 24,0 C 9,7 km/h (2 Bft) 97,56 %
01.06.2017 16:36 24,0 C 26,7 C 59 % 1016,9 hPa 0,0 l/m 4,7 km/h (1 Bft) SW 215 2 min 0,000 mm 2,0 UV-I 365 W/m 15,5 C 24,0 C 9,7 km/h (2 Bft) 94,34 %
01.06.2017 16:38 23,9 C 26,7 C 59 % 1017,0 hPa 0,0 l/m 5,9 km/h (2 Bft) S-SW 192 2 min 0,000 mm 2,0 UV-I 414 W/m 15,4 C 23,9 C 12,9 km/h (3 Bft) 94,87 %
01.06.2017 16:40 23,9 C 26,1 C 60 % 1016,9 hPa 0,0 l/m 3,6 km/h (1 Bft) S 171 2 min 0,000 mm 2,1 UV-I 498 W/m 15,7 C 23,9 C 6,4 km/h (2 Bft) 91,49 %
01.06.2017 16:42 24,0 C 26,7 C 59 % 1016,9 hPa 0,0 l/m 3,2 km/h (1 Bft) S-SO 160 2 min 0,000 mm 2,2 UV-I 520 W/m 15,5 C 24,0 C 8,0 km/h (2 Bft) 95,12 %
01.06.2017 16:44 24,2 C 26,7 C 60 % 1016,8 hPa 0,0 l/m 7,1 km/h (2 Bft) S 190 2 min 0,000 mm 2,3 UV-I 545 W/m 15,9 C 24,0 C 12,9 km/h (3 Bft) 93,55 %
01.06.2017 16:46 24,3 C 26,7 C 59 % 1016,8 hPa 0,0 l/m 6,8 km/h (2 Bft) S 173 2 min 0,000 mm 2,3 UV-I 595 W/m 15,8 C 24,2 C 11,3 km/h (2 Bft) 88,57 %
01.06.2017 16:48 24,4 C 26,7 C 58 % 1016,8 hPa 0,0 l/m 7,6 km/h (2 Bft) S-SW 198 2 min 0,000 mm 2,3 UV-I 573 W/m 15,6 C 24,1 C 14,5 km/h (3 Bft) 92,00 %
01.06.2017 16:50 24,3 C 26,7 C 57 % 1016,8 hPa 0,0 l/m 5,8 km/h (2 Bft) S-SW 194 2 min 0,000 mm 2,3 UV-I 577 W/m 15,2 C 24,3 C 11,3 km/h (2 Bft) 94,00 %
01.06.2017 16:52 24,3 C 26,7 C 58 % 1016,8 hPa 0,0 l/m 4,2 km/h (1 Bft) S-SO 165 2 min 0,000 mm 2,2 UV-I 570 W/m 15,5 C 24,3 C 9,7 km/h (2 Bft) 96,00 %
01.06.2017 16:54 24,5 C 26,7 C 56 % 1016,8 hPa 0,0 l/m 4,8 km/h (1 Bft) S-SW 211 2 min 0,000 mm 2,2 UV-I 559 W/m 15,1 C 24,5 C 9,7 km/h (2 Bft) 92,00 %
01.06.2017 16:56 24,6 C 26,7 C 57 % 1016,8 hPa 0,0 l/m 7,6 km/h (2 Bft) S 191 2 min 0,000 mm 2,1 UV-I 507 W/m 15,5 C 24,3 C 12,9 km/h (3 Bft) 91,43 %
01.06.2017 16:58 24,6 C 26,7 C 58 % 1016,8 hPa 0,0 l/m 6,0 km/h (2 Bft) S-SW 193 2 min 0,000 mm 2,1 UV-I 550 W/m 15,8 C 24,6 C 11,3 km/h (2 Bft) 92,00 %
01.06.2017 17:00 24,7 C 26,7 C 56 % 1016,7 hPa 0,0 l/m 3,4 km/h (1 Bft) S-SO 165 2 min 0,000 mm 2,1 UV-I 567 W/m 15,3 C 24,7 C 6,4 km/h (2 Bft) 96,00 %
01.06.2017 17:02 24,8 C 26,7 C 56 % 1016,7 hPa 0,0 l/m 5,2 km/h (1 Bft) S-SW 193 2 min 0,305 mm 2,1 UV-I 565 W/m 15,4 C 24,8 C 9,7 km/h (2 Bft) 95,12 %
01.06.2017 17:04 24,9 C 26,7 C 55 % 1016,7 hPa 0,0 l/m 7,3 km/h (2 Bft) S-SO 148 2 min 0,000 mm 2,1 UV-I 557 W/m 15,2 C 24,7 C 12,9 km/h (3 Bft) 92,45 %
01.06.2017 17:06 24,9 C 26,7 C 56 % 1016,7 hPa 0,0 l/m 3,6 km/h (1 Bft) S-SO 163 2 min 0,000 mm 2,0 UV-I 539 W/m 15,5 C 24,9 C 8,0 km/h (2 Bft) 95,12 %
01.06.2017 17:08 24,9 C 26,7 C 55 % 1016,7 hPa 0,0 l/m 5,9 km/h (2 Bft) SW 221 2 min 0,000 mm 2,0 UV-I 542 W/m 15,2 C 24,9 C 9,7 km/h (2 Bft) 97,87 %
01.06.2017 17:10 24,9 C 26,7 C 56 % 1016,7 hPa 0,0 l/m 6,8 km/h (2 Bft) SW 215 2 min 0,000 mm 2,0 UV-I 538 W/m 15,5 C 24,8 C 11,3 km/h (2 Bft) 92,00 %
01.06.2017 17:12 24,8 C 26,7 C 55 % 1016,7 hPa 0,0 l/m 3,7 km/h (1 Bft) S-SW 200 2 min 0,000 mm 1,9 UV-I 531 W/m 15,1 C 24,8 C 6,4 km/h (2 Bft) 94,00 %
01.06.2017 17:14 24,8 C 26,7 C 55 % 1016,7 hPa 0,0 l/m 7,1 km/h (2 Bft) S 186 2 min 0,000 mm 1,8 UV-I 520 W/m 15,1 C 24,6 C 9,7 km/h (2 Bft) 95,24 %
01.06.2017 17:16 24,9 C 26,7 C 56 % 1016,7 hPa 0,0 l/m 7,8 km/h (2 Bft) S-SW 207 2 min 0,000 mm 1,8 UV-I 506 W/m 15,5 C 24,5 C 14,5 km/h (3 Bft) 92,73 %
01.06.2017 17:18 24,9 C 26,7 C 55 % 1016,7 hPa 0,0 l/m 8,7 km/h (2 Bft) S 181 2 min 0,000 mm 1,7 UV-I 500 W/m 15,2 C 24,3 C 12,9 km/h (3 Bft) 97,44 %
01.06.2017 17:20 24,8 C 26,7 C 55 % 1016,7 hPa 0,0 l/m 4,3 km/h (1 Bft) S-SO 155 2 min 0,000 mm 1,7 UV-I 508 W/m 15,1 C 24,8 C 8,0 km/h (2 Bft) 92,86 %
01.06.2017 17:22 24,8 C 26,7 C 57 % 1016,7 hPa 0,0 l/m 6,7 km/h (2 Bft) S-SW 193 2 min 0,000 mm 1,6 UV-I 508 W/m 15,7 C 24,7 C 9,7 km/h (2 Bft) 98,70 %
01.06.2017 17:24 24,8 C 26,7 C 58 % 1016,7 hPa 0,0 l/m 7,0 km/h (2 Bft) SO 133 2 min 0,000 mm 1,5 UV-I 487 W/m 16,0 C 24,6 C 11,3 km/h (2 Bft) 94,00 %
01.06.2017 17:26 24,7 C 26,7 C 56 % 1016,7 hPa 0,0 l/m 7,5 km/h (2 Bft) S-SO 166 2 min 0,000 mm 1,4 UV-I 397 W/m 15,3 C 24,4 C 14,5 km/h (3 Bft) 94,74 %
01.06.2017 17:28 24,7 C 26,7 C 57 % 1016,7 hPa 0,0 l/m 4,2 km/h (1 Bft) S-SO 157 2 min 0,000 mm 1,4 UV-I 371 W/m 15,6 C 24,7 C 9,7 km/h (2 Bft) 94,34 %
01.06.2017 17:30 24,7 C 26,7 C 57 % 1016,7 hPa 0,0 l/m 4,4 km/h (1 Bft) S 184 2 min 0,000 mm 1,3 UV-I 320 W/m 15,6 C 24,7 C 8,0 km/h (2 Bft) 100,00 %
01.06.2017 17:32 24,6 C 26,7 C 59 % 1016,7 hPa 0,0 l/m 7,2 km/h (2 Bft) W-SW 238 2 min 0,000 mm 1,3 UV-I 303 W/m 16,0 C 24,4 C 14,5 km/h (3 Bft) 92,00 %
01.06.2017 17:34 24,4 C 26,7 C 57 % 1016,7 hPa 0,0 l/m 6,7 km/h (2 Bft) S 184 0 min 0,000 mm 1,2 UV-I 264 W/m 15,3 C 24,3 C 11,3 km/h (2 Bft) 93,18 %
01.06.2017 17:36 24,3 C 26,7 C 58 % 1016,7 hPa 0,0 l/m 4,2 km/h (1 Bft) S-SO 165 0 min 0,000 mm 1,1 UV-I 236 W/m 15,5 C 24,3 C 8,0 km/h (2 Bft) 94,00 %
01.06.2017 17:38 24,2 C 26,7 C 60 % 1016,7 hPa 0,0 l/m 6,3 km/h (2 Bft) S-SO 168 0 min 0,000 mm 1,1 UV-I 208 W/m 15,9 C 24,2 C 11,3 km/h (2 Bft) 96,00 %
01.06.2017 17:40 24,1 C 26,7 C 61 % 1016,7 hPa 0,0 l/m 4,3 km/h (1 Bft) S 172 0 min 0,000 mm 1,1 UV-I 263 W/m 16,1 C 24,1 C 9,7 km/h (2 Bft) 100,00 %
01.06.2017 17:42 24,0 C 26,7 C 60 % 1016,7 hPa 0,0 l/m 5,7 km/h (1 Bft) S 178 0 min 0,000 mm 1,1 UV-I 210 W/m 15,7 C 24,0 C 11,3 km/h (2 Bft) 100,00 %
01.06.2017 17:44 23,9 C 26,7 C 61 % 1016,7 hPa 0,0 l/m 4,5 km/h (1 Bft) S-SW 196 0 min 0,000 mm 1,0 UV-I 189 W/m 15,9 C 23,9 C 8,0 km/h (2 Bft) 100,00 %
01.06.2017 17:46 23,9 C 26,7 C 61 % 1016,6 hPa 0,0 l/m 6,5 km/h (2 Bft) S-SO 164 0 min 0,000 mm 1,0 UV-I 210 W/m 15,9 C 23,9 C 12,9 km/h (3 Bft) 90,24 %
01.06.2017 17:48 23,9 C 26,7 C 61 % 1016,6 hPa 0,0 l/m 4,4 km/h (1 Bft) S-SO 154 2 min 0,000 mm 1,1 UV-I 322 W/m 15,9 C 23,9 C 8,0 km/h (2 Bft) 95,24 %
01.06.2017 17:50 23,9 C 26,7 C 61 % 1016,6 hPa 0,0 l/m 4,5 km/h (1 Bft) S 169 2 min 0,000 mm 1,2 UV-I 378 W/m 15,9 C 23,9 C 9,7 km/h (2 Bft) 100,00 %
01.06.2017 17:52 24,1 C 26,7 C 62 % 1016,5 hPa 0,0 l/m 4,8 km/h (1 Bft) S-SW 194 2 min 0,000 mm 1,2 UV-I 408 W/m 16,4 C 24,1 C 9,7 km/h (2 Bft) 100,00 %
01.06.2017 17:54 24,3 C 26,7 C 60 % 1016,5 hPa 0,0 l/m 4,0 km/h (1 Bft) S-SO 148 2 min 0,000 mm 1,2 UV-I 433 W/m 16,0 C 24,3 C 8,0 km/h (2 Bft) 97,44 %
01.06.2017 17:56 24,6 C 26,7 C 59 % 1016,5 hPa 0,0 l/m 6,2 km/h (2 Bft) S-SO 161 2 min 0,000 mm 1,1 UV-I 430 W/m 16,0 C 24,6 C 12,9 km/h (3 Bft) 100,00 %
01.06.2017 17:58 24,5 C 26,7 C 59 % 1016,5 hPa 0,0 l/m 5,9 km/h (2 Bft) S-SO 152 2 min 0,000 mm 1,1 UV-I 363 W/m 15,9 C 24,5 C 8,0 km/h (2 Bft) 96,43 %
01.06.2017 18:00 24,5 C 26,7 C 60 % 1016,4 hPa 0,0 l/m 3,8 km/h (1 Bft) S-SO 160 2 min 0,279 mm 1,1 UV-I 338 W/m 16,2 C 24,5 C 8,0 km/h (2 Bft) 95,12 %
01.06.2017 18:02 24,5 C 26,7 C 60 % 1016,5 hPa 0,0 l/m 3,8 km/h (1 Bft) SW 216 2 min 0,000 mm 1,0 UV-I 372 W/m 16,2 C 24,5 C 6,4 km/h (2 Bft) 96,23 %
01.06.2017 18:04 24,6 C 26,7 C 60 % 1016,4 hPa 0,0 l/m 2,2 km/h (1 Bft) S-SW 193 2 min 0,000 mm 1,0 UV-I 352 W/m 16,3 C 24,6 C 11,3 km/h (2 Bft) 100,00 %
01.06.2017 18:06 24,6 C 26,7 C 57 % 1016,4 hPa 0,0 l/m 6,8 km/h (2 Bft) S-SO 161 2 min 0,000 mm 1,0 UV-I 352 W/m 15,5 C 24,5 C 11,3 km/h (2 Bft) 95,74 %
01.06.2017 18:08 24,6 C 26,7 C 58 % 1016,4 hPa 0,0 l/m 3,9 km/h (1 Bft) S 190 2 min 0,000 mm 1,0 UV-I 371 W/m 15,8 C 24,6 C 8,0 km/h (2 Bft) 98,11 %
01.06.2017 18:10 24,6 C 26,7 C 57 % 1016,3 hPa 0,0 l/m 8,6 km/h (2 Bft) S-SW 205 2 min 0,000 mm 1,0 UV-I 377 W/m 15,5 C 24,0 C 17,7 km/h (3 Bft) 98,00 %
01.06.2017 18:12 24,5 C 26,7 C 56 % 1016,3 hPa 0,0 l/m 7,3 km/h (2 Bft) S 180 2 min 0,000 mm 0,9 UV-I 384 W/m 15,1 C 24,3 C 9,7 km/h (2 Bft) 100,00 %
01.06.2017 18:14 24,6 C 26,7 C 57 % 1016,3 hPa 0,0 l/m 6,5 km/h (2 Bft) S-SW 211 2 min 0,000 mm 0,9 UV-I 373 W/m 15,5 C 24,6 C 11,3 km/h (2 Bft) 97,73 %
01.06.2017 18:16 24,7 C 26,7 C 56 % 1016,3 hPa 0,0 l/m 6,3 km/h (2 Bft) S 174 2 min 0,000 mm 0,9 UV-I 365 W/m 15,3 C 24,7 C 11,3 km/h (2 Bft) 97,87 %
01.06.2017 18:18 24,7 C 26,7 C 57 % 1016,3 hPa 0,0 l/m 3,3 km/h (1 Bft) S-SW 199 2 min 0,000 mm 0,8 UV-I 352 W/m 15,6 C 24,7 C 6,4 km/h (2 Bft) 100,00 %
01.06.2017 18:20 24,7 C 26,7 C 58 % 1016,2 hPa 0,0 l/m 5,8 km/h (2 Bft) S-SW 205 2 min 0,000 mm 0,8 UV-I 294 W/m 15,9 C 24,7 C 11,3 km/h (2 Bft) 98,11 %
01.06.2017 18:22 24,6 C 26,7 C 56 % 1016,2 hPa 0,0 l/m 7,8 km/h (2 Bft) SW 215 2 min 0,000 mm 0,8 UV-I 251 W/m 15,2 C 24,2 C 12,9 km/h (3 Bft) 100,00 %
01.06.2017 18:24 24,6 C 26,7 C 58 % 1016,2 hPa 0,0 l/m 8,5 km/h (2 Bft) S-SW 192 2 min 0,000 mm 0,8 UV-I 284 W/m 15,8 C 24,1 C 12,9 km/h (3 Bft) 95,12 %
01.06.2017 18:26 24,5 C 26,7 C 58 % 1016,2 hPa 0,0 l/m 6,2 km/h (2 Bft) S 187 2 min 0,000 mm 0,7 UV-I 286 W/m 15,7 C 24,5 C 14,5 km/h (3 Bft) 100,00 %
01.06.2017 18:28 24,4 C 26,7 C 58 % 1016,3 hPa 0,0 l/m 5,8 km/h (2 Bft) S-SO 168 2 min 0,000 mm 0,7 UV-I 281 W/m 15,6 C 24,4 C 11,3 km/h (2 Bft) 97,87 %
01.06.2017 18:30 24,4 C 26,7 C 58 % 1016,2 hPa 0,0 l/m 3,9 km/h (1 Bft) S-SW 204 2 min 0,000 mm 0,7 UV-I 267 W/m 15,6 C 24,4 C 8,0 km/h (2 Bft) 100,00 %
01.06.2017 18:32 24,3 C 26,7 C 59 % 1016,3 hPa 0,0 l/m 6,5 km/h (2 Bft) SW 217 2 min 0,000 mm 0,7 UV-I 261 W/m 15,8 C 24,3 C 9,7 km/h (2 Bft) 97,62 %
01.06.2017 18:34 24,2 C 26,7 C 59 % 1016,3 hPa 0,0 l/m 6,6 km/h (2 Bft) S-SW 193 2 min 0,000 mm 0,6 UV-I 225 W/m 15,7 C 24,2 C 11,3 km/h (2 Bft) 97,73 %
01.06.2017 18:36 24,1 C 26,7 C 59 % 1016,3 hPa 0,0 l/m 5,9 km/h (2 Bft) S-SO 162 2 min 0,000 mm 0,6 UV-I 208 W/m 15,6 C 24,1 C 11,3 km/h (2 Bft) 98,00 %
01.06.2017 18:38 24,0 C 26,7 C 60 % 1016,3 hPa 0,0 l/m 7,2 km/h (2 Bft) S 175 0 min 0,000 mm 0,6 UV-I 181 W/m 15,7 C 23,8 C 12,9 km/h (3 Bft) 96,23 %
01.06.2017 18:40 23,9 C 26,7 C 60 % 1016,3 hPa 0,0 l/m 6,4 km/h (2 Bft) S 182 0 min 0,000 mm 0,5 UV-I 164 W/m 15,7 C 23,9 C 11,3 km/h (2 Bft) 100,00 %
01.06.2017 18:42 23,8 C 26,7 C 60 % 1016,3 hPa 0,0 l/m 6,8 km/h (2 Bft) S 184 0 min 0,000 mm 0,5 UV-I 151 W/m 15,6 C 23,7 C 14,5 km/h (3 Bft) 94,00 %
01.06.2017 18:44 23,7 C 26,7 C 60 % 1016,3 hPa 0,0 l/m 7,0 km/h (2 Bft) S 176 0 min 0,000 mm 0,5 UV-I 136 W/m 15,5 C 23,5 C 14,5 km/h (3 Bft) 95,74 %
01.06.2017 18:46 23,7 C 26,7 C 61 % 1016,3 hPa 0,0 l/m 5,9 km/h (2 Bft) S-SO 164 0 min 0,000 mm 0,5 UV-I 136 W/m 15,7 C 23,7 C 11,3 km/h (2 Bft) 95,12 %
01.06.2017 18:48 23,6 C 26,7 C 61 % 1016,3 hPa 0,0 l/m 7,0 km/h (2 Bft) S-SO 157 0 min 0,000 mm 0,5 UV-I 139 W/m 15,6 C 23,4 C 11,3 km/h (2 Bft) 96,43 %
01.06.2017 18:50 23,6 C 26,7 C 60 % 1016,3 hPa 0,0 l/m 6,1 km/h (2 Bft) S 177 0 min 0,000 mm 0,2 UV-I 131 W/m 15,4 C 23,6 C 11,3 km/h (2 Bft) 97,56 %
01.06.2017 18:52 23,5 C 26,7 C 61 % 1016,3 hPa 0,0 l/m 6,8 km/h (2 Bft) S-SW 195 0 min 0,000 mm 0,0 UV-I 148 W/m 15,5 C 23,4 C 14,5 km/h (3 Bft) 98,00 %
01.06.2017 18:54 23,4 C 26,7 C 62 % 1016,3 hPa 0,0 l/m 5,0 km/h (1 Bft) S 173 2 min 0,000 mm 0,0 UV-I 167 W/m 15,7 C 23,4 C 8,0 km/h (2 Bft) 96,00 %
01.06.2017 18:56 23,4 C 26,7 C 63 % 1016,3 hPa 0,0 l/m 4,8 km/h (1 Bft) S-SO 161 2 min 0,000 mm 0,0 UV-I 191 W/m 15,9 C 23,4 C 9,7 km/h (2 Bft) 97,56 %
01.06.2017 18:58 23,4 C 26,7 C 63 % 1016,4 hPa 0,0 l/m 6,8 km/h (2 Bft) SW 216 2 min 0,000 mm 0,0 UV-I 177 W/m 15,9 C 23,3 C 12,9 km/h (3 Bft) 96,23 %
01.06.2017 19:00 23,4 C 26,7 C 62 % 1016,4 hPa 0,0 l/m 5,8 km/h (2 Bft) S-SW 198 2 min 0,000 mm 0,0 UV-I 165 W/m 15,7 C 23,4 C 9,7 km/h (2 Bft) 95,12 %
01.06.2017 19:02 23,4 C 26,7 C 62 % 1016,4 hPa 0,0 l/m 6,4 km/h (2 Bft) S-SW 204 2 min 0,204 mm 0,0 UV-I 166 W/m 15,7 C 23,4 C 8,0 km/h (2 Bft) 93,18 %
01.06.2017 19:04 23,4 C 26,7 C 62 % 1016,4 hPa 0,0 l/m 6,9 km/h (2 Bft) S-SW 207 2 min 0,000 mm 0,0 UV-I 153 W/m 15,7 C 23,3 C 11,3 km/h (2 Bft) 91,49 %
01.06.2017 19:06 23,4 C 26,7 C 63 % 1016,4 hPa 0,0 l/m 6,4 km/h (2 Bft) S-SW 210 0 min 0,000 mm 0,0 UV-I 146 W/m 15,9 C 23,4 C 12,9 km/h (3 Bft) 96,23 %
01.06.2017 19:08 23,4 C 26,7 C 63 % 1016,4 hPa 0,0 l/m 6,4 km/h (2 Bft) SW 214 0 min 0,000 mm 0,0 UV-I 138 W/m 15,9 C 23,4 C 12,9 km/h (3 Bft) 94,44 %
01.06.2017 19:10 23,3 C 26,7 C 63 % 1016,4 hPa 0,0 l/m 7,2 km/h (2 Bft) S-SW 208 0 min 0,000 mm 0,0 UV-I 130 W/m 15,9 C 23,1 C 11,3 km/h (2 Bft) 96,36 %
01.06.2017 19:12 23,3 C 26,7 C 64 % 1016,5 hPa 0,0 l/m 6,9 km/h (2 Bft) S 184 0 min 0,000 mm 0,0 UV-I 133 W/m 16,1 C 23,1 C 11,3 km/h (2 Bft) 100,00 %
01.06.2017 19:14 23,2 C 26,7 C 64 % 1016,4 hPa 0,0 l/m 8,1 km/h (2 Bft) S-SW 192 2 min 0,000 mm 0,0 UV-I 136 W/m 16,0 C 22,7 C 14,5 km/h (3 Bft) 100,00 %
01.06.2017 19:16 23,1 C 26,7 C 64 % 1016,5 hPa 0,0 l/m 7,3 km/h (2 Bft) S-SW 193 2 min 0,000 mm 0,0 UV-I 143 W/m 15,9 C 22,8 C 14,5 km/h (3 Bft) 97,56 %
01.06.2017 19:18 23,1 C 26,7 C 65 % 1016,4 hPa 0,0 l/m 6,4 km/h (2 Bft) S 177 2 min 0,000 mm 0,0 UV-I 144 W/m 16,2 C 23,1 C 11,3 km/h (2 Bft) 98,21 %
01.06.2017 19:20 22,9 C 26,7 C 66 % 1016,5 hPa 0,0 l/m 5,5 km/h (1 Bft) S 177 2 min 0,000 mm 0,0 UV-I 128 W/m 16,2 C 22,9 C 11,3 km/h (2 Bft) 94,29 %
01.06.2017 19:22 22,9 C 26,7 C 66 % 1016,4 hPa 0,0 l/m 5,5 km/h (1 Bft) S-SW 211 0 min 0,000 mm 0,0 UV-I 118 W/m 16,2 C 22,9 C 9,7 km/h (2 Bft) 100,00 %
01.06.2017 19:24 22,9 C 26,7 C 67 % 1016,5 hPa 0,0 l/m 6,5 km/h (2 Bft) S-SW 205 0 min 0,000 mm 0,0 UV-I 119 W/m 16,4 C 22,9 C 12,9 km/h (3 Bft) 100,00 %
01.06.2017 19:26 22,9 C 26,7 C 68 % 1016,5 hPa 0,0 l/m 7,3 km/h (2 Bft) SW 215 0 min 0,000 mm 0,0 UV-I 107 W/m 16,7 C 22,6 C 11,3 km/h (2 Bft) 97,56 %
01.06.2017 19:28 22,8 C 26,7 C 68 % 1016,5 hPa 0,0 l/m 5,2 km/h (1 Bft) SW 233 0 min 0,000 mm 0,0 UV-I 97 W/m 16,6 C 22,8 C 9,7 km/h (2 Bft) 100,00 %
01.06.2017 19:30 22,8 C 26,7 C 68 % 1016,5 hPa 0,0 l/m 5,1 km/h (1 Bft) SW 226 0 min 0,000 mm 0,0 UV-I 89 W/m 16,6 C 22,8 C 9,7 km/h (2 Bft) 100,00 %
01.06.2017 19:32 22,8 C 26,7 C 69 % 1016,5 hPa 0,0 l/m 5,9 km/h (2 Bft) S-SW 194 0 min 0,000 mm 0,0 UV-I 82 W/m 16,8 C 22,8 C 9,7 km/h (2 Bft) 100,00 %
01.06.2017 19:34 22,7 C 26,7 C 68 % 1016,5 hPa 0,0 l/m 5,7 km/h (1 Bft) W-SW 238 0 min 0,000 mm 0,0 UV-I 78 W/m 16,5 C 22,7 C 8,0 km/h (2 Bft) 97,37 %
01.06.2017 19:36 22,7 C 26,7 C 69 % 1016,5 hPa 0,0 l/m 5,7 km/h (1 Bft) SW 215 0 min 0,000 mm 0,0 UV-I 74 W/m 16,7 C 22,7 C 9,7 km/h (2 Bft) 98,11 %
01.06.2017 19:38 22,6 C 26,7 C 69 % 1016,5 hPa 0,0 l/m 5,8 km/h (2 Bft) SW 216 0 min 0,000 mm 0,0 UV-I 71 W/m 16,6 C 22,6 C 9,7 km/h (2 Bft) 95,12 %
01.06.2017 19:40 22,6 C 26,7 C 70 % 1016,6 hPa 0,0 l/m 5,9 km/h (2 Bft) SW 218 0 min 0,000 mm 0,0 UV-I 72 W/m 16,8 C 22,6 C 9,7 km/h (2 Bft) 100,00 %
01.06.2017 19:42 22,5 C 26,7 C 71 % 1016,5 hPa 0,0 l/m 7,2 km/h (2 Bft) S-SW 205 0 min 0,000 mm 0,0 UV-I 78 W/m 17,0 C 22,2 C 11,3 km/h (2 Bft) 94,34 %
01.06.2017 19:44 22,4 C 26,7 C 70 % 1016,5 hPa 0,0 l/m 7,4 km/h (2 Bft) SW 219 0 min 0,000 mm 0,0 UV-I 85 W/m 16,7 C 22,1 C 14,5 km/h (3 Bft) 100,00 %
01.06.2017 19:46 22,4 C 26,7 C 71 % 1016,5 hPa 0,0 l/m 6,5 km/h (2 Bft) S-SW 203 0 min 0,000 mm 0,0 UV-I 85 W/m 16,9 C 22,4 C 11,3 km/h (2 Bft) 96,00 %
01.06.2017 19:48 22,4 C 26,7 C 70 % 1016,6 hPa 0,0 l/m 7,3 km/h (2 Bft) S-SW 205 0 min 0,000 mm 0,0 UV-I 80 W/m 16,7 C 22,1 C 12,9 km/h (3 Bft) 95,74 %
01.06.2017 19:50 22,4 C 26,7 C 71 % 1016,5 hPa 0,0 l/m 5,7 km/h (1 Bft) W-SW 244 0 min 0,000 mm 0,0 UV-I 73 W/m 16,9 C 22,4 C 8,0 km/h (2 Bft) 100,00 %
01.06.2017 19:52 22,3 C 26,1 C 70 % 1016,5 hPa 0,0 l/m 5,2 km/h (1 Bft) SW 226 0 min 0,000 mm 0,0 UV-I 67 W/m 16,6 C 22,3 C 9,7 km/h (2 Bft) 96,36 %
01.06.2017 19:54 22,3 C 26,1 C 71 % 1016,5 hPa 0,0 l/m 6,7 km/h (2 Bft) S-SW 211 0 min 0,000 mm 0,0 UV-I 64 W/m 16,8 C 22,2 C 8,0 km/h (2 Bft) 97,73 %
01.06.2017 19:56 22,3 C 26,7 C 71 % 1016,5 hPa 0,0 l/m 5,4 km/h (1 Bft) SW 221 0 min 0,000 mm 0,0 UV-I 63 W/m 16,8 C 22,3 C 8,0 km/h (2 Bft) 92,31 %
01.06.2017 19:58 22,2 C 26,1 C 71 % 1016,5 hPa 0,0 l/m 6,6 km/h (2 Bft) S-SW 211 0 min 0,000 mm 0,0 UV-I 63 W/m 16,7 C 22,1 C 9,7 km/h (2 Bft) 98,21 %
01.06.2017 20:00 22,2 C 26,1 C 72 % 1016,4 hPa 0,0 l/m 6,0 km/h (2 Bft) SW 226 0 min 0,000 mm 0,0 UV-I 65 W/m 16,9 C 22,2 C 8,0 km/h (2 Bft) 97,56 %
01.06.2017 20:02 22,1 C 26,1 C 72 % 1016,4 hPa 0,0 l/m 4,0 km/h (1 Bft) SW 235 0 min 0,101 mm 0,0 UV-I 65 W/m 16,8 C 22,1 C 6,4 km/h (2 Bft) 96,23 %
01.06.2017 20:04 22,1 C 26,1 C 72 % 1016,5 hPa 0,0 l/m 4,3 km/h (1 Bft) S-SW 212 2 min 0,000 mm 0,0 UV-I 67 W/m 16,8 C 22,1 C 6,4 km/h (2 Bft) 93,62 %
01.06.2017 20:06 22,0 C 26,1 C 73 % 1016,5 hPa 0,0 l/m 4,7 km/h (1 Bft) S-SW 205 2 min 0,000 mm 0,0 UV-I 69 W/m 16,9 C 22,0 C 8,0 km/h (2 Bft) 95,74 %
01.06.2017 20:08 21,9 C 26,1 C 73 % 1016,4 hPa 0,0 l/m 3,4 km/h (1 Bft) S-SW 205 2 min 0,000 mm 0,0 UV-I 69 W/m 16,8 C 21,9 C 6,4 km/h (2 Bft) 94,74 %
01.06.2017 20:10 21,9 C 26,1 C 73 % 1016,5 hPa 0,0 l/m 5,2 km/h (1 Bft) S-SW 207 2 min 0,000 mm 0,0 UV-I 67 W/m 16,8 C 21,9 C 9,7 km/h (2 Bft) 98,00 %
01.06.2017 20:12 21,9 C 26,1 C 73 % 1016,5 hPa 0,0 l/m 4,4 km/h (1 Bft) S-SW 209 2 min 0,000 mm 0,0 UV-I 64 W/m 16,8 C 21,9 C 8,0 km/h (2 Bft) 95,74 %
01.06.2017 20:14 21,9 C 26,1 C 73 % 1016,5 hPa 0,0 l/m 4,2 km/h (1 Bft) S-SW 211 2 min 0,000 mm 0,0 UV-I 61 W/m 16,8 C 21,9 C 6,4 km/h (2 Bft) 97,56 %
01.06.2017 20:16 21,8 C 26,1 C 73 % 1016,5 hPa 0,0 l/m 4,6 km/h (1 Bft) S-SW 209 2 min 0,000 mm 0,0 UV-I 59 W/m 16,7 C 21,8 C 6,4 km/h (2 Bft) 94,00 %
01.06.2017 20:18 21,8 C 26,1 C 73 % 1016,6 hPa 0,0 l/m 5,6 km/h (1 Bft) S-SW 203 2 min 0,000 mm 0,0 UV-I 56 W/m 16,7 C 21,8 C 9,7 km/h (2 Bft) 92,00 %
01.06.2017 20:20 21,7 C 26,1 C 74 % 1016,6 hPa 0,0 l/m 5,4 km/h (1 Bft) SW 214 2 min 0,000 mm 0,0 UV-I 53 W/m 16,9 C 21,7 C 8,0 km/h (2 Bft) 96,00 %
01.06.2017 20:22 21,7 C 26,1 C 74 % 1016,6 hPa 0,0 l/m 4,7 km/h (1 Bft) SW 227 2 min 0,000 mm 0,0 UV-I 51 W/m 16,9 C 21,7 C 8,0 km/h (2 Bft) 94,74 %
01.06.2017 20:24 21,6 C 26,1 C 74 % 1016,7 hPa 0,0 l/m 6,2 km/h (2 Bft) S-SW 207 2 min 0,000 mm 0,0 UV-I 50 W/m 16,8 C 21,6 C 9,7 km/h (2 Bft) 94,00 %
01.06.2017 20:26 21,6 C 26,1 C 74 % 1016,7 hPa 0,0 l/m 6,7 km/h (2 Bft) S-SW 196 2 min 0,000 mm 0,0 UV-I 49 W/m 16,8 C 21,5 C 11,3 km/h (2 Bft) 98,11 %
01.06.2017 20:28 21,6 C 26,1 C 74 % 1016,7 hPa 0,0 l/m 6,4 km/h (2 Bft) S-SW 212 2 min 0,000 mm 0,0 UV-I 47 W/m 16,8 C 21,6 C 8,0 km/h (2 Bft) 95,12 %
01.06.2017 20:30 21,5 C 26,1 C 75 % 1016,7 hPa 0,0 l/m 5,0 km/h (1 Bft) SW 235 2 min 0,000 mm 0,0 UV-I 44 W/m 16,9 C 21,5 C 8,0 km/h (2 Bft) 96,00 %
01.06.2017 20:33 21,4 C 26,1 C 75 % 1016,8 hPa 0,0 l/m 5,9 km/h (2 Bft) SW 221 3 min 0,000 mm 0,0 UV-I 40 W/m 16,8 C 21,4 C 11,3 km/h (2 Bft) 95,77 %
01.06.2017 20:34 21,4 C 26,1 C 75 % 1016,8 hPa 0,0 l/m 7,0 km/h (2 Bft) SW 221 1 min 0,000 mm 0,0 UV-I 38 W/m 16,8 C 21,2 C 8,0 km/h (2 Bft) 91,67 %
01.06.2017 20:36 21,4 C 26,1 C 75 % 1016,8 hPa 0,0 l/m 4,6 km/h (1 Bft) S-SW 195 2 min 0,000 mm 0,0 UV-I 36 W/m 16,8 C 21,4 C 6,4 km/h (2 Bft) 94,00 %
01.06.2017 20:39 21,3 C 26,1 C 75 % 1016,8 hPa 0,0 l/m 5,1 km/h (1 Bft) S-SW 194 3 min 0,000 mm 0,0 UV-I 32 W/m 16,7 C 21,3 C 9,7 km/h (2 Bft) 93,44 %
01.06.2017 20:40 21,3 C 26,1 C 75 % 1016,8 hPa 0,0 l/m 6,1 km/h (2 Bft) SW 230 1 min 0,000 mm 0,0 UV-I 30 W/m 16,7 C 21,3 C 8,0 km/h (2 Bft) 96,67 %
01.06.2017 20:44 21,2 C 26,1 C 76 % 1016,8 hPa 0,0 l/m 4,8 km/h (1 Bft) SW 223 0 min 0,000 mm 0,0 UV-I 14 W/m 16,8 C 21,2 C 8,0 km/h (2 Bft) 93,18 %
01.06.2017 20:46 21,2 C 26,1 C 76 % 1016,8 hPa 0,0 l/m 4,2 km/h (1 Bft) SW 227 0 min 0,000 mm 0,0 UV-I 9 W/m 16,8 C 21,2 C 6,4 km/h (2 Bft) 91,49 %
01.06.2017 20:49 21,2 C 26,1 C 76 % 1016,8 hPa 0,0 l/m 3,5 km/h (1 Bft) SW 227 0 min 0,000 mm 0,0 UV-I 1 W/m 16,8 C 21,2 C 4,8 km/h (1 Bft) 95,89 %
01.06.2017 20:50 21,2 C 26,1 C 76 % 1016,8 hPa 0,0 l/m 4,6 km/h (1 Bft) SW 220 0 min 0,000 mm 0,0 UV-I 21 W/m 16,8 C 21,2 C 6,4 km/h (2 Bft) 91,67 %
01.06.2017 20:54 21,1 C 26,1 C 76 % 1016,8 hPa 0,0 l/m 4,1 km/h (1 Bft) SW 214 0 min 0,000 mm 0,0 UV-I 21 W/m 16,7 C 21,1 C 6,4 km/h (2 Bft) 94,51 %
01.06.2017 20:56 20,9 C 26,1 C 77 % 1016,8 hPa 0,0 l/m 5,6 km/h (1 Bft) SW 219 0 min 0,000 mm 0,0 UV-I 21 W/m 16,7 C 20,9 C 8,0 km/h (2 Bft) 92,68 %
01.06.2017 20:59 20,9 C 26,1 C 77 % 1016,8 hPa 0,0 l/m 3,9 km/h (1 Bft) SW 219 0 min 0,000 mm 0,0 UV-I 20 W/m 16,7 C 20,9 C 6,4 km/h (2 Bft) 93,75 %
01.06.2017 21:00 20,9 C 26,1 C 77 % 1016,8 hPa 0,0 l/m 4,5 km/h (1 Bft) SW 219 0 min 0,000 mm 0,0 UV-I 19 W/m 16,7 C 20,9 C 6,4 km/h (2 Bft) 92,31 %
01.06.2017 21:04 20,8 C 26,1 C 77 % 1016,8 hPa 0,0 l/m 4,2 km/h (1 Bft) SW 219 0 min 0,051 mm 0,0 UV-I 17 W/m 16,6 C 20,8 C 6,4 km/h (2 Bft) 95,45 %
01.06.2017 21:06 20,7 C 26,1 C 78 % 1016,7 hPa 0,0 l/m 4,2 km/h (1 Bft) SW 219 0 min 0,000 mm 0,0 UV-I 13 W/m 16,7 C 20,7 C 6,4 km/h (2 Bft) 98,11 %
01.06.2017 21:09 20,7 C 26,1 C 78 % 1016,7 hPa 0,0 l/m 3,2 km/h (1 Bft) SW 219 0 min 0,000 mm 0,0 UV-I 11 W/m 16,7 C 20,7 C 6,4 km/h (2 Bft) 95,16 %
01.06.2017 21:10 20,6 C 26,1 C 78 % 1016,7 hPa 0,0 l/m 2,8 km/h (1 Bft) SW 219 0 min 0,000 mm 0,0 UV-I 9 W/m 16,6 C 20,6 C 4,8 km/h (1 Bft) 100,00 %
01.06.2017 21:14 20,5 C 26,1 C 78 % 1016,7 hPa 0,0 l/m 3,4 km/h (1 Bft) SW 219 0 min 0,000 mm 0,0 UV-I 0 W/m 16,5 C 20,5 C 6,4 km/h (2 Bft) 98,00 %
01.06.2017 21:16 20,4 C 26,1 C 79 % 1016,7 hPa 0,0 l/m 3,4 km/h (1 Bft) SW 219 0 min 0,000 mm 0,0 UV-I 5 W/m 16,6 C 20,4 C 6,4 km/h (2 Bft) 97,87 %
01.06.2017 21:19 20,4 C 26,1 C 79 % 1016,7 hPa 0,0 l/m 3,6 km/h (1 Bft) SW 219 0 min 0,000 mm 0,0 UV-I 3 W/m 16,6 C 20,4 C 6,4 km/h (2 Bft) 97,26 %
01.06.2017 21:20 20,4 C 26,1 C 79 % 1016,7 hPa 0,0 l/m 4,3 km/h (1 Bft) SW 219 0 min 0,000 mm 0,0 UV-I 0 W/m 16,6 C 20,4 C 6,4 km/h (2 Bft) 100,00 %
01.06.2017 21:24 20,3 C 26,1 C 79 % 1016,8 hPa 0,0 l/m 3,7 km/h (1 Bft) SW 219 0 min 0,000 mm 0,0 UV-I 0 W/m 16,5 C 20,3 C 4,8 km/h (1 Bft) 99,00 %
01.06.2017 21:26 20,3 C 26,1 C 79 % 1016,7 hPa 0,0 l/m 4,5 km/h (1 Bft) SW 219 0 min 0,000 mm 0,0 UV-I 0 W/m 16,5 C 20,3 C 6,4 km/h (2 Bft) 98,00 %
01.06.2017 21:29 20,3 C 26,1 C 80 % 1016,8 hPa 0,0 l/m 4,2 km/h (1 Bft) SW 219 0 min 0,000 mm 0,0 UV-I 0 W/m 16,7 C 20,3 C 6,4 km/h (2 Bft) 98,57 %
01.06.2017 21:30 20,3 C 26,1 C 80 % 1016,8 hPa 0,0 l/m 2,2 km/h (1 Bft) SW 219 0 min 0,000 mm 0,0 UV-I 0 W/m 16,7 C 20,3 C 4,8 km/h (1 Bft) 100,00 %
01.06.2017 21:38 20,2 C 26,1 C 80 % 1016,8 hPa 0,0 l/m 3,4 km/h (1 Bft) SW 219 0 min 0,000 mm 0,0 UV-I 0 W/m 16,6 C 20,2 C 4,8 km/h (1 Bft) 91,49 %
01.06.2017 21:40 20,2 C 26,1 C 81 % 1016,8 hPa 0,0 l/m 3,9 km/h (1 Bft) SW 219 0 min 0,000 mm 0,0 UV-I 0 W/m 16,8 C 20,2 C 4,8 km/h (1 Bft) 96,00 %
01.06.2017 21:42 20,1 C 26,1 C 81 % 1016,9 hPa 0,0 l/m 3,5 km/h (1 Bft) SW 219 0 min 0,000 mm 0,0 UV-I 0 W/m 16,7 C 20,1 C 4,8 km/h (1 Bft) 97,37 %
01.06.2017 21:44 20,1 C 26,1 C 81 % 1016,8 hPa 0,0 l/m 3,7 km/h (1 Bft) SW 219 0 min 0,000 mm 0,0 UV-I 0 W/m 16,7 C 20,1 C 4,8 km/h (1 Bft) 93,62 %
01.06.2017 21:46 20,1 C 26,1 C 81 % 1016,8 hPa 0,0 l/m 3,8 km/h (1 Bft) SW 219 0 min 0,000 mm 0,0 UV-I 0 W/m 16,7 C 20,1 C 4,8 km/h (1 Bft) 96,23 %
01.06.2017 21:48 20,1 C 26,1 C 81 % 1016,8 hPa 0,0 l/m 3,8 km/h (1 Bft) SW 219 0 min 0,000 mm 0,0 UV-I 0 W/m 16,7 C 20,1 C 6,4 km/h (2 Bft) 100,00 %
01.06.2017 21:50 20,0 C 26,1 C 82 % 1016,8 hPa 0,0 l/m 4,2 km/h (1 Bft) SW 219 0 min 0,000 mm 0,0 UV-I 0 W/m 16,8 C 20,0 C 6,4 km/h (2 Bft) 100,00 %
01.06.2017 21:52 20,0 C 26,1 C 82 % 1016,8 hPa 0,0 l/m 4,7 km/h (1 Bft) SW 219 0 min 0,000 mm 0,0 UV-I 0 W/m 16,8 C 20,0 C 6,4 km/h (2 Bft) 95,74 %
01.06.2017 21:54 19,9 C 26,1 C 82 % 1016,8 hPa 0,0 l/m 3,5 km/h (1 Bft) SW 219 0 min 0,000 mm 0,0 UV-I 0 W/m 16,7 C 19,9 C 4,8 km/h (1 Bft) 94,34 %
01.06.2017 21:56 19,9 C 26,1 C 82 % 1016,8 hPa 0,0 l/m 2,5 km/h (1 Bft) SW 219 0 min 0,000 mm 0,0 UV-I 0 W/m 16,7 C 19,9 C 4,8 km/h (1 Bft) 100,00 %
01.06.2017 21:58 19,8 C 26,1 C 82 % 1016,8 hPa 0,0 l/m 3,1 km/h (1 Bft) SW 219 0 min 0,000 mm 0,0 UV-I 0 W/m 16,6 C 19,8 C 4,8 km/h (1 Bft) 96,23 %
01.06.2017 22:00 19,8 C 26,1 C 83 % 1016,8 hPa 0,0 l/m 2,0 km/h (1 Bft) SW 219 0 min 0,025 mm 0,0 UV-I 0 W/m 16,8 C 19,8 C 4,8 km/h (1 Bft) 95,74 %
01.06.2017 22:02 19,8 C 26,1 C 83 % 1016,8 hPa 0,0 l/m 3,7 km/h (1 Bft) SW 219 0 min 0,000 mm 0,0 UV-I 0 W/m 16,8 C 19,8 C 4,8 km/h (1 Bft) 100,00 %
01.06.2017 22:04 19,8 C 26,1 C 83 % 1016,8 hPa 0,0 l/m 4,0 km/h (1 Bft) SW 219 0 min 0,000 mm 0,0 UV-I 0 W/m 16,8 C 19,8 C 4,8 km/h (1 Bft) 95,74 %
01.06.2017 22:06 19,7 C 26,1 C 83 % 1016,8 hPa 0,0 l/m 4,4 km/h (1 Bft) SW 219 0 min 0,000 mm 0,0 UV-I 0 W/m 16,7 C 19,7 C 6,4 km/h (2 Bft) 100,00 %
01.06.2017 22:08 19,7 C 26,1 C 83 % 1016,8 hPa 0,0 l/m 3,8 km/h (1 Bft) SW 219 0 min 0,000 mm 0,0 UV-I 0 W/m 16,7 C 19,7 C 6,4 km/h (2 Bft) 98,00 %
01.06.2017 22:10 19,7 C 26,1 C 83 % 1016,8 hPa 0,0 l/m 4,0 km/h (1 Bft) SW 219 0 min 0,000 mm 0,0 UV-I 0 W/m 16,7 C 19,7 C 6,4 km/h (2 Bft) 92,31 %
01.06.2017 22:12 19,6 C 26,1 C 83 % 1016,8 hPa 0,0 l/m 3,4 km/h (1 Bft) SW 219 0 min 0,000 mm 0,0 UV-I 0 W/m 16,6 C 19,6 C 6,4 km/h (2 Bft) 98,00 %
01.06.2017 22:14 19,6 C 26,1 C 84 % 1016,8 hPa 0,0 l/m 3,6 km/h (1 Bft) SW 219 0 min 0,000 mm 0,0 UV-I 0 W/m 16,8 C 19,6 C 6,4 km/h (2 Bft) 96,23 %
01.06.2017 22:16 19,6 C 26,1 C 84 % 1016,9 hPa 0,0 l/m 3,7 km/h (1 Bft) SW 218 0 min 0,000 mm 0,0 UV-I 0 W/m 16,8 C 19,6 C 4,8 km/h (1 Bft) 96,00 %
01.06.2017 22:18 19,6 C 26,1 C 84 % 1016,9 hPa 0,0 l/m 3,2 km/h (1 Bft) SW 218 0 min 0,000 mm 0,0 UV-I 0 W/m 16,8 C 19,6 C 6,4 km/h (2 Bft) 100,00 %
01.06.2017 22:20 19,6 C 26,1 C 84 % 1016,9 hPa 0,0 l/m 1,6 km/h (1 Bft) SW 218 0 min 0,000 mm 0,0 UV-I 0 W/m 16,8 C 19,6 C 3,2 km/h (1 Bft) 98,00 %
01.06.2017 22:22 19,6 C 26,1 C 84 % 1016,9 hPa 0,0 l/m 4,3 km/h (1 Bft) SW 218 0 min 0,000 mm 0,0 UV-I 0 W/m 16,8 C 19,6 C 6,4 km/h (2 Bft) 96,00 %
01.06.2017 22:24 19,6 C 26,1 C 84 % 1017,0 hPa 0,0 l/m 3,1 km/h (1 Bft) SW 218 0 min 0,000 mm 0,0 UV-I 0 W/m 16,8 C 19,6 C 4,8 km/h (1 Bft) 97,37 %
01.06.2017 22:26 19,6 C 26,1 C 84 % 1017,0 hPa 0,0 l/m 3,2 km/h (1 Bft) SW 218 0 min 0,000 mm 0,0 UV-I 0 W/m 16,8 C 19,6 C 6,4 km/h (2 Bft) 100,00 %
01.06.2017 22:28 19,6 C 26,1 C 84 % 1017,0 hPa 0,0 l/m 3,6 km/h (1 Bft) SW 218 0 min 0,000 mm 0,0 UV-I 0 W/m 16,8 C 19,6 C 4,8 km/h (1 Bft) 97,73 %
01.06.2017 22:30 19,5 C 26,1 C 85 % 1017,0 hPa 0,0 l/m 3,1 km/h (1 Bft) SW 218 0 min 0,000 mm 0,0 UV-I 0 W/m 16,9 C 19,5 C 4,8 km/h (1 Bft) 98,00 %
01.06.2017 22:32 19,5 C 26,1 C 85 % 1017,0 hPa 0,0 l/m 2,9 km/h (1 Bft) SW 218 0 min 0,000 mm 0,0 UV-I 0 W/m 16,9 C 19,5 C 4,8 km/h (1 Bft) 94,34 %
01.06.2017 22:34 19,4 C 26,1 C 85 % 1017,0 hPa 0,0 l/m 3,1 km/h (1 Bft) S-SW 206 0 min 0,000 mm 0,0 UV-I 0 W/m 16,8 C 19,4 C 4,8 km/h (1 Bft) 97,73 %
01.06.2017 22:36 19,4 C 26,1 C 85 % 1017,1 hPa 0,0 l/m 3,1 km/h (1 Bft) S-SW 206 0 min 0,000 mm 0,0 UV-I 0 W/m 16,8 C 19,4 C 4,8 km/h (1 Bft) 89,36 %
01.06.2017 22:38 19,4 C 26,1 C 85 % 1017,1 hPa 0,0 l/m 4,3 km/h (1 Bft) S-SW 206 0 min 0,000 mm 0,0 UV-I 0 W/m 16,8 C 19,4 C 8,0 km/h (2 Bft) 96,00 %
01.06.2017 22:40 19,4 C 26,1 C 85 % 1017,1 hPa 0,0 l/m 4,1 km/h (1 Bft) S 187 0 min 0,000 mm 0,0 UV-I 0 W/m 16,8 C 19,4 C 6,4 km/h (2 Bft) 89,47 %
01.06.2017 22:42 19,5 C 26,1 C 85 % 1017,1 hPa 0,0 l/m 5,1 km/h (1 Bft) S-SW 193 0 min 0,000 mm 0,0 UV-I 0 W/m 16,9 C 19,5 C 8,0 km/h (2 Bft) 97,44 %
01.06.2017 22:44 19,5 C 26,1 C 85 % 1017,1 hPa 0,0 l/m 4,8 km/h (1 Bft) S-SW 198 0 min 0,000 mm 0,0 UV-I 0 W/m 16,9 C 19,5 C 8,0 km/h (2 Bft) 96,15 %
01.06.2017 22:46 19,5 C 26,1 C 85 % 1017,1 hPa 0,0 l/m 4,1 km/h (1 Bft) S-SW 198 0 min 0,000 mm 0,0 UV-I 0 W/m 16,9 C 19,5 C 6,4 km/h (2 Bft) 96,23 %
01.06.2017 22:48 19,5 C 26,1 C 85 % 1017,1 hPa 0,0 l/m 4,2 km/h (1 Bft) S-SW 198 0 min 0,000 mm 0,0 UV-I 0 W/m 16,9 C 19,5 C 6,4 km/h (2 Bft) 96,00 %
01.06.2017 22:50 19,4 C 26,1 C 85 % 1017,1 hPa 0,0 l/m 4,4 km/h (1 Bft) S-SW 198 0 min 0,000 mm 0,0 UV-I 0 W/m 16,8 C 19,4 C 6,4 km/h (2 Bft) 97,87 %
01.06.2017 22:52 19,4 C 26,1 C 85 % 1017,0 hPa 0,0 l/m 4,2 km/h (1 Bft) S-SW 202 0 min 0,000 mm 0,0 UV-I 0 W/m 16,8 C 19,4 C 8,0 km/h (2 Bft) 92,31 %
01.06.2017 22:54 19,4 C 26,1 C 85 % 1017,1 hPa 0,0 l/m 3,2 km/h (1 Bft) S-SW 202 0 min 0,000 mm 0,0 UV-I 0 W/m 16,8 C 19,4 C 4,8 km/h (1 Bft) 98,00 %
01.06.2017 22:56 19,3 C 26,1 C 85 % 1017,1 hPa 0,0 l/m 3,8 km/h (1 Bft) S-SW 202 0 min 0,000 mm 0,0 UV-I 0 W/m 16,7 C 19,3 C 4,8 km/h (1 Bft) 97,87 %
01.06.2017 22:58 19,3 C 26,1 C 85 % 1017,1 hPa 0,0 l/m 3,3 km/h (1 Bft) S-SW 194 0 min 0,000 mm 0,0 UV-I 0 W/m 16,7 C 19,3 C 8,0 km/h (2 Bft) 98,00 %
01.06.2017 23:00 19,3 C 26,1 C 85 % 1017,1 hPa 0,0 l/m 4,7 km/h (1 Bft) S-SW 206 0 min 0,026 mm 0,0 UV-I 0 W/m 16,7 C 19,3 C 6,4 km/h (2 Bft) 94,00 %
01.06.2017 23:02 19,3 C 26,1 C 85 % 1017,1 hPa 0,0 l/m 3,2 km/h (1 Bft) S-SW 205 0 min 0,000 mm 0,0 UV-I 0 W/m 16,7 C 19,3 C 4,8 km/h (1 Bft) 97,37 %
01.06.2017 23:04 19,3 C 26,1 C 85 % 1017,1 hPa 0,0 l/m 2,7 km/h (1 Bft) S-SW 205 0 min 0,000 mm 0,0 UV-I 0 W/m 16,7 C 19,3 C 4,8 km/h (1 Bft) 95,74 %
01.06.2017 23:06 19,3 C 26,1 C 85 % 1017,1 hPa 0,0 l/m 3,5 km/h (1 Bft) S-SW 205 0 min 0,000 mm 0,0 UV-I 0 W/m 16,7 C 19,3 C 6,4 km/h (2 Bft) 92,45 %
01.06.2017 23:08 19,3 C 26,1 C 85 % 1017,1 hPa 0,0 l/m 3,3 km/h (1 Bft) S-SW 205 0 min 0,000 mm 0,0 UV-I 0 W/m 16,7 C 19,3 C 4,8 km/h (1 Bft) 97,87 %
01.06.2017 23:10 19,3 C 26,1 C 86 % 1017,1 hPa 0,0 l/m 1,3 km/h (1 Bft) S-SW 205 0 min 0,000 mm 0,0 UV-I 0 W/m 16,9 C 19,3 C 3,2 km/h (1 Bft) 93,62 %
01.06.2017 23:12 19,2 C 26,1 C 85 % 1017,1 hPa 0,0 l/m 0,1 km/h (0 Bft) S-SW 205 0 min 0,000 mm 0,0 UV-I 0 W/m 16,6 C 19,2 C 3,2 km/h (1 Bft) 96,00 %
01.06.2017 23:14 19,2 C 26,1 C 86 % 1017,2 hPa 0,0 l/m 0,2 km/h (0 Bft) S-SW 205 0 min 0,000 mm 0,0 UV-I 0 W/m 16,8 C 19,2 C 1,6 km/h (1 Bft) 95,45 %
01.06.2017 23:16 19,2 C 26,1 C 86 % 1017,2 hPa 0,0 l/m 0,0 km/h (0 Bft) S-SW 205 0 min 0,000 mm 0,0 UV-I 0 W/m 16,8 C 19,2 C 0,0 km/h (0 Bft) 96,00 %
01.06.2017 23:18 19,1 C 26,1 C 86 % 1017,2 hPa 0,0 l/m 1,6 km/h (1 Bft) S-SW 205 0 min 0,000 mm 0,0 UV-I 0 W/m 16,7 C 19,1 C 3,2 km/h (1 Bft) 97,56 %
01.06.2017 23:20 18,9 C 26,1 C 86 % 1017,2 hPa 0,0 l/m 2,7 km/h (1 Bft) S-SW 205 0 min 0,000 mm 0,0 UV-I 0 W/m 16,5 C 18,9 C 4,8 km/h (1 Bft) 100,00 %
01.06.2017 23:22 18,8 C 26,1 C 86 % 1017,2 hPa 0,0 l/m 4,5 km/h (1 Bft) S-SW 205 0 min 0,000 mm 0,0 UV-I 0 W/m 16,4 C 18,8 C 4,8 km/h (1 Bft) 97,01 %
01.06.2017 23:24 18,6 C 26,1 C 87 % 1017,2 hPa 0,0 l/m 3,3 km/h (1 Bft) S-SW 205 0 min 0,000 mm 0,0 UV-I 0 W/m 16,4 C 18,6 C 4,8 km/h (1 Bft) 100,00 %
01.06.2017 23:26 18,5 C 26,1 C 88 % 1017,2 hPa 0,0 l/m 1,8 km/h (1 Bft) S-SW 205 0 min 0,000 mm 0,0 UV-I 0 W/m 16,5 C 18,5 C 3,2 km/h (1 Bft) 100,00 %
01.06.2017 23:28 18,4 C 26,1 C 88 % 1017,2 hPa 0,0 l/m 1,4 km/h (1 Bft) S-SW 205 0 min 0,000 mm 0,0 UV-I 0 W/m 16,4 C 18,4 C 3,2 km/h (1 Bft) 98,08 %
01.06.2017 23:30 18,6 C 26,1 C 89 % 1017,2 hPa 0,0 l/m 0,5 km/h (0 Bft) S-SW 205 0 min 0,000 mm 0,0 UV-I 0 W/m 16,7 C 18,6 C 1,6 km/h (1 Bft) 100,00 %
01.06.2017 23:32 18,7 C 26,1 C 88 % 1017,2 hPa 0,0 l/m 0,7 km/h (0 Bft) S-SW 205 0 min 0,000 mm 0,0 UV-I 0 W/m 16,7 C 18,7 C 3,2 km/h (1 Bft) 97,87 %
01.06.2017 23:34 18,7 C 26,1 C 88 % 1017,2 hPa 0,0 l/m 1,3 km/h (1 Bft) S-SW 205 0 min 0,000 mm 0,0 UV-I 0 W/m 16,7 C 18,7 C 3,2 km/h (1 Bft) 100,00 %
01.06.2017 23:36 18,7 C 26,1 C 88 % 1017,2 hPa 0,0 l/m 1,2 km/h (1 Bft) S-SW 205 0 min 0,000 mm 0,0 UV-I 0 W/m 16,7 C 18,7 C 3,2 km/h (1 Bft) 98,00 %
01.06.2017 23:38 18,7 C 26,1 C 88 % 1017,1 hPa 0,0 l/m 0,9 km/h (0 Bft) S-SW 205 0 min 0,000 mm 0,0 UV-I 0 W/m 16,7 C 18,7 C 3,2 km/h (1 Bft) 95,74 %
01.06.2017 23:40 18,7 C 26,1 C 88 % 1017,1 hPa 0,0 l/m 0,8 km/h (0 Bft) S-SW 205 0 min 0,000 mm 0,0 UV-I 0 W/m 16,7 C 18,7 C 3,2 km/h (1 Bft) 98,11 %
01.06.2017 23:42 18,7 C 26,1 C 87 % 1017,1 hPa 0,0 l/m 0,0 km/h (0 Bft) S-SW 205 0 min 0,000 mm 0,0 UV-I 0 W/m 16,5 C 18,7 C 0,0 km/h (0 Bft) 97,14 %
01.06.2017 23:44 18,6 C 26,1 C 87 % 1017,1 hPa 0,0 l/m 0,1 km/h (0 Bft) S-SW 205 0 min 0,000 mm 0,0 UV-I 0 W/m 16,4 C 18,6 C 1,6 km/h (1 Bft) 96,00 %
01.06.2017 23:46 18,6 C 26,1 C 88 % 1017,1 hPa 0,0 l/m 0,0 km/h (0 Bft) S-SW 205 0 min 0,000 mm 0,0 UV-I 0 W/m 16,6 C 18,6 C 1,6 km/h (1 Bft) 94,00 %
01.06.2017 23:48 18,6 C 26,1 C 88 % 1017,1 hPa 0,0 l/m 0,0 km/h (0 Bft) S-SW 205 0 min 0,000 mm 0,0 UV-I 0 W/m 16,6 C 18,6 C 0,0 km/h (0 Bft) 93,62 %
01.06.2017 23:50 18,6 C 26,1 C 88 % 1017,1 hPa 0,0 l/m 0,0 km/h (0 Bft) S-SW 205 0 min 0,000 mm 0,0 UV-I 0 W/m 16,6 C 18,6 C 0,0 km/h (0 Bft) 97,87 %
01.06.2017 23:52 18,5 C 26,1 C 87 % 1017,1 hPa 0,0 l/m 0,0 km/h (0 Bft) S-SW 205 0 min 0,000 mm 0,0 UV-I 0 W/m 16,3 C 18,5 C 0,0 km/h (0 Bft) 97,37 %
01.06.2017 23:54 18,3 C 26,1 C 88 % 1017,0 hPa 0,0 l/m 0,0 km/h (0 Bft) S-SW 205 0 min 0,000 mm 0,0 UV-I 0 W/m 16,3 C 18,3 C 0,0 km/h (0 Bft) 96,00 %
01.06.2017 23:56 18,3 C 26,1 C 89 % 1017,0 hPa 0,0 l/m 0,0 km/h (0 Bft) S-SW 205 0 min 0,000 mm 0,0 UV-I 0 W/m 16,5 C 18,3 C 0,0 km/h (0 Bft) 94,00 %
01.06.2017 23:58 18,3 C 26,1 C 89 % 1017,1 hPa 0,0 l/m 0,0 km/h (0 Bft) S-SW 205 0 min 0,000 mm 0,0 UV-I 0 W/m 16,5 C 18,3 C 0,0 km/h (0 Bft) 98,00 %
_ Min-Zeit 04:56 06:08 14:08 18:20 - 00:02 - - - - - - 11:54 08:06 00:02 15:16
Minimum _ 16,2 C 25,0 C 53 % 1016,2 hPa - 0,0 km/h (0 Bft) - - - - - - 13,2 C 16,0 C 0,0 km/h (0 Bft) 88,10 %
_ Max-Zeit 17:04 16:12 01:40 09:04 00:00 10:42 - - 09:50 13:02 12:38 13:30 19:42 17:06 10:42 00:02
Maximum _ 24,9 C 26,7 C 89 % 1018,6 hPa 0,0 l/m 18,0 km/h
O-NO (3 Bft)
- - 5 min 0,559 mm 5,9 UV-I 943 W/m 17,0 C 24,9 C 25,7 km/h
O (4 Bft)
100,00 %
Durchschnitt _ 20,6 C 25,9 C 73 % 1017,4 hPa #0,0 l/m 5,1 km/h (1 Bft) NO - #8:40 h #4,369 mm 2,9 UV-I 383 W/m 15,3 C 20,2 C 8,6 km/h (2 Bft) 96,58 %